[[{"header":{"parameterUnit":"m.s-1","parameterCategory":1,"la1":31.0,"la2":29.5877,"lo1":-88.7671,"lo2":-86.6584,"dy":0.0162,"dx":0.0185,"nx":115,"ny":88,"refTime":"2023-05-09T12:00:00:Z","depth":0,"parameterNumber":2,"parameterNumberName":"U-component_of_WINDS"},"data":[0.0,0.0,0.0,0.0,0.0,0.0,0.0,0.0,0.0,0.0,0.0,0.0,0.0,0.0,0.0,0.0,0.0,0.0,0.0,0.0,0.0,0.0,0.0,0.0,0.0,0.0,0.0,0.0,0.0,0.0,0.0,0.0,0.0,0.0,0.0,0.0,0.0,0.0,0.0,0.0,0.0,0.0,0.0,0.0,0.0,0.0,0.0,0.0,0.0,0.0,0.0,0.0,0.0,0.0,0.0,0.0,0.0,0.0,0.0,0.0,0.0,0.0,0.0,0.0,0.0,0.0,0.0,0.0,0.0,0.0,0.0,0.0,0.0,0.0,0.0,0.0,0.0,0.0,0.0,0.0,0.0,0.0,0.0,0.0,0.0,0.0,0.0,0.0,0.0,0.0,0.0,0.0,0.0,0.0,0.0,0.0,0.0,0.0,0.0,0.0,0.0,0.0,0.0,0.0,0.0,0.0,0.0,0.0,0.0,0.0,0.0,0.0,0.0,0.0,0.0,0.0,0.0,0.0,0.0,0.0,0.0,0.0,0.0,0.0,0.0,0.0,0.0,0.0,0.0,0.0,0.0,0.0,0.0,0.0,0.0,0.0,0.0,0.0,0.0,0.0,0.0,0.0,0.0,0.0,0.0,0.0,0.0,0.0,0.0,0.0,0.0,0.0,0.0,0.0,0.0,0.0,0.0,0.0,0.0,0.0,0.0,0.0,0.0,0.0,0.0,0.0,0.0,0.0,0.0,0.0,0.0,0.0,0.0,0.0,0.0,0.0,0.0,0.0,0.0,0.0,0.0,0.0,0.0,0.0,0.0,0.0,0.0,0.0,0.0,0.0,0.0,0.0,0.0,0.0,0.0,0.0,0.0,0.0,0.0,0.0,0.0,0.0,0.0,0.0,0.0,0.0,0.0,0.0,0.0,0.0,0.0,0.0,0.0,0.0,0.0,0.0,0.0,0.0,0.0,0.0,0.0,0.0,0.0,0.0,0.0,0.0,0.0,0.0,0.0,0.0,0.0,0.0,0.0,0.0,0.0,0.0,0.0,0.0,0.0,0.0,0.0,0.0,0.0,0.0,0.0,0.0,0.0,0.0,0.0,0.0,0.0,0.0,0.0,0.0,0.0,0.0,0.0,0.0,0.0,0.0,0.0,0.0,0.0,0.0,0.0,0.0,0.0,0.0,0.0,0.0,0.0,0.0,0.0,0.0,0.0,0.0,0.0,0.0,0.0,0.0,0.0,0.0,0.0,0.0,0.0,0.0,0.0,0.0,0.0,0.0,0.0,0.0,0.0,0.0,0.0,0.0,0.0,0.0,0.0,0.0,0.0,0.0,0.0,0.0,0.0,0.0,0.0,0.0,0.0,0.0,0.0,0.0,0.0,0.0,0.0,0.0,0.0,0.0,0.0,0.0,0.0,0.0,0.0,0.0,0.0,0.0,0.0,0.0,0.0,0.0,0.0,0.0,0.0,0.0,0.0,0.0,0.0,0.0,0.0,0.0,0.0,0.0,0.0,0.0,0.0,0.0,0.0,0.0,0.0,0.0,0.0,0.0,0.0,0.0,0.0,0.0,0.0,0.0,0.0,0.0,0.0,0.0,0.0,0.0,0.0,0.0,0.0,0.0,0.0,0.0,0.0,0.0,0.0,0.0,0.0,0.0,0.0,0.0,0.0,0.0,0.0,0.0,0.0,0.0,0.0,0.0,0.0,0.0,0.0,0.0,0.0,0.0,0.0,0.0,0.0,0.0,0.0,0.0,0.0,0.0,0.0,0.0,0.0,0.0,0.0,0.0,0.0,0.0,0.0,0.0,0.0,0.0,0.0,0.0,0.0,0.0,0.0,0.0,0.0,0.0,0.0,0.0,0.0,0.0,0.0,0.0,0.0,0.0,0.0,0.0,0.0,0.0,0.0,0.0,0.0,0.0,0.0,0.0,0.0,0.0,0.0,0.0,0.0,0.0,0.0,0.0,0.0,0.0,0.0,0.0,0.0,0.0,0.0,0.0,0.0,0.0,0.0,0.0,0.0,0.0,0.0,0.0,0.0,0.0,0.0,0.0,0.0,0.0,0.0,0.0,0.0,0.0,0.0,0.0,0.0,0.0,0.0,0.0,0.0,0.0,0.0,0.0,0.0,0.0,0.0,0.0,0.0,0.0,0.0,0.0,0.0,0.0,0.0,0.0,0.0,0.0,0.0,0.0,0.0,0.0,0.0,0.0,0.0,0.0,0.0,0.0,0.0,0.0,0.0,0.0,0.0,0.0,0.0,0.0,0.0,0.0,0.0,0.0,0.0,0.0,0.0,0.0,0.0,0.0,0.0,0.0,0.0,0.0,0.0,0.0,0.0,0.0,0.0,0.0,0.0,0.0,0.0,0.0,0.0,0.0,0.0,0.0,0.0,0.0,0.0,0.0,0.0,0.0,0.0,0.0,0.0,0.0,0.0,0.0,0.0,0.0,0.0,0.0,0.0,0.0,0.0,0.0,0.0,0.0,0.0,0.0,0.0,0.0,0.0,0.0,0.0,0.0,0.0,0.0,0.0,0.0,0.0,0.0,0.0,0.0,0.0,0.0,0.0,0.0,0.0,0.0,0.0,0.0,0.0,0.0,0.0,0.0,0.0,0.0,0.0,0.0,0.0,0.0,0.0,0.0,0.0,0.0,0.0,0.0,0.0,0.0,0.0,0.0,0.0,0.0,0.0,0.0,0.0,0.0,0.0,0.0,0.0,0.0,0.0,0.0,0.0,0.0,0.0,0.0,0.0,0.0,0.0,0.0,0.0,0.0,0.0,0.0,0.0,0.0,0.0,0.0,0.0,0.0,0.0,0.0,0.0,0.0,0.0,0.0,0.0,0.0,0.0,0.0,0.0,0.0,0.0,0.0,0.0,0.0,0.0,0.0,0.0,0.0,0.0,0.0,0.0,0.0,0.0,0.0,0.0,0.0,0.0,0.0,0.0,0.0,0.0,0.0,0.0,0.0,0.0,0.0,0.0,0.0,0.0,0.0,0.0,0.0,0.0,0.0,0.0,0.0,0.0,0.0,0.0,0.0,0.0,0.0,0.0,0.0,0.0,0.0,0.0,0.0,0.0,0.0,0.0,0.0,0.0,0.0,0.0,0.0,0.0,0.0,0.0,0.0,0.0,0.0,0.0,0.0,0.0,0.0,0.0,0.0,0.0,0.0,0.0,0.0,0.0,0.0,0.0,0.0,0.0,0.0,0.0,0.0,0.0,0.0,0.0,0.0,0.0,0.0,0.0,0.0,0.0,0.0,0.0,0.0,0.0,0.0,0.0,0.0,0.0,0.0,0.0,0.0,0.0,0.0,0.0,0.0,0.0,0.0,0.0,0.0,0.0,0.0,0.0,0.0,0.0,0.0,0.0,0.0,0.0,0.0,0.0,0.0,0.0,0.0,0.0,0.0,0.0,0.0,0.0,0.0,0.0,0.0,0.0,0.0,0.0,0.0,0.0,0.0,0.0,0.0,0.0,0.0,0.0,0.0,0.0,0.0,0.0,0.0,0.0,0.0,0.0,0.0,0.0,0.0,0.0,0.0,0.0,0.0,0.0,0.0,0.0,0.0,0.0,0.0,0.0,0.0,0.0,0.0,0.0,0.0,0.0,0.0,0.0,0.0,0.0,0.0,0.0,0.0,0.0,0.0,0.0,0.0,0.0,0.0,0.0,0.0,0.0,0.0,0.0,0.0,0.0,0.0,0.0,0.0,0.0,0.0,0.0,0.0,0.0,0.0,0.0,0.0,0.0,0.0,0.0,0.0,0.0,0.0,0.0,0.0,0.0,0.0,0.0,0.0,0.0,0.0,0.0,0.0,0.0,0.0,0.0,0.0,0.0,0.0,0.0,0.0,0.0,0.0,0.0,0.0,0.0,0.0,0.0,0.0,0.0,0.0,0.0,0.0,0.0,0.0,0.0,0.0,0.0,0.0,0.0,0.0,0.0,0.0,0.0,0.0,0.0,0.0,0.0,0.0,0.0,0.0,0.0,0.0,0.0,0.0,0.0,0.0,0.0,0.0,0.0,0.0,0.0,0.0,0.0,0.0,0.0,0.0,0.0,0.0,0.0,0.0,0.0,0.0,0.0,0.0,0.0,0.0,0.0,0.0,0.0,0.0,0.0,0.0,0.0,0.0,0.0,0.0,0.0,0.0,0.0,0.0,0.0,0.0,0.0,0.0,0.0,0.0,0.0,0.0,0.0,0.0,0.0,0.0,0.0,0.0,0.0,0.0,0.0,0.0,-3.2551,0.0,0.0,0.0,-3.2044,0.0,0.0,0.0,0.0,0.0,0.0,0.0,0.0,0.0,0.0,0.0,0.0,0.0,0.0,0.0,0.0,0.0,0.0,0.0,0.0,0.0,0.0,0.0,0.0,0.0,0.0,0.0,0.0,0.0,0.0,0.0,0.0,0.0,0.0,0.0,0.0,0.0,0.0,0.0,0.0,0.0,0.0,0.0,0.0,0.0,0.0,0.0,0.0,0.0,0.0,0.0,0.0,0.0,0.0,0.0,0.0,0.0,0.0,0.0,0.0,0.0,0.0,0.0,0.0,0.0,0.0,0.0,0.0,0.0,0.0,0.0,0.0,0.0,0.0,0.0,0.0,0.0,0.0,0.0,0.0,0.0,0.0,0.0,0.0,0.0,0.0,0.0,0.0,0.0,0.0,0.0,0.0,0.0,0.0,0.0,0.0,0.0,0.0,0.0,0.0,0.0,0.0,0.0,0.0,0.0,0.0,0.0,0.0,0.0,0.0,-3.3532,-3.4276,-3.4069,-3.3557,-3.2729,0.0,0.0,0.0,0.0,0.0,0.0,0.0,0.0,0.0,0.0,0.0,0.0,0.0,0.0,0.0,0.0,0.0,0.0,0.0,0.0,0.0,0.0,0.0,0.0,0.0,0.0,0.0,0.0,0.0,0.0,0.0,0.0,0.0,0.0,0.0,0.0,0.0,0.0,0.0,0.0,0.0,0.0,0.0,0.0,0.0,0.0,0.0,0.0,0.0,0.0,0.0,0.0,0.0,0.0,0.0,0.0,0.0,0.0,0.0,0.0,0.0,0.0,0.0,0.0,0.0,0.0,0.0,0.0,0.0,0.0,0.0,0.0,0.0,0.0,0.0,0.0,0.0,0.0,0.0,0.0,0.0,0.0,0.0,0.0,0.0,0.0,0.0,0.0,0.0,0.0,0.0,0.0,0.0,0.0,0.0,0.0,0.0,0.0,0.0,0.0,0.0,0.0,0.0,0.0,0.0,0.0,0.0,0.0,0.0,0.0,0.0,0.0,-3.5012,-3.4306,-3.3256,0.0,0.0,0.0,0.0,0.0,0.0,0.0,0.0,0.0,0.0,0.0,0.0,0.0,0.0,0.0,0.0,0.0,0.0,0.0,0.0,0.0,0.0,0.0,0.0,0.0,0.0,0.0,0.0,0.0,0.0,0.0,0.0,0.0,0.0,0.0,0.0,0.0,0.0,0.0,0.0,0.0,0.0,0.0,0.0,0.0,0.0,0.0,0.0,0.0,0.0,0.0,0.0,0.0,0.0,0.0,0.0,0.0,0.0,0.0,0.0,0.0,0.0,0.0,0.0,0.0,0.0,0.0,0.0,0.0,0.0,0.0,0.0,0.0,0.0,0.0,0.0,0.0,0.0,0.0,0.0,0.0,0.0,0.0,0.0,0.0,0.0,0.0,0.0,0.0,0.0,0.0,0.0,0.0,0.0,0.0,0.0,0.0,0.0,0.0,0.0,0.0,0.0,0.0,0.0,0.0,0.0,0.0,0.0,0.0,0.0,-3.5055,-3.5377,-3.5571,0.0,-3.3195,0.0,0.0,0.0,0.0,0.0,0.0,0.0,0.0,0.0,0.0,0.0,0.0,0.0,0.0,0.0,0.0,0.0,0.0,0.0,0.0,0.0,0.0,0.0,0.0,0.0,0.0,0.0,0.0,0.0,0.0,0.0,0.0,0.0,0.0,0.0,0.0,0.0,0.0,0.0,0.0,0.0,0.0,0.0,0.0,0.0,0.0,0.0,0.0,0.0,0.0,0.0,0.0,0.0,0.0,0.0,0.0,0.0,0.0,0.0,0.0,0.0,0.0,0.0,0.0,0.0,0.0,0.0,0.0,0.0,0.0,0.0,0.0,0.0,0.0,0.0,0.0,0.0,0.0,0.0,0.0,0.0,0.0,0.0,0.0,0.0,0.0,0.0,0.0,0.0,0.0,0.0,0.0,0.0,0.0,0.0,0.0,0.0,0.0,0.0,0.0,0.0,0.0,0.0,0.0,0.0,0.0,0.0,0.0,0.0,0.0,-3.5143,-3.5469,-3.519,-3.4431,0.0,0.0,0.0,0.0,0.0,0.0,0.0,0.0,0.0,0.0,0.0,0.0,0.0,0.0,0.0,0.0,0.0,0.0,0.0,0.0,0.0,0.0,0.0,0.0,0.0,0.0,0.0,0.0,0.0,0.0,0.0,0.0,0.0,0.0,0.0,0.0,0.0,0.0,0.0,0.0,0.0,0.0,0.0,0.0,0.0,0.0,0.0,0.0,0.0,0.0,0.0,0.0,0.0,0.0,0.0,0.0,0.0,0.0,0.0,0.0,0.0,0.0,0.0,0.0,0.0,0.0,0.0,0.0,0.0,0.0,0.0,0.0,0.0,0.0,0.0,0.0,0.0,0.0,0.0,0.0,0.0,0.0,0.0,0.0,0.0,0.0,0.0,0.0,0.0,0.0,0.0,0.0,0.0,0.0,0.0,0.0,0.0,0.0,0.0,0.0,0.0,0.0,0.0,0.0,0.0,0.0,0.0,0.0,0.0,0.0,-3.5303,-3.5595,-3.587,-3.5232,-3.4299,-3.3137,0.0,0.0,0.0,0.0,0.0,0.0,0.0,0.0,0.0,0.0,0.0,0.0,0.0,0.0,0.0,0.0,0.0,0.0,0.0,0.0,0.0,0.0,0.0,0.0,0.0,0.0,0.0,0.0,0.0,0.0,0.0,0.0,0.0,0.0,0.0,0.0,0.0,0.0,0.0,0.0,0.0,0.0,0.0,0.0,0.0,0.0,0.0,0.0,0.0,0.0,0.0,0.0,0.0,0.0,0.0,0.0,0.0,0.0,0.0,0.0,0.0,0.0,0.0,0.0,0.0,0.0,0.0,0.0,0.0,0.0,0.0,0.0,0.0,0.0,0.0,0.0,0.0,0.0,0.0,0.0,0.0,0.0,0.0,0.0,0.0,0.0,0.0,0.0,0.0,0.0,0.0,0.0,0.0,0.0,0.0,0.0,0.0,0.0,0.0,0.0,0.0,0.0,0.0,0.0,0.0,0.0,0.0,0.0,-3.5995,-3.629,-3.6634,-3.6973,-3.6185,-3.4923,0.0,0.0,0.0,0.0,0.0,0.0,0.0,0.0,0.0,0.0,0.0,0.0,0.0,0.0,0.0,0.0,0.0,0.0,0.0,0.0,0.0,0.0,0.0,0.0,0.0,0.0,0.0,0.0,0.0,0.0,0.0,0.0,0.0,0.0,0.0,0.0,0.0,0.0,0.0,0.0,0.0,0.0,0.0,0.0,0.0,0.0,0.0,0.0,0.0,0.0,0.0,0.0,0.0,0.0,0.0,0.0,0.0,0.0,0.0,0.0,0.0,0.0,0.0,0.0,0.0,0.0,0.0,0.0,0.0,0.0,0.0,0.0,0.0,0.0,0.0,0.0,0.0,0.0,0.0,0.0,0.0,0.0,0.0,0.0,0.0,0.0,0.0,0.0,0.0,0.0,0.0,0.0,0.0,0.0,0.0,0.0,0.0,0.0,0.0,0.0,0.0,0.0,0.0,0.0,0.0,0.0,0.0,0.0,0.0,-3.6337,-3.7212,-3.7498,-3.7168,-3.6823,-3.5518,0.0,0.0,0.0,0.0,0.0,0.0,0.0,0.0,0.0,0.0,0.0,0.0,0.0,0.0,0.0,0.0,0.0,0.0,0.0,0.0,0.0,0.0,0.0,0.0,0.0,0.0,0.0,0.0,0.0,0.0,0.0,0.0,0.0,0.0,0.0,0.0,0.0,0.0,0.0,0.0,0.0,0.0,0.0,0.0,0.0,0.0,0.0,0.0,0.0,0.0,0.0,0.0,0.0,0.0,0.0,0.0,0.0,0.0,0.0,0.0,0.0,0.0,0.0,0.0,0.0,0.0,0.0,0.0,0.0,0.0,0.0,0.0,0.0,0.0,0.0,0.0,0.0,0.0,0.0,0.0,0.0,0.0,0.0,0.0,0.0,0.0,0.0,0.0,0.0,0.0,0.0,0.0,0.0,0.0,0.0,0.0,0.0,0.0,0.0,0.0,0.0,0.0,0.0,0.0,0.0,0.0,0.0,0.0,0.0,-3.7435,0.0,-3.8355,-3.7668,-3.7283,-3.5973,0.0,0.0,0.0,0.0,0.0,0.0,0.0,0.0,0.0,0.0,0.0,0.0,0.0,0.0,0.0,0.0,0.0,0.0,0.0,0.0,0.0,0.0,0.0,0.0,0.0,0.0,0.0,0.0,0.0,0.0,0.0,0.0,0.0,0.0,0.0,0.0,0.0,0.0,0.0,0.0,0.0,0.0,0.0,0.0,0.0,0.0,0.0,0.0,0.0,0.0,0.0,0.0,0.0,0.0,0.0,0.0,0.0,0.0,0.0,0.0,0.0,0.0,0.0,0.0,0.0,0.0,0.0,0.0,0.0,0.0,0.0,0.0,0.0,0.0,0.0,0.0,0.0,0.0,0.0,0.0,0.0,0.0,0.0,0.0,0.0,0.0,0.0,0.0,0.0,0.0,0.0,0.0,0.0,0.0,0.0,0.0,0.0,0.0,0.0,0.0,0.0,0.0,0.0,0.0,0.0,0.0,0.0,0.0,-3.7539,-3.9383,-3.9556,-3.9247,-3.8515,-3.764,-3.6241,0.0,0.0,0.0,0.0,0.0,0.0,0.0,0.0,0.0,0.0,0.0,0.0,0.0,0.0,0.0,0.0,0.0,0.0,0.0,0.0,0.0,0.0,0.0,0.0,0.0,0.0,0.0,0.0,0.0,0.0,0.0,0.0,0.0,0.0,0.0,0.0,0.0,0.0,0.0,0.0,0.0,0.0,0.0,0.0,0.0,0.0,0.0,0.0,0.0,0.0,0.0,0.0,0.0,0.0,0.0,0.0,0.0,0.0,0.0,0.0,0.0,0.0,0.0,0.0,0.0,0.0,0.0,0.0,0.0,0.0,0.0,0.0,0.0,0.0,0.0,0.0,0.0,0.0,0.0,0.0,0.0,0.0,0.0,0.0,0.0,0.0,0.0,0.0,0.0,0.0,0.0,0.0,0.0,0.0,0.0,0.0,0.0,0.0,0.0,0.0,0.0,0.0,0.0,0.0,0.0,0.0,0.0,0.0,0.0,-3.9621,-4.0243,-4.0196,-3.941,-3.848,-3.7125,0.0,0.0,0.0,0.0,0.0,0.0,0.0,0.0,0.0,0.0,0.0,0.0,0.0,0.0,0.0,0.0,0.0,0.0,0.0,0.0,0.0,0.0,0.0,0.0,0.0,0.0,0.0,0.0,0.0,0.0,0.0,0.0,0.0,0.0,0.0,0.0,0.0,0.0,0.0,0.0,0.0,0.0,0.0,0.0,0.0,0.0,0.0,0.0,0.0,0.0,0.0,0.0,0.0,0.0,0.0,0.0,0.0,0.0,0.0,0.0,0.0,0.0,0.0,0.0,0.0,0.0,0.0,0.0,0.0,0.0,0.0,0.0,0.0,0.0,0.0,0.0,0.0,0.0,0.0,0.0,0.0,0.0,0.0,0.0,0.0,0.0,0.0,0.0,0.0,0.0,0.0,0.0,0.0,0.0,0.0,0.0,0.0,0.0,0.0,0.0,0.0,0.0,0.0,0.0,0.0,0.0,0.0,0.0,0.0,-4.0694,-4.1218,-4.1092,-4.0268,-3.9369,-3.8019,-3.6132,0.0,0.0,0.0,0.0,0.0,0.0,0.0,0.0,0.0,0.0,0.0,0.0,0.0,0.0,0.0,0.0,0.0,0.0,0.0,0.0,0.0,0.0,0.0,0.0,0.0,0.0,0.0,0.0,0.0,0.0,0.0,0.0,0.0,0.0,0.0,0.0,0.0,0.0,0.0,0.0,0.0,0.0,0.0,0.0,0.0,0.0,0.0,0.0,0.0,0.0,0.0,0.0,0.0,0.0,0.0,0.0,0.0,0.0,0.0,0.0,0.0,0.0,0.0,0.0,0.0,0.0,0.0,0.0,0.0,0.0,0.0,0.0,0.0,0.0,0.0,0.0,0.0,0.0,0.0,0.0,0.0,0.0,0.0,0.0,0.0,0.0,0.0,0.0,0.0,0.0,0.0,0.0,0.0,0.0,0.0,0.0,0.0,0.0,0.0,0.0,0.0,0.0,0.0,0.0,0.0,0.0,0.0,0.0,-4.2457,-4.244,-4.2007,-4.1074,-4.0165,-3.882,0.0,0.0,0.0,0.0,0.0,0.0,0.0,0.0,0.0,0.0,0.0,0.0,0.0,0.0,0.0,0.0,0.0,0.0,0.0,0.0,0.0,0.0,0.0,0.0,0.0,0.0,0.0,0.0,0.0,0.0,0.0,0.0,0.0,0.0,0.0,0.0,0.0,0.0,0.0,0.0,0.0,0.0,0.0,0.0,0.0,0.0,0.0,0.0,0.0,0.0,0.0,0.0,0.0,0.0,0.0,0.0,0.0,0.0,0.0,0.0,0.0,0.0,0.0,0.0,0.0,0.0,0.0,0.0,0.0,0.0,0.0,0.0,0.0,0.0,0.0,0.0,0.0,0.0,0.0,0.0,0.0,0.0,0.0,0.0,0.0,0.0,0.0,0.0,0.0,0.0,0.0,0.0,0.0,0.0,0.0,0.0,0.0,0.0,0.0,0.0,0.0,0.0,0.0,0.0,0.0,0.0,0.0,0.0,0.0,-4.3261,-4.3913,-4.3511,-4.1984,-4.0443,-3.9064,0.0,0.0,0.0,0.0,0.0,0.0,0.0,0.0,0.0,0.0,0.0,0.0,0.0,0.0,0.0,0.0,0.0,0.0,0.0,0.0,0.0,0.0,0.0,0.0,0.0,0.0,0.0,0.0,0.0,0.0,0.0,0.0,0.0,0.0,0.0,0.0,0.0,0.0,0.0,0.0,0.0,0.0,0.0,0.0,0.0,0.0,0.0,0.0,0.0,0.0,0.0,0.0,0.0,0.0,0.0,0.0,0.0,0.0,0.0,0.0,0.0,0.0,0.0,0.0,0.0,0.0,0.0,0.0,0.0,0.0,0.0,0.0,0.0,0.0,0.0,0.0,0.0,0.0,0.0,0.0,0.0,0.0,0.0,0.0,0.0,0.0,0.0,0.0,0.0,0.0,0.0,0.0,0.0,0.0,0.0,0.0,0.0,0.0,0.0,0.0,0.0,0.0,0.0,0.0,0.0,0.0,0.0,0.0,-4.271,-4.3582,-4.4072,-4.3799,-4.2788,-4.1393,-3.9882,0.0,0.0,0.0,0.0,0.0,0.0,0.0,0.0,0.0,0.0,0.0,0.0,0.0,0.0,0.0,0.0,0.0,0.0,0.0,0.0,0.0,0.0,0.0,0.0,0.0,0.0,0.0,0.0,0.0,0.0,0.0,0.0,0.0,0.0,0.0,0.0,0.0,0.0,0.0,0.0,0.0,0.0,0.0,0.0,0.0,0.0,0.0,0.0,0.0,0.0,0.0,0.0,0.0,0.0,0.0,0.0,0.0,0.0,0.0,0.0,0.0,0.0,0.0,0.0,0.0,0.0,0.0,0.0,0.0,0.0,0.0,0.0,0.0,0.0,0.0,0.0,0.0,0.0,0.0,0.0,0.0,0.0,0.0,0.0,0.0,0.0,0.0,0.0,0.0,0.0,0.0,0.0,0.0,0.0,0.0,0.0,0.0,0.0,0.0,0.0,0.0,0.0,0.0,0.0,0.0,0.0,0.0,0.0,-4.2871,-4.3716,-4.3754,-4.3653,-4.3402,-4.2549,-4.0864,0.0,0.0,0.0,0.0,0.0,0.0,0.0,0.0,0.0,0.0,0.0,0.0,0.0,0.0,0.0,0.0,0.0,0.0,0.0,0.0,0.0,0.0,0.0,0.0,0.0,0.0,0.0,0.0,0.0,0.0,0.0,0.0,0.0,0.0,0.0,0.0,0.0,0.0,0.0,0.0,0.0,0.0,0.0,0.0,0.0,0.0,0.0,0.0,0.0,0.0,0.0,0.0,0.0,0.0,0.0,0.0,0.0,0.0,0.0,0.0,0.0,0.0,0.0,0.0,0.0,0.0,0.0,0.0,0.0,0.0,0.0,0.0,0.0,0.0,0.0,0.0,0.0,0.0,0.0,0.0,0.0,0.0,0.0,0.0,0.0,0.0,0.0,0.0,0.0,0.0,0.0,0.0,0.0,0.0,0.0,0.0,0.0,0.0,0.0,0.0,0.0,0.0,0.0,0.0,0.0,0.0,0.0,0.0,-4.3785,-4.4604,-4.5238,-4.486,-4.3435,-4.2509,-4.0803,0.0,0.0,0.0,0.0,0.0,0.0,0.0,0.0,0.0,0.0,0.0,0.0,0.0,0.0,0.0,0.0,0.0,0.0,0.0,0.0,0.0,0.0,0.0,0.0,0.0,0.0,0.0,0.0,0.0,0.0,0.0,0.0,0.0,0.0,0.0,0.0,0.0,0.0,0.0,0.0,0.0,0.0,0.0,0.0,0.0,0.0,0.0,0.0,-3.595,0.0,0.0,0.0,0.0,0.0,0.0,0.0,0.0,0.0,0.0,0.0,0.0,0.0,0.0,0.0,0.0,0.0,0.0,0.0,0.0,0.0,0.0,0.0,0.0,0.0,0.0,0.0,0.0,0.0,0.0,0.0,0.0,0.0,0.0,0.0,0.0,0.0,0.0,0.0,0.0,0.0,0.0,0.0,0.0,0.0,0.0,0.0,0.0,0.0,0.0,0.0,0.0,0.0,0.0,0.0,0.0,0.0,0.0,0.0,-4.4093,-4.4877,-4.5659,-4.5187,-4.3435,-4.2834,-4.115,0.0,0.0,0.0,0.0,0.0,0.0,0.0,0.0,0.0,0.0,0.0,0.0,0.0,0.0,0.0,0.0,0.0,0.0,0.0,0.0,0.0,0.0,0.0,0.0,0.0,0.0,0.0,0.0,0.0,0.0,0.0,0.0,0.0,0.0,0.0,0.0,0.0,0.0,0.0,0.0,0.0,0.0,0.0,0.0,0.0,0.0,0.0,0.0,0.0,0.0,0.0,0.0,0.0,0.0,0.0,0.0,0.0,0.0,0.0,0.0,0.0,0.0,0.0,0.0,0.0,0.0,0.0,0.0,0.0,0.0,0.0,0.0,0.0,0.0,0.0,0.0,0.0,0.0,0.0,0.0,0.0,0.0,0.0,0.0,0.0,0.0,0.0,0.0,0.0,0.0,0.0,0.0,0.0,0.0,0.0,0.0,0.0,0.0,0.0,0.0,0.0,0.0,0.0,0.0,0.0,0.0,0.0,-4.33,-4.4145,-4.5046,-4.5689,-4.5146,-4.3362,-4.3238,-4.1598,-3.8273,0.0,0.0,0.0,0.0,0.0,0.0,0.0,0.0,0.0,0.0,0.0,0.0,0.0,0.0,0.0,0.0,0.0,0.0,0.0,0.0,0.0,0.0,0.0,0.0,0.0,0.0,0.0,0.0,0.0,0.0,0.0,0.0,0.0,0.0,0.0,0.0,0.0,0.0,-3.7337,-3.8268,0.0,0.0,0.0,0.0,0.0,0.0,0.0,0.0,-3.7161,0.0,0.0,0.0,0.0,0.0,0.0,0.0,0.0,0.0,0.0,0.0,0.0,0.0,0.0,0.0,0.0,0.0,0.0,0.0,0.0,0.0,0.0,0.0,0.0,0.0,0.0,0.0,0.0,0.0,0.0,0.0,0.0,0.0,0.0,0.0,0.0,0.0,0.0,0.0,0.0,0.0,0.0,0.0,0.0,0.0,0.0,0.0,0.0,0.0,0.0,0.0,0.0,0.0,0.0,0.0,0.0,-4.3365,-4.3531,-4.4365,-4.5866,-4.5969,-4.5134,-4.3402,-4.3243,-4.1603,-3.8336,0.0,0.0,0.0,0.0,0.0,0.0,0.0,0.0,0.0,0.0,0.0,0.0,0.0,0.0,0.0,0.0,0.0,0.0,0.0,0.0,0.0,0.0,0.0,0.0,0.0,0.0,0.0,0.0,0.0,0.0,0.0,0.0,0.0,0.0,0.0,0.0,0.0,0.0,0.0,-4.1335,-4.2134,0.0,0.0,0.0,0.0,0.0,0.0,0.0,0.0,-3.8717,0.0,0.0,0.0,0.0,0.0,0.0,0.0,0.0,0.0,0.0,0.0,0.0,0.0,0.0,0.0,0.0,0.0,0.0,0.0,0.0,0.0,0.0,0.0,0.0,0.0,0.0,0.0,0.0,0.0,0.0,0.0,0.0,0.0,0.0,0.0,0.0,0.0,0.0,0.0,0.0,0.0,0.0,0.0,0.0,0.0,0.0,0.0,0.0,0.0,0.0,0.0,0.0,0.0,0.0,0.0,-4.3434,-4.4053,-4.4858,-4.6037,-4.6026,-4.513,-4.333,-4.3209,-4.1781,0.0,0.0,0.0,0.0,0.0,0.0,0.0,0.0,0.0,0.0,0.0,0.0,0.0,0.0,0.0,0.0,0.0,0.0,0.0,0.0,0.0,0.0,0.0,0.0,0.0,0.0,0.0,0.0,0.0,0.0,0.0,0.0,0.0,0.0,0.0,0.0,0.0,0.0,0.0,0.0,-4.3071,-4.3439,-4.5009,0.0,0.0,0.0,0.0,0.0,0.0,-4.002,-3.9244,0.0,0.0,0.0,0.0,0.0,0.0,0.0,0.0,0.0,0.0,0.0,0.0,0.0,0.0,0.0,0.0,0.0,0.0,0.0,0.0,0.0,0.0,0.0,0.0,0.0,0.0,0.0,0.0,0.0,0.0,0.0,0.0,0.0,0.0,0.0,0.0,0.0,0.0,0.0,0.0,0.0,0.0,0.0,0.0,0.0,0.0,0.0,0.0,0.0,0.0,0.0,0.0,0.0,0.0,0.0,-4.3554,-4.4477,-4.5279,-4.6035,-4.6025,-4.5086,-4.3269,-4.3188,-4.1959,0.0,0.0,0.0,0.0,0.0,0.0,0.0,0.0,0.0,0.0,0.0,0.0,0.0,0.0,0.0,0.0,0.0,0.0,0.0,0.0,0.0,0.0,0.0,0.0,0.0,0.0,0.0,0.0,0.0,0.0,0.0,0.0,0.0,0.0,0.0,0.0,0.0,0.0,0.0,0.0,0.0,-4.4307,-4.583,-4.5234,0.0,0.0,0.0,0.0,-4.1625,-4.051,0.0,0.0,0.0,0.0,0.0,0.0,0.0,0.0,0.0,0.0,0.0,0.0,0.0,0.0,0.0,0.0,0.0,0.0,0.0,0.0,0.0,0.0,0.0,0.0,0.0,0.0,0.0,0.0,0.0,0.0,0.0,0.0,0.0,0.0,0.0,0.0,0.0,0.0,0.0,0.0,0.0,0.0,0.0,0.0,0.0,0.0,0.0,0.0,0.0,0.0,0.0,0.0,0.0,0.0,0.0,0.0,-4.3613,-4.4484,-4.5254,-4.5949,-4.596,-4.5047,-4.3265,-4.3142,-4.1909,0.0,0.0,0.0,0.0,0.0,0.0,0.0,0.0,0.0,0.0,0.0,0.0,0.0,0.0,0.0,0.0,0.0,0.0,0.0,0.0,0.0,0.0,0.0,0.0,0.0,0.0,0.0,0.0,0.0,0.0,0.0,0.0,0.0,0.0,0.0,0.0,0.0,0.0,0.0,0.0,0.0,-4.5152,-4.6739,-4.6042,-4.4955,0.0,0.0,-4.2795,-4.2576,-4.1649,0.0,0.0,0.0,0.0,0.0,0.0,0.0,0.0,0.0,0.0,0.0,0.0,0.0,0.0,0.0,0.0,0.0,0.0,0.0,0.0,0.0,0.0,0.0,0.0,0.0,0.0,0.0,0.0,0.0,0.0,0.0,0.0,0.0,0.0,0.0,0.0,0.0,0.0,0.0,0.0,0.0,0.0,0.0,0.0,0.0,0.0,0.0,0.0,0.0,0.0,0.0,0.0,0.0,0.0,0.0,-4.0848,-4.2909,-4.42,-4.4981,-4.5259,-4.5647,-4.4993,-4.3238,-4.3135,-4.2113,0.0,0.0,0.0,0.0,0.0,0.0,0.0,0.0,0.0,0.0,0.0,0.0,0.0,0.0,0.0,0.0,0.0,0.0,0.0,0.0,0.0,0.0,0.0,0.0,0.0,0.0,0.0,0.0,0.0,0.0,0.0,0.0,0.0,0.0,0.0,0.0,0.0,0.0,0.0,0.0,0.0,0.0,-4.6333,-4.6661,0.0,0.0,0.0,-4.3646,-4.1754,0.0,0.0,0.0,0.0,0.0,0.0,0.0,0.0,0.0,0.0,0.0,0.0,0.0,0.0,0.0,0.0,0.0,0.0,0.0,0.0,0.0,0.0,0.0,0.0,0.0,0.0,0.0,0.0,0.0,0.0,0.0,0.0,0.0,0.0,0.0,0.0,0.0,0.0,0.0,0.0,0.0,0.0,0.0,0.0,0.0,0.0,0.0,0.0,0.0,0.0,0.0,0.0,0.0,0.0,0.0,0.0,0.0,-4.2649,-4.4068,-4.4873,-4.4988,-4.5512,-4.5054,-4.357,-4.3235,0.0,0.0,0.0,0.0,0.0,0.0,0.0,0.0,0.0,0.0,0.0,0.0,0.0,0.0,0.0,0.0,0.0,0.0,0.0,0.0,0.0,0.0,0.0,0.0,0.0,0.0,0.0,-3.5036,0.0,0.0,0.0,0.0,0.0,0.0,0.0,0.0,0.0,0.0,0.0,0.0,0.0,0.0,-4.5982,-4.5744,-4.6929,-4.707,0.0,0.0,-4.3992,-4.1231,-4.0901,-4.0035,0.0,0.0,0.0,0.0,0.0,0.0,0.0,0.0,0.0,0.0,0.0,0.0,0.0,0.0,0.0,0.0,0.0,0.0,0.0,0.0,0.0,0.0,0.0,0.0,0.0,0.0,0.0,0.0,0.0,0.0,0.0,0.0,0.0,0.0,0.0,0.0,0.0,0.0,0.0,0.0,0.0,0.0,0.0,0.0,0.0,0.0,0.0,0.0,0.0,0.0,0.0,0.0,0.0,0.0,-4.0996,-4.3355,-4.4328,-4.5079,-4.5692,-4.5703,-4.5268,-4.4352,-4.3541,-4.2662,0.0,0.0,0.0,0.0,0.0,0.0,0.0,0.0,0.0,0.0,0.0,0.0,0.0,0.0,0.0,0.0,0.0,0.0,0.0,0.0,0.0,0.0,0.0,0.0,0.0,0.0,0.0,0.0,0.0,0.0,0.0,0.0,0.0,0.0,0.0,0.0,0.0,0.0,0.0,0.0,0.0,-4.5764,-4.5315,-4.6602,-4.6802,0.0,-4.4147,-4.352,-4.1868,-4.1127,-4.005,-3.8011,0.0,0.0,0.0,0.0,0.0,0.0,0.0,0.0,0.0,0.0,0.0,0.0,0.0,0.0,0.0,0.0,0.0,0.0,0.0,0.0,0.0,0.0,0.0,0.0,0.0,0.0,0.0,0.0,0.0,0.0,0.0,0.0,0.0,0.0,0.0,0.0,0.0,0.0,0.0,0.0,0.0,0.0,0.0,0.0,0.0,0.0,0.0,0.0,0.0,0.0,0.0,0.0,0.0,-3.9765,-4.1159,-4.2981,-4.4045,-4.4285,-4.5183,-4.5293,-4.4429,-4.3572,-4.2701,0.0,0.0,0.0,0.0,0.0,0.0,0.0,0.0,0.0,0.0,0.0,0.0,0.0,0.0,0.0,0.0,0.0,0.0,0.0,0.0,0.0,0.0,0.0,0.0,0.0,0.0,0.0,0.0,-3.5657,-3.5946,-3.5995,0.0,0.0,0.0,0.0,0.0,0.0,0.0,0.0,0.0,0.0,-4.5357,-4.5228,-4.5843,0.0,0.0,-4.4429,-4.3689,-4.1053,-4.0781,-3.9946,-3.7132,-3.6407,0.0,0.0,0.0,0.0,0.0,0.0,0.0,0.0,0.0,0.0,0.0,0.0,0.0,0.0,0.0,0.0,0.0,0.0,0.0,0.0,0.0,0.0,0.0,0.0,0.0,0.0,0.0,0.0,0.0,0.0,0.0,0.0,0.0,0.0,0.0,0.0,0.0,0.0,0.0,0.0,0.0,0.0,0.0,0.0,0.0,0.0,0.0,0.0,0.0,0.0,0.0,0.0,-3.9061,-4.002,-4.2252,-4.3481,-4.361,-4.4974,-4.5368,-4.4752,-4.391,-4.3066,0.0,0.0,0.0,0.0,0.0,0.0,0.0,0.0,0.0,0.0,0.0,0.0,0.0,0.0,0.0,0.0,0.0,0.0,0.0,0.0,0.0,0.0,0.0,0.0,0.0,0.0,0.0,0.0,-3.5558,-3.5923,-3.5968,0.0,0.0,0.0,0.0,0.0,0.0,0.0,0.0,0.0,0.0,-4.4941,-4.4867,-4.5213,-4.5129,-4.4123,-4.4108,-4.3207,-4.0398,-4.0112,-3.9249,-3.6466,0.0,0.0,0.0,0.0,0.0,0.0,0.0,0.0,0.0,0.0,0.0,0.0,0.0,0.0,0.0,0.0,0.0,0.0,0.0,0.0,0.0,0.0,0.0,0.0,0.0,0.0,0.0,-3.6718,0.0,0.0,-3.5577,0.0,0.0,0.0,0.0,0.0,0.0,0.0,0.0,0.0,0.0,0.0,0.0,0.0,0.0,0.0,0.0,0.0,0.0,0.0,0.0,0.0,0.0,-3.9306,-4.0765,-4.247,-4.3654,-4.4226,-4.5133,-4.5537,-4.5518,-4.4701,-4.3874,-4.3028,0.0,0.0,0.0,0.0,0.0,0.0,0.0,0.0,0.0,0.0,0.0,0.0,0.0,0.0,0.0,0.0,0.0,0.0,0.0,0.0,0.0,0.0,0.0,0.0,0.0,0.0,-3.5914,-3.5882,-3.5871,0.0,0.0,0.0,0.0,0.0,0.0,0.0,0.0,0.0,-4.2546,-4.3828,-4.4549,-4.4117,-4.4793,-4.4913,-4.3709,-4.2889,-4.1807,-4.0159,-3.9103,-3.7893,0.0,0.0,0.0,0.0,0.0,0.0,0.0,0.0,0.0,0.0,0.0,0.0,0.0,0.0,0.0,0.0,0.0,0.0,0.0,0.0,0.0,0.0,0.0,0.0,0.0,0.0,0.0,-3.8843,-3.9108,0.0,0.0,0.0,0.0,0.0,0.0,0.0,0.0,0.0,0.0,0.0,-4.1896,-4.1947,0.0,0.0,0.0,0.0,0.0,0.0,0.0,0.0,0.0,0.0,0.0,0.0,-3.9049,-3.9961,-4.1645,-4.2865,-4.3487,-4.3778,-4.4201,-4.4701,-4.3932,-4.2835,-4.1393,0.0,0.0,0.0,0.0,0.0,0.0,0.0,0.0,0.0,0.0,0.0,0.0,0.0,0.0,0.0,0.0,0.0,0.0,0.0,0.0,0.0,0.0,0.0,0.0,0.0,-3.6122,0.0,0.0,0.0,0.0,0.0,0.0,0.0,0.0,0.0,0.0,-4.1657,-4.2441,-4.2997,-4.374,-4.4184,-4.4013,-4.4093,-4.3974,0.0,0.0,0.0,0.0,0.0,0.0,0.0,0.0,0.0,0.0,0.0,0.0,0.0,0.0,-3.4782,-3.4736,-3.4303,-3.3898,-3.3692,0.0,0.0,0.0,0.0,0.0,0.0,0.0,0.0,0.0,0.0,0.0,0.0,0.0,0.0,-3.9966,-4.0189,-3.9288,0.0,0.0,0.0,0.0,0.0,0.0,0.0,0.0,-4.077,-4.1605,-4.2777,-4.2773,-4.2488,0.0,-4.0857,-3.9624,0.0,0.0,0.0,0.0,0.0,0.0,0.0,0.0,-3.8773,-3.9151,-4.1077,-4.2283,-4.264,-4.2951,-4.3335,-4.3855,-4.3374,-4.2297,-4.0554,-3.9431,-3.8271,0.0,0.0,0.0,0.0,0.0,0.0,0.0,0.0,0.0,0.0,0.0,0.0,0.0,0.0,0.0,0.0,0.0,0.0,0.0,0.0,0.0,0.0,0.0,-3.6034,0.0,0.0,0.0,0.0,0.0,0.0,0.0,0.0,0.0,-4.1282,-4.2136,-4.2765,-4.3066,-4.3517,-4.3735,-4.3465,0.0,0.0,0.0,0.0,0.0,0.0,0.0,-3.8078,-3.6936,-3.6879,-3.6761,-3.6142,-3.5609,-3.5131,-3.4763,0.0,0.0,-3.4541,-3.3942,-3.3305,-3.2855,-3.2026,-3.1265,-3.076,-3.059,-3.043,0.0,0.0,0.0,0.0,0.0,0.0,0.0,0.0,-4.1389,-4.0775,0.0,-4.0379,0.0,0.0,0.0,0.0,-3.705,-3.8618,0.0,0.0,-4.0532,-4.097,-4.12,-4.12,-4.1172,-4.125,-4.123,-4.0762,-3.9863,-3.7361,0.0,0.0,0.0,0.0,0.0,0.0,-3.8537,-3.8517,-4.0832,-4.1959,-4.184,-4.2601,-4.3017,-4.3066,-4.3047,-4.2258,-4.065,-4.0446,-3.9385,-3.7108,-3.693,0.0,0.0,0.0,0.0,0.0,0.0,0.0,0.0,0.0,0.0,0.0,0.0,0.0,0.0,0.0,0.0,0.0,0.0,0.0,0.0,-3.6977,0.0,0.0,0.0,0.0,0.0,0.0,0.0,0.0,0.0,-4.0374,-4.1127,-4.2087,-4.2753,-4.2677,0.0,0.0,0.0,0.0,-4.2011,-4.1279,-4.0286,-3.9557,-3.9317,-3.8626,-3.8006,-3.7627,0.0,0.0,-3.7286,-3.6307,-3.5359,-3.4388,-3.4562,-3.479,-3.4451,-3.3663,-3.2676,-3.1573,-3.1057,-3.0377,-2.9422,-2.9228,-2.9199,-4.1585,0.0,0.0,0.0,0.0,-4.1235,-4.1796,-4.2609,-4.1905,-4.203,-4.2612,-4.1532,0.0,0.0,0.0,0.0,0.0,0.0,-4.0099,-4.13,-4.1602,-4.2097,-4.2724,-4.2728,-4.2734,-4.2719,-4.1607,-4.1249,-4.1486,-3.9079,-3.7675,-3.7285,0.0,0.0,0.0,0.0,-3.9132,-4.0206,-4.0964,-4.1525,-4.1925,-4.157,-4.1624,-4.2162,-4.2173,-4.195,-4.1431,-4.0319,-3.9427,-3.8777,-3.7654,0.0,0.0,0.0,0.0,0.0,0.0,0.0,0.0,0.0,0.0,0.0,0.0,0.0,0.0,0.0,0.0,0.0,0.0,0.0,-3.6936,-3.6878,-3.6485,0.0,0.0,0.0,0.0,0.0,0.0,0.0,0.0,0.0,-4.1314,-4.1754,-4.2121,0.0,0.0,-4.2341,-4.157,-4.1444,-4.1554,-4.1919,-4.0701,0.0,-4.0216,-3.8706,-3.7373,-3.7015,-3.6775,-3.6322,-3.5353,-3.5389,-3.5315,-3.4545,-3.4509,-3.4585,-3.4466,-3.371,-3.2832,-3.1965,-3.0768,-2.9773,-2.9387,-2.8855,-2.8344,-4.2897,-4.22,-4.1647,-4.1588,-4.1835,-4.1853,-4.2356,-4.3162,-4.2476,-4.2653,-4.329,-4.2251,-4.1695,-4.1492,-4.0307,0.0,0.0,0.0,-4.0487,-4.148,-4.1535,-4.1854,-4.2342,-4.2363,-4.2343,-4.2307,-4.1386,-4.1173,-4.1683,-3.992,-3.8763,-3.8256,0.0,-3.7812,-3.7851,-3.8672,-3.9565,-4.0446,-4.0818,-4.1156,-4.1489,-4.0635,-4.0558,-4.1314,-4.1316,-4.1297,-4.1352,-4.0765,-4.0174,-3.9595,-3.8308,-3.7498,0.0,0.0,0.0,0.0,0.0,0.0,0.0,0.0,0.0,0.0,0.0,-3.5947,-3.5956,0.0,0.0,0.0,-3.66,-3.6713,-3.5984,-3.642,0.0,0.0,0.0,0.0,0.0,0.0,0.0,-3.8686,-3.9402,-3.9968,-4.04,-4.0793,-4.1329,-4.2189,-4.2304,-4.1901,-4.0781,0.0,-4.0689,-4.0855,-3.9967,-3.9394,-3.9717,-3.8545,-3.7468,-3.7218,-3.6812,-3.6224,-3.5467,-3.5487,-3.5243,-3.4378,-3.4105,-3.3918,-3.341,-3.3066,-3.2637,-3.1884,-3.0867,-3.0018,-2.9658,-2.9122,-2.8734,-4.4176,-4.3368,-4.2046,-4.1862,-4.2459,-4.2478,-4.2886,-4.3475,-4.3045,-4.2797,-4.2713,-4.2515,-4.1952,-4.1096,-4.0675,0.0,-3.9427,-4.0282,-4.068,-4.068,-4.068,-4.0715,-4.0768,-4.0724,-4.0715,-4.0792,-4.08,-4.0805,-4.0774,-4.0123,-3.9823,-3.9784,-3.9136,-3.8769,-3.875,-3.9512,-3.9879,-3.9829,-4.0631,-4.0955,-4.0813,-3.9966,-3.9913,-4.0696,-4.057,-4.0582,-4.0729,-4.1482,-4.1228,-3.9776,-3.8881,-3.8079,-3.7342,0.0,0.0,0.0,0.0,0.0,0.0,0.0,0.0,0.0,0.0,0.0,0.0,0.0,0.0,-3.5919,-3.6499,0.0,-3.4817,-3.5977,0.0,0.0,0.0,-3.7013,-3.8508,-3.8403,-3.8471,-3.9117,0.0,0.0,-3.8914,-3.9491,-4.042,-4.1844,-4.2011,-4.1442,-3.9918,-3.9622,-3.9386,-3.9019,-3.8627,-3.8476,-3.8725,-3.8276,-3.7825,-3.7558,-3.7719,-3.7263,-3.6495,-3.5936,-3.5038,-3.3696,-3.3377,-3.2961,-3.1645,-3.1885,-3.205,-3.1179,-3.0974,-3.0657,-2.9882,-2.9508,-2.94,-4.3681,-4.346,-4.3126,-4.309,-4.3238,-4.3238,-4.3331,-4.3478,-4.3361,-4.313,-4.2731,-4.2099,-4.1266,-4.0338,-4.0253,-4.0198,-4.0227,-4.0446,-4.0545,-4.0545,-4.0545,-4.0574,-4.057,-4.0566,-4.0547,-4.0577,-4.0678,-4.0735,-4.0726,-4.0701,-4.0682,-4.0686,-4.0621,-4.0234,-3.9629,-3.9805,-4.0215,-4.0838,-4.1052,-4.1081,-4.0957,-4.0622,-4.055,-4.076,-4.0733,-4.0752,-4.0779,-4.1071,-4.0766,-3.9743,-3.8972,-3.8162,-3.7344,-3.6484,0.0,0.0,0.0,0.0,0.0,0.0,0.0,0.0,0.0,-3.6012,-3.6015,0.0,-3.598,0.0,-3.6499,-3.6958,-3.7115,-3.7478,0.0,0.0,-3.7452,-3.779,-3.8471,-3.8335,-3.8428,-3.8966,-3.8896,-3.905,-3.9657,-3.9301,-3.9126,-3.9515,-3.9551,-3.9203,-3.8208,-3.7547,-3.7771,-3.9074,-3.849,-3.8181,-3.9077,-3.8312,-3.7119,-3.6293,-3.6157,-3.59,-3.5224,-3.4968,-3.4414,-3.3084,-3.2329,-3.1673,-3.0896,-3.0522,-3.0257,-2.9989,-2.9856,-2.9675,-2.9421,-2.854,-2.7748,-4.3479,-4.3479,-4.3479,-4.3479,-4.3479,-4.3479,-4.3479,-4.3479,-4.3479,-4.3153,-4.2526,-4.1489,-4.0609,-3.9899,-4.0041,-4.0177,-4.033,-4.0449,-4.0496,-4.0496,-4.0496,-4.0496,-4.0496,-4.0496,-4.0496,-4.0496,-4.0581,-4.061,-4.0565,-4.0014,-3.9922,-4.0346,-3.9743,-3.9587,-3.9902,-4.0293,-4.0527,-4.0625,-4.0996,-4.117,-4.1082,-4.0589,-4.0493,-4.086,-4.0477,-4.0454,-4.088,-4.0586,-4.0226,-3.9795,-3.8651,-3.7792,-3.7322,-3.6481,-3.601,0.0,0.0,0.0,0.0,0.0,0.0,0.0,0.0,0.0,0.0,0.0,-3.6611,-3.6887,-3.6861,-3.7134,-3.7921,-3.7668,-3.7558,-3.7901,-3.7811,-3.7908,-3.8364,-3.8538,-3.8659,-3.884,-3.8467,-3.8337,-3.8805,-3.8462,-3.7863,-3.7184,-3.7386,-3.7477,-3.7037,-3.6574,-3.6817,-3.801,-3.7547,-3.7031,-3.7624,-3.7077,-3.628,-3.5343,-3.5131,-3.4964,-3.4597,-3.4021,-3.3272,-3.2258,-3.1508,-3.0843,-3.019,-2.9828,-2.9606,-2.9567,-2.9267,-2.9122,-2.9372,-2.877,-2.8154,-4.3444,-4.341,-4.3462,-4.3479,-4.3479,-4.3479,-4.3479,-4.3479,-4.3479,-4.3039,-4.2211,-4.0844,-4.004,-3.9722,-3.9886,-4.0002,-4.0042,-4.0215,-4.0342,-4.0457,-4.0385,-4.04,-4.0496,-4.0496,-4.0496,-4.0496,-4.0496,-4.0439,-4.0312,-3.8936,-3.8665,-3.9334,-3.8054,-3.8089,-3.953,-4.041,-4.0605,-4.0098,-4.082,-4.1191,-4.1191,-4.0341,-4.0267,-4.0945,-4.024,-4.0198,-4.0964,-4.0301,-3.9831,-3.9687,-3.826,-3.7339,-3.7115,-3.6389,-3.5975,0.0,-3.5977,0.0,0.0,0.0,0.0,0.0,0.0,0.0,0.0,-3.6746,-3.7315,-3.7829,-3.7173,-3.7002,-3.7781,-3.7233,-3.718,-3.7885,-3.774,-3.7728,-3.812,-3.8565,-3.8706,-3.8422,-3.7768,-3.7345,-3.7364,-3.7272,-3.6578,-3.5463,-3.5624,-3.5936,-3.5954,-3.5881,-3.5973,-3.6193,-3.6285,-3.614,-3.5363,-3.5456,-3.5454,-3.458,-3.437,-3.4353,-3.4315,-3.3301,-3.2219,-3.155,-3.0943,-3.0276,-2.9518,-2.949,-2.949,-2.9285,-2.8884,-2.8805,-2.9223,-2.9215,-2.9352,-4.3268,-4.292,-4.3322,-4.3479,-4.3479,-4.3479,-4.3479,-4.3479,-4.3479,-4.3057,-4.2194,-4.0641,-4.0034,-4.013,-3.9537,-3.9426,-3.9682,-3.9299,-3.9499,-4.0157,-3.9717,-3.9881,-4.0477,-4.0496,-4.0496,-4.0496,-4.0496,-4.0169,-3.9534,-3.9257,-3.8905,-3.8476,-3.8269,-3.8017,-3.7771,0.0,0.0,0.0,-4.1113,-4.1191,-4.1191,-4.1015,-4.0995,-4.1151,-4.0992,0.0,-4.1131,-4.0995,-4.0273,-3.8925,-3.8492,0.0,0.0,0.0,0.0,0.0,0.0,0.0,0.0,0.0,0.0,0.0,-3.6016,-3.6289,-3.6991,-3.7097,-3.686,-3.6251,-3.6535,-3.6824,-3.6937,-3.745,-3.7815,-3.7969,-3.7932,-3.7755,-3.7411,-3.7442,-3.7311,-3.6812,-3.6615,-3.6523,-3.6538,-3.5936,-3.5389,-3.5045,-3.4582,-3.4284,-3.4321,-3.4376,-3.4798,-3.5973,-3.6156,-3.5894,-3.4958,-3.4889,-3.4685,-3.3871,-3.3609,-3.3609,-3.355,-3.2962,-3.2181,-3.1523,-3.0842,-3.003,-2.8972,-2.9092,-2.9193,-2.8188,-2.8297,-2.8578,-2.8752,-2.8364,-2.7974,-4.2503,-4.2284,-4.256,-4.2828,0.0,-4.3105,-4.3268,-4.3479,-4.3075,-4.2231,-4.1038,-3.9827,-3.9384,-3.9486,-3.9222,-3.9186,-3.9346,-3.9225,-3.9423,-3.9813,-3.9289,-3.948,-4.0294,-4.0046,-4.0112,-4.0477,-4.0092,-3.9688,-3.9284,-3.8472,-3.7904,-3.7572,-3.7199,-3.7056,-3.7135,-3.8024,-3.8981,-3.9922,-4.0762,-4.0996,-4.0586,-4.0976,-4.0996,-4.0566,-4.0547,0.0,0.0,0.0,0.0,0.0,0.0,0.0,0.0,-3.6262,0.0,-3.6391,-3.6103,-3.5927,-3.5958,-3.5973,-3.6015,-3.6016,-3.6387,-3.6796,-3.7175,-3.6723,-3.655,-3.6852,-3.6813,-3.6925,-3.7315,-3.7373,-3.7353,-3.7353,-3.7353,-3.7167,-3.6815,-3.6948,-3.6941,-3.6515,-3.5998,-3.5807,-3.6229,-3.5536,-3.5041,-3.4986,-3.4674,-3.4229,-3.3899,-3.3807,-3.4192,-3.4945,-3.5055,-3.471,-3.3941,-3.4005,-3.3914,-3.3083,-3.2848,-3.2865,-3.2865,-3.2278,-3.1666,-3.1316,-3.0772,-3.0083,-2.9586,-2.9429,-2.9203,-2.8646,-2.8496,-2.8508,-2.8524,-2.8052,-2.7585,-4.1746,-4.1643,-4.175,-4.2062,-4.2539,-4.2539,-4.2774,-4.31,-4.2527,0.0,0.0,-3.9276,-3.8909,-3.894,-3.9007,-3.904,-3.9031,-3.9071,-3.9159,-3.9277,-3.8748,-3.8909,-3.9624,-3.9372,-3.9515,-4.0015,-3.94,-3.8969,-3.8784,-3.7392,-3.6671,-3.6582,-3.5943,-3.6066,-3.6995,-3.8071,-3.8583,-3.8607,-4.0134,-4.0662,-4.0093,-4.0757,-4.0776,-4.0073,-3.9917,-3.9839,-3.9839,-3.9155,-3.8959,-3.9307,-3.8122,-3.7531,-3.7822,-3.6509,-3.6004,-3.6639,-3.6179,-3.5855,-3.5888,-3.5947,-3.5995,-3.6016,-3.666,-3.7088,-3.7102,-3.6431,-3.6428,-3.7584,-3.696,-3.6792,-3.7476,-3.693,-3.6481,-3.65,-3.65,-3.6381,-3.6153,-3.6395,-3.6479,-3.6187,-3.5222,-3.4894,-3.5624,-3.4871,-3.4435,-3.4527,-3.4399,-3.4454,-3.3954,-3.3807,-3.3844,-3.3954,-3.4027,-3.3591,-3.2963,-3.3047,-3.3072,-3.2413,-3.217,-3.2107,-3.2022,-3.1613,-3.1241,-3.1219,-3.076,-3.0472,-3.0309,-3.0,-2.9629,-2.9451,-2.9111,-2.8732,-2.8511,-2.8116,-2.776,-4.1473,-4.1064,-4.1578,-4.1853,-4.1937,-4.1919,-4.1832,-4.1722,-4.2134,-4.1774,-4.0875,-4.0084,-3.9717,-3.9714,-3.9044,-3.8762,-3.8685,-3.7615,-3.7486,-3.8103,-3.7589,-3.7553,-3.7964,-3.8593,-3.8689,-3.8365,-3.8238,-3.7796,-3.7115,-3.6827,-3.6379,-3.5785,-3.5623,-3.6076,-3.7047,-3.8626,-3.9084,-3.8393,-3.936,-4.0142,-4.0666,-4.0783,-4.0799,-4.0646,-3.9994,-3.9643,-3.9637,-3.9484,-3.8835,-3.7517,-3.7837,-3.7423,-3.6091,-3.577,-3.5662,-3.5785,-3.5699,-3.5702,-3.5892,-3.5908,-3.5944,-3.5996,-3.6113,-3.6484,-3.7186,-3.7089,-3.6728,-3.6156,-3.5888,-3.5774,-3.5835,-3.5776,-3.5673,-3.5692,-3.5673,-3.5556,-3.535,-3.5192,-3.5023,-3.4689,-3.361,-3.3298,-3.3954,-3.2963,-3.2375,-3.2821,-3.3188,-3.317,-3.3623,-3.3807,-3.3807,-3.3807,-3.3807,-3.3592,-3.3154,-3.28,-3.2544,-3.1963,-3.1634,-3.1486,-3.1427,-3.1258,-3.114,-3.119,-3.1024,-3.0808,-3.0439,-3.0699,-3.0435,-2.9783,-2.9717,-2.9651,-2.8826,-2.8463,-2.8174,-4.072,-4.0521,-4.0767,-4.1036,-4.1335,-4.1664,-4.1248,-4.0419,-4.0668,-4.0653,-4.038,-3.9606,-3.9239,-3.9203,-3.8872,-3.8707,-3.8652,-3.7616,-3.7332,-3.7595,-3.6677,-3.6539,-3.7101,-3.7338,-3.757,-3.7737,-3.7444,-3.7103,-3.6692,-3.6269,-3.5865,-3.5526,-3.5547,-3.5981,-3.6837,-3.7696,-3.8369,-3.8855,-3.9793,-4.0237,-4.0151,-4.0564,-4.0603,-4.0151,-3.9326,-3.9112,-3.9572,-3.8684,-3.8259,-3.8412,-3.7806,-3.7346,-3.7013,-3.6073,-3.5746,-3.6138,-3.5814,-3.5653,-3.5791,-3.5892,-3.5973,-3.5996,-3.6016,-3.6152,-3.6562,-3.6529,-3.6304,-3.5844,-3.5278,-3.5101,-3.5473,-3.5104,-3.4988,-3.5442,-3.55,-3.5383,-3.5141,-3.4851,-3.458,-3.4179,-3.3241,-3.2761,-3.3096,-3.2118,-3.1715,-3.2417,-3.2583,-3.2748,-3.306,-3.2779,-3.2847,-3.3605,-3.3807,-3.362,-3.3273,-3.3045,-3.2582,-3.1915,-3.166,-3.1449,-3.1237,-3.0937,-3.0801,-3.1055,-3.0903,-3.0704,-3.068,-3.0995,-3.0878,-3.0621,-3.0251,-3.0016,-2.9563,-2.8996,-2.8295,-4.0113,-4.0113,-4.0113,-4.036,-4.0756,-4.1218,-4.0695,-3.9591,-3.9379,-3.938,-3.943,-3.8812,-3.853,-3.853,-3.8643,-3.8707,-3.856,-3.7679,-3.7217,-3.7099,-3.5948,-3.5653,-3.6112,-3.6094,-3.6416,-3.6852,-3.6474,-3.6282,-3.6262,-3.5705,-3.5439,-3.5512,-3.5673,-3.6077,-3.6699,-3.7199,-3.7971,-3.8999,-3.9973,-4.0252,-3.984,-4.0427,-4.0349,-3.9549,-3.8699,-3.847,-3.885,-3.764,-3.7474,-3.8523,-3.7501,-3.7088,-3.7489,-3.628,-3.5769,-3.6302,-3.5893,-3.5616,-3.568,-3.5677,-3.5781,-3.5996,-3.6016,-3.6016,-3.5996,-3.5949,-3.5911,-3.5798,-3.4977,-3.4642,-3.5034,-3.4453,-3.418,-3.4827,-3.5122,-3.5086,-3.492,-3.4775,-3.4622,-3.4259,-3.329,-3.2656,-3.2638,-3.1843,-3.1366,-3.1812,-3.2051,-3.2106,-3.2192,-3.1751,-3.2021,-3.2847,-3.3403,-3.3511,-3.3321,-3.3243,-3.2767,-3.1882,-3.1584,-3.1191,-3.077,-3.026,-3.0309,-3.0751,-3.0683,-3.0664,-3.1089,-3.119,-3.1171,-3.1035,-3.0818,-3.0477,-3.0208,-2.9271,-2.8343,-4.0113,-4.0113,-4.0113,-4.0121,-4.017,-4.0262,-4.0072,-3.9648,-3.9007,-3.8622,-3.8498,-3.8132,-3.7981,-3.8048,-3.8499,-3.8673,-3.8563,-3.711,-3.645,-3.6358,-3.5487,-3.4816,-3.4623,-3.5203,-3.5364,-3.5054,-3.4982,-3.5134,-3.5321,-3.5187,-3.5266,-3.5563,-3.6231,-3.657,-3.6846,-3.8214,-3.8741,-3.8161,-3.8987,-3.976,-4.0395,-4.0492,-4.0145,-3.9348,-3.8488,-3.7691,-3.7179,-3.6806,-3.6466,-3.5997,-3.6471,-3.6419,-3.5842,-3.5565,-3.5519,-3.5615,-3.554,-3.5568,-3.5608,-3.5084,-3.5108,-3.5898,-3.5996,-3.6016,-3.6016,-3.5996,-3.5952,-3.577,-3.5051,-3.4517,-3.4367,-3.3635,-3.3173,-3.3353,-3.391,-3.4308,-3.4283,-3.4551,-3.4684,-3.4663,-3.3314,-3.2839,-3.3146,-3.177,-3.0522,-3.076,-3.076,-3.0895,-3.1366,-3.1292,-3.125,-3.1678,-3.2192,-3.2913,-3.3332,-3.3404,-3.2595,-3.1609,-3.1077,-3.049,-2.9839,-2.9803,-3.014,-3.0345,-3.0683,-3.0937,-3.1106,-3.119,-3.119,-3.119,-3.1055,-3.0935,-3.0335,-2.9368,-2.8424,-4.0113,-4.0113,-4.0113,-3.9859,-3.9537,-3.991,-3.9549,-3.8692,-3.8794,-3.8334,-3.7525,-3.7591,-3.7617,-3.7542,-3.8334,-3.8546,-3.8176,-3.7372,-3.674,-3.6248,-3.5389,-3.4646,-3.4072,-3.4469,-3.4605,-3.4431,-3.4612,-3.4763,-3.4832,-3.487,-3.4926,-3.5027,-3.5368,-3.5819,-3.6471,-3.7165,-3.7662,-3.8019,-3.8334,-3.8681,-3.8969,-3.9027,-3.913,-3.9142,-3.7969,-3.7353,-3.7353,-3.6538,-3.6058,-3.6173,-3.6077,-3.5846,-3.5519,-3.55,-3.55,-3.5468,-3.5039,-3.4612,-3.4186,-3.4421,-3.4766,-3.5167,-3.5682,-3.6016,-3.6016,-3.6016,-3.5995,-3.5853,-3.5126,-3.4525,-3.4357,-3.3587,-3.2985,-3.2954,-3.3237,-3.3337,-3.3051,-3.3136,-3.3274,-3.3357,-3.2551,-3.2192,-3.2706,-3.1843,-3.098,-3.0834,-3.054,-3.0356,-3.0632,-3.0301,-3.0228,-3.0613,-3.0999,-3.1494,-3.2216,-3.2284,-3.1699,-3.0983,-3.0533,-3.0033,-2.9311,-2.9179,-2.955,-2.9973,-3.0328,-3.0734,-3.114,-3.1173,-3.119,-3.119,-3.1171,-3.1015,-3.0414,-2.9629,-2.888,-4.0113,-4.0113,-4.0113,-3.969,-3.9073,-3.9791,-3.9242,-3.8108,-3.8667,-3.8302,-3.7197,-3.7588,-3.7526,-3.7233,-3.7934,-3.8117,-3.7872,-3.7462,-3.7076,-3.6527,-3.5738,-3.5055,-3.4532,-3.4683,-3.4779,-3.4816,-3.5046,-3.5083,-3.4927,-3.4749,-3.4694,-3.4694,-3.4694,-3.5077,-3.5798,-3.6045,-3.6504,-3.7122,-3.7394,-3.7571,-3.7608,-3.745,-3.7719,-3.8373,-3.7373,-3.6904,-3.7257,-3.6142,-3.5769,-3.6308,-3.5808,-3.55,-3.55,-3.55,-3.5385,-3.511,-3.4369,-3.3683,-3.3131,-3.3553,-3.393,-3.4218,-3.4891,-3.5272,-3.5292,-3.5488,-3.5625,-3.5586,-3.5249,-3.4931,-3.4438,-3.3423,-3.2698,-3.2583,-3.2564,-3.2426,-3.2126,-3.2134,-3.2331,-3.2405,-3.193,-3.1476,-3.177,-3.1366,-3.0889,-3.0558,-3.0173,-2.9867,-2.9812,-2.9409,-2.928,-2.9757,-2.9879,-3.0338,-3.1146,-3.1518,-3.0997,-3.0306,-2.9968,-2.9546,-2.8802,-2.861,-2.8704,-2.9007,-2.9499,-3.0023,-3.0565,-3.0801,-3.0987,-3.1123,-3.1137,-3.1024,-3.072,-3.0059,-2.9473,-4.0113,-4.0113,-4.0113,-3.9673,-3.9039,-3.9757,-3.9259,-3.7956,-3.8684,-3.8548,-3.7909,-3.8265,-3.7892,-3.682,-3.7123,-3.7488,-3.7716,-3.7136,-3.7019,-3.7231,-3.6578,-3.6211,-3.6193,-3.6221,-3.6148,-3.6007,-3.603,-3.588,-3.5453,-3.495,-3.4694,-3.4693,-3.4662,-3.4693,-3.4922,-3.5509,-3.5685,-3.5496,-3.6073,-3.649,-3.6625,-3.6031,-3.6096,-3.6774,-3.6712,-3.6346,-3.5788,-3.5577,-3.5538,-3.5577,-3.5538,-3.55,-3.55,-3.55,-3.5161,-3.434,-3.3481,-3.302,-3.2948,-3.2441,-3.2396,-3.3134,-3.3571,-3.3513,-3.3733,-3.4431,-3.4863,-3.4785,-3.539,-3.5376,-3.4586,-3.3126,-3.2014,-3.1845,-3.1756,-3.1738,-3.1687,-3.1817,-3.2147,-3.2106,-3.1715,-3.1299,-3.0582,-3.0283,-3.0062,-2.9602,-2.9205,-2.9161,-2.9244,-2.9099,-2.9118,-2.9143,-2.9278,-2.9604,-3.098,-3.1017,-3.0593,-2.9931,-2.9187,-2.882,-2.811,-2.762,-2.7862,-2.8162,-2.8805,-2.9397,-2.9922,-3.026,-3.0463,-3.0666,-3.0937,-3.0886,-3.067,-3.0514,-3.0059,-4.0113,-4.0113,-4.0113,-3.9394,-3.843,-3.9073,-3.8819,-3.8007,-3.8684,-3.8582,-3.8014,-3.8067,-3.7364,-3.6034,-3.6126,-3.646,-3.6946,-3.7291,-3.7309,-3.7071,-3.7028,-3.678,-3.6303,-3.6285,-3.6285,-3.6285,-3.6285,-3.6209,-3.5952,-3.5253,-3.4896,-3.4785,-3.4365,-3.4208,-3.4401,-3.4671,-3.4795,-3.4898,-3.5312,-3.5586,-3.5686,-3.5552,-3.5578,-3.5656,-3.5847,-3.5808,-3.55,-3.55,-3.55,-3.55,-3.5481,-3.55,-3.55,-3.55,-3.5115,-3.4257,-3.3378,-3.2691,-3.2254,-3.1961,-3.1932,-3.233,-3.3468,-3.3761,-3.3573,-3.4121,-3.4707,-3.4746,-3.4876,-3.5069,-3.508,-3.3744,-3.2396,-3.1785,-3.1212,-3.0829,-3.0661,-3.0719,-3.0926,-3.1299,-3.1459,-3.151,-3.1064,-3.0634,-3.0215,-3.0168,-2.9669,-2.9359,-2.9407,-2.9456,-2.9357,-2.9289,-2.9265,-2.9366,-2.9641,-2.9831,-2.9576,-2.905,-2.8504,-2.8167,-2.7604,-2.762,-2.7844,-2.7841,-2.8349,-2.8772,-2.9296,-2.9533,-2.9753,-2.9856,-3.0142,-3.0497,-3.0497,-3.0376,-3.0228,-4.0113,-4.0113,-4.0113,-3.9419,-3.8413,-3.9022,-3.8802,-3.8058,-3.8667,-3.8582,-3.8007,-3.7905,-3.7178,-3.6146,-3.5994,-3.5987,-3.6224,-3.7004,-3.7202,-3.6931,-3.7384,-3.7207,-3.6565,-3.6611,-3.6556,-3.6266,-3.5991,-3.6009,-3.6156,-3.5408,-3.5023,-3.4963,-3.4435,-3.4134,-3.4099,-3.408,-3.4237,-3.4529,-3.4725,-3.486,-3.4981,-3.5138,-3.5174,-3.5035,-3.5157,-3.5239,-3.5231,-3.4979,-3.4814,-3.4795,-3.4584,-3.4546,-3.4795,-3.5166,-3.4973,-3.4136,-3.3346,-3.2545,-3.1801,-3.1499,-3.1342,-3.1371,-3.2431,-3.2981,-3.2549,-3.3287,-3.3787,-3.3887,-3.4135,-3.4511,-3.4612,-3.365,-3.2613,-3.2032,-3.1112,-3.0343,-3.015,-3.008,-3.0185,-3.0486,-3.079,-3.1027,-3.1053,-3.0458,-3.0226,-3.0498,-2.987,-2.9589,-2.9661,-2.9625,-2.9561,-2.9433,-2.9289,-2.9178,-2.9272,-2.9317,-2.9317,-2.8852,-2.846,-2.7957,-2.7635,-2.7699,-2.7641,-2.764,-2.7841,-2.8247,-2.8552,-2.8789,-2.8925,-2.8959,-2.9365,-2.9803,-2.9979,-3.0227,-3.0177,-4.0045,-4.002,-4.007,-3.9606,-3.9022,-3.9622,-3.9191,-3.8244,-3.865,-3.8497,-3.7939,-3.7848,-3.7313,-3.6778,-3.6502,-3.6304,-3.5868,-3.6249,-3.6709,-3.7068,-3.7595,-3.7407,-3.6758,-3.7041,-3.6808,-3.6183,-3.5471,-3.5526,-3.6149,-3.5595,-3.5224,-3.5041,-3.4949,-3.4504,-3.3834,-3.3855,-3.3948,-3.4171,-3.4258,-3.4383,-3.4663,-3.4744,-3.4744,-3.4694,-3.4714,-3.4714,-3.4694,-3.3988,-3.3715,-3.3554,-3.2939,-3.2694,-3.361,-3.4438,-3.4666,-3.3902,-3.3233,-3.2526,-3.1795,-3.0993,-3.0548,-3.0609,-3.068,-3.1045,-3.1115,-3.1728,-3.2312,-3.2538,-3.3008,-3.3435,-3.3335,-3.2682,-3.2306,-3.2736,-3.1407,-3.0427,-3.0329,-3.0176,-2.9931,-2.9857,-2.995,-2.9761,-2.9734,-2.9767,-2.9795,-2.9828,-2.9753,-2.9705,-2.9782,-2.9715,-2.9503,-2.9404,-2.9343,-2.9238,-2.9104,-2.9005,-2.9005,-2.8917,-2.8589,-2.8179,-2.788,-2.7796,-2.7427,-2.7315,-2.7131,-2.7521,-2.7791,-2.8027,-2.8333,-2.8485,-2.8857,-2.9179,-2.9576,-2.99,-3.0269,-3.8816,-3.9262,-3.9262,-3.9192,-3.9031,-3.9259,-3.9039,-3.8616,-3.8413,-3.8108,-3.7838,-3.7347,-3.6705,-3.6113,-3.5977,-3.5859,-3.5622,-3.5805,-3.6139,-3.6664,-3.7173,-3.7272,-3.697,-3.6612,-3.6071,-3.558,-3.5987,-3.6041,-3.5921,-3.6351,-3.6211,-3.5224,-3.5004,-3.4582,-3.3862,-3.3807,-3.3855,-3.3941,-3.4111,-3.4258,-3.4379,-3.4572,-3.4601,-3.4379,-3.4357,-3.4295,-3.4111,-3.4213,-3.4279,-3.4222,-3.4072,-3.378,-3.3573,-3.3724,-3.3881,-3.374,-3.3043,-3.2649,-3.2391,-3.1212,-3.0404,-3.051,-3.098,-3.1039,-3.0723,-3.1427,-3.1948,-3.204,-3.24,-3.2753,-3.3082,-3.2542,-3.2101,-3.2176,-3.1183,-3.0437,-3.0389,-3.0317,-3.0169,-2.9954,-2.9908,-2.9853,-2.9722,-2.9635,-2.968,-2.9853,-2.9823,-2.9807,-3.0078,-3.0056,-3.0,-2.9837,-2.9624,-2.9365,-2.9238,-2.9123,-2.9044,-2.8987,-2.8694,-2.8433,-2.8125,-2.7865,-2.7454,-2.7051,-2.6857,-2.6826,-2.7097,-2.7317,-2.7656,-2.7757,-2.7892,-2.8433,-2.9161,-2.9644,-2.9964,-3.8064,-3.8497,-3.8799,-3.8758,-3.8657,-3.911,-3.9059,-3.8623,-3.8417,-3.8176,-3.7838,-3.7432,-3.6772,-3.618,-3.6062,-3.587,-3.5633,-3.5616,-3.5783,-3.6161,-3.6643,-3.6761,-3.6396,-3.5507,-3.473,-3.4301,-3.499,-3.5265,-3.4988,-3.5945,-3.5956,-3.4943,-3.4916,-3.4601,-3.3899,-3.3807,-3.3807,-3.3829,-3.3961,-3.4056,-3.4093,-3.4249,-3.426,-3.408,-3.4056,-3.3961,-3.3842,-3.4184,-3.4222,-3.399,-3.3915,-3.3635,-3.3152,-3.32,-3.3334,-3.327,-3.2659,-3.2114,-3.2152,-3.1079,-3.0404,-3.0523,-3.0953,-3.1067,-3.0709,-3.1186,-3.1429,-3.1516,-3.161,-3.1873,-3.2226,-3.1989,-3.1563,-3.1407,-3.0913,-3.0531,-3.0456,-3.0414,-3.0349,-3.0189,-3.015,-3.008,-2.9969,-2.9891,-2.9867,-3.008,-3.0052,-3.0007,-3.0299,-3.0292,-3.015,-2.9999,-2.9788,-2.957,-2.9404,-2.9267,-2.9134,-2.898,-2.8809,-2.859,-2.8324,-2.8125,-2.7805,-2.727,-2.6938,-2.6758,-2.6928,-2.686,-2.7029,-2.7012,-2.7165,-2.7672,-2.8399,-2.9161,-2.9608,-3.7706,-3.7835,-3.8469,-3.8353,-3.8044,-3.9212,-3.9037,-3.8081,-3.8522,-3.8443,-3.7971,-3.7824,-3.7415,-3.6897,-3.6677,-3.6282,-3.5701,-3.56,-3.5622,-3.5783,-3.6084,-3.6025,-3.525,-3.4328,-3.3494,-3.2877,-3.3203,-3.3448,-3.363,-3.4705,-3.4758,-3.4295,-3.4524,-3.4481,-3.3752,-3.3707,-3.3666,-3.3707,-3.373,-3.3775,-3.3815,-3.3829,-3.3842,-3.3834,-3.3829,-3.3815,-3.3834,-3.3868,-3.3524,-3.2829,-3.2851,-3.2771,-3.2672,-3.2851,-3.2989,-3.2892,-3.1909,-3.1567,-3.1287,-3.0956,-3.0535,-3.0573,-3.0654,-3.0442,-3.0559,-3.0617,-3.074,-3.08,-3.0848,-3.0865,-3.1014,-3.1015,-3.0913,-3.0757,-3.0677,-3.0561,-3.0507,-3.0446,-3.0389,-3.0379,-3.0398,-3.0367,-3.0292,-3.0248,-3.0267,-3.0299,-3.0267,-3.0292,-3.0343,-3.0267,-3.0082,-2.9969,-2.992,-2.9763,-2.9626,-2.9373,-2.9246,-2.9138,-2.8962,-2.8761,-2.8534,-2.8355,-2.8071,-2.7542,-2.7115,-2.689,-2.6741,-2.6775,-2.6741,-2.681,-2.6979,-2.7131,-2.7689,-2.8552,-2.9161,-3.6415,-3.6934,-3.7128,-3.744,-3.7806,-3.8306,-3.8237,-3.7822,-3.8031,-3.8081,-3.7859,-3.7874,-3.751,-3.6863,-3.6795,-3.6366,-3.5684,-3.5566,-3.5616,-3.5622,-3.5717,-3.5385,-3.4653,-3.3857,-3.3088,-3.2515,-3.2842,-3.2827,-3.2476,-3.3997,-3.418,-3.3053,-3.3715,-3.3655,-3.2948,-3.2887,-3.3027,-3.3317,-3.3346,-3.3508,-3.3734,-3.3793,-3.3807,-3.3807,-3.3807,-3.3807,-3.3807,-3.3807,-3.3733,-3.3495,-3.2876,-3.2601,-3.2651,-3.2685,-3.2588,-3.2225,-3.1907,-3.1732,-3.1756,-3.1386,-3.1083,-3.109,-3.1149,-3.1076,-3.0461,-3.0467,-3.0524,-3.0571,-3.0643,-3.0717,-3.0768,-3.0838,-3.0859,-3.0836,-3.0698,-3.0587,-3.0521,-3.0495,-3.0457,-3.0414,-3.041,-3.0317,-3.0209,-3.015,-3.015,-3.015,-3.0182,-3.0209,-3.0311,-3.0355,-3.0215,-3.0196,-3.0142,-2.9988,-2.9796,-2.9542,-2.9373,-2.9291,-2.9149,-2.8952,-2.8749,-2.8552,-2.8224,-2.7823,-2.7439,-2.7178,-2.7036,-2.6955,-2.6874,-2.6741,-2.6776,-2.6962,-2.7435,-2.8128,-2.8535,-3.575,-3.6165,-3.6461,-3.6676,-3.6936,-3.7531,-3.7632,-3.7406,-3.7673,-3.8003,-3.82,-3.8301,-3.7741,-3.6857,-3.6812,-3.596,-3.4839,-3.4974,-3.5131,-3.5177,-3.5453,-3.5187,-3.4561,-3.3981,-3.3326,-3.2422,-3.2812,-3.2458,-3.1974,-3.3143,-3.3158,-3.2545,-3.2875,-3.2942,-3.2603,-3.2517,-3.2616,-3.2856,-3.2921,-3.3045,-3.324,-3.3447,-3.3536,-3.3597,-3.368,-3.3807,-3.3807,-3.3807,-3.3807,-3.3697,-3.3366,-3.3109,-3.306,-3.2748,-3.2464,-3.2136,-3.1949,-3.1742,-3.1588,-3.1531,-3.1542,-3.1363,-3.1458,-3.1322,-3.0956,-3.0706,-3.0448,-3.0501,-3.0581,-3.0645,-3.0714,-3.0816,-3.0898,-3.0879,-3.0786,-3.0681,-3.0597,-3.0537,-3.05,-3.0456,-3.0406,-3.0361,-3.0182,-3.0157,-3.0157,-3.0189,-3.0235,-3.0292,-3.0361,-3.0379,-3.039,-3.0348,-3.0299,-3.0155,-2.9984,-2.9763,-2.9494,-2.9404,-2.9235,-2.9055,-2.8887,-2.8694,-2.8438,-2.8102,-2.7779,-2.75,-2.7332,-2.7162,-2.6955,-2.6858,-2.6775,-2.681,-2.7215,-2.7621,-2.8027,-3.5489,-3.5569,-3.6181,-3.6117,-3.5829,-3.692,-3.704,-3.6707,-3.7291,-3.7926,-3.8427,-3.875,-3.8092,-3.6915,-3.6838,-3.5723,-3.3998,-3.4506,-3.4624,-3.4878,-3.5165,-3.5115,-3.4776,-3.4493,-3.38,-3.2913,-3.2958,-3.252,-3.2154,-3.2491,-3.2371,-3.2192,-3.2371,-3.2404,-3.2249,-3.2282,-3.2367,-3.24,-3.2434,-3.2517,-3.261,-3.2806,-3.2922,-3.3184,-3.3508,-3.3666,-3.3707,-3.3748,-3.3807,-3.3807,-3.3807,-3.3733,-3.366,-3.306,-3.2687,-3.2518,-3.215,-3.1678,-3.116,-3.1706,-3.1949,-3.1663,-3.1556,-3.145,-3.1424,-3.0994,-3.0626,-3.0467,-3.049,-3.0578,-3.0702,-3.0815,-3.0859,-3.0879,-3.0898,-3.0837,-3.0717,-3.0597,-3.0516,-3.0494,-3.0441,-3.0402,-3.0404,-3.0404,-3.0379,-3.0292,-3.0322,-3.0373,-3.0414,-3.0425,-3.0425,-3.0409,-3.0352,-3.0305,-3.015,-2.9991,-2.9713,-2.9484,-2.928,-2.9093,-2.8975,-2.8785,-2.8602,-2.8337,-2.8112,-2.7862,-2.7646,-2.7439,-2.7147,-2.6939,-2.6841,-2.6758,-2.681,-2.7199,-2.7588,-3.5489,-3.5489,-3.5683,-3.5636,-3.5554,-3.5846,-3.5894,-3.5831,-3.6523,-3.6931,-3.7334,-3.8309,-3.8259,-3.7417,-3.6844,-3.6474,-3.5481,-3.4805,-3.4776,-3.5295,-3.4827,-3.5081,-3.5064,-3.4776,-3.432,-3.3855,-3.3477,-3.3155,-3.2988,-3.2855,-3.2847,-3.2281,-3.2139,-3.2051,-3.1612,-3.1618,-3.1675,-3.1879,-3.1933,-3.2109,-3.226,-3.2069,-3.2163,-3.2586,-3.3069,-3.3284,-3.339,-3.362,-3.3807,-3.3807,-3.3807,-3.3807,-3.3752,-3.3605,-3.3238,-3.2779,-3.2579,-3.2348,-3.2176,-3.2017,-3.212,-3.242,-3.219,-3.2077,-3.1416,-3.136,-3.0975,-3.0632,-3.0463,-3.0559,-3.0669,-3.0718,-3.0793,-3.0859,-3.0898,-3.0879,-3.0835,-3.0704,-3.0587,-3.0511,-3.0437,-3.0404,-3.0404,-3.0404,-3.039,-3.0402,-3.0425,-3.0482,-3.0477,-3.0477,-3.0477,-3.0477,-3.0411,-3.0375,-3.0272,-3.0112,-2.9845,-2.9635,-2.9435,-2.9225,-2.9082,-2.8998,-2.8838,-2.8688,-2.8509,-2.8259,-2.7988,-2.7572,-2.7288,-2.7099,-2.6923,-2.6791,-2.6776,-2.7012,-2.7097,-3.5489,-3.5489,-3.5489,-3.5489,-3.5489,-3.5489,-3.5489,-3.5479,-3.5516,-3.583,-3.6252,-3.7114,-3.6809,-3.587,-3.5735,-3.5278,-3.4309,-3.3828,-3.3846,-3.432,-3.415,-3.4421,-3.4928,-3.4742,-3.4472,-3.4421,-3.4155,-3.3795,-3.344,-3.3085,-3.2622,-3.2276,-3.2022,-3.1608,-3.1258,-3.119,-3.1312,-3.1487,-3.1526,-3.1658,-3.1756,-3.176,-3.1608,-3.2058,-3.2493,-3.2639,-3.1927,-3.2973,-3.3203,-3.3232,-3.3506,-3.3807,-3.3807,-3.3807,-3.355,-3.3293,-3.3151,-3.2913,-3.2641,-3.2668,-3.2653,-3.2445,-3.2324,-3.1854,-3.1254,-3.1042,-3.0713,-3.0382,-3.0348,-3.0494,-3.0603,-3.0682,-3.0722,-3.0793,-3.0878,-3.0918,-3.0879,-3.0756,-3.063,-3.0567,-3.0485,-3.0441,-3.0425,-3.0411,-3.0425,-3.0447,-3.0458,-3.0503,-3.0552,-3.0552,-3.0556,-3.0533,-3.0486,-3.0418,-3.0375,-3.0209,-2.9969,-2.9799,-2.9652,-2.9455,-2.927,-2.9203,-2.9127,-2.8938,-2.8719,-2.8577,-2.829,-2.7862,-2.747,-2.7241,-2.7036,-2.6841,-2.6725,-2.681,-2.6843,-3.5489,-3.5489,-3.5489,-3.5489,-3.5489,-3.5489,-3.5489,-3.5415,-3.4891,-3.5122,-3.5411,-3.5591,-3.5338,-3.4206,-3.4357,-3.3275,-3.242,-3.2408,-3.3271,-3.4095,-3.3491,-3.3863,-3.4353,-3.4523,-3.437,-3.437,-3.4573,-3.432,-3.3829,-3.3119,-3.3085,-3.253,-3.1972,-3.1596,-3.1326,-3.119,-3.123,-3.1252,-3.1271,-3.1271,-3.1261,-3.1395,-3.1307,-3.1339,-3.1979,-3.1941,-3.1521,-3.2256,-3.2889,-3.2137,-3.2994,-3.3437,-3.357,-3.377,-3.3807,-3.377,-3.3697,-3.344,-3.3073,-3.3149,-3.2969,-3.1957,-3.1837,-3.1541,-3.1007,-3.0623,-3.035,-3.0211,-3.0241,-3.0436,-3.0498,-3.0592,-3.0679,-3.074,-3.0836,-3.0898,-3.0898,-3.0774,-3.0707,-3.063,-3.0551,-3.0503,-3.0487,-3.0467,-3.0486,-3.0498,-3.0509,-3.0552,-3.0594,-3.0623,-3.0623,-3.0603,-3.0559,-3.0485,-3.0438,-3.0356,-3.0096,-2.9916,-2.9823,-2.9626,-2.9414,-2.9225,-2.9112,-2.9055,-2.8875,-2.8749,-2.8552,-2.8224,-2.7833,-2.747,-2.7147,-2.6955,-2.6791,-2.664,-2.6623,-3.5489,-3.5489,-3.5489,-3.5489,-3.5489,-3.5489,-3.5489,-3.5489,-3.5325,-3.506,-3.4786,-3.5289,-3.5094,-3.4469,-3.3868,-3.342,-3.2872,-3.2873,-3.3616,-3.4283,-3.3474,-3.3208,-3.432,-3.4353,-3.4167,-3.4083,-3.4556,-3.5013,-3.5081,-3.5059,-3.4015,-3.3355,-3.2933,-3.2374,-3.1427,-3.119,-3.119,-3.119,-3.119,-3.119,-3.1128,-3.0849,-3.0588,-3.0587,-3.1425,-3.1567,-3.1724,-3.2392,-3.2667,-3.1706,-3.2093,-3.2361,-3.2664,-3.3282,-3.3656,-3.3807,-3.3807,-3.366,-3.3513,-3.3091,-3.2829,-3.2422,-3.2029,-3.1384,-3.0878,-3.0678,-3.0332,-3.0185,-3.0222,-3.0422,-3.049,-3.0568,-3.0624,-3.0708,-3.0801,-3.0898,-3.0879,-3.0858,-3.0794,-3.0707,-3.0636,-3.0587,-3.0541,-3.054,-3.0556,-3.0575,-3.0592,-3.0638,-3.0693,-3.0703,-3.0703,-3.0665,-3.063,-3.0554,-3.0507,-3.0422,-3.0254,-3.0054,-2.9904,-2.9696,-2.9465,-2.9192,-2.9033,-2.901,-2.8987,-2.891,-2.8725,-2.8476,-2.8197,-2.7823,-2.747,-2.7083,-2.6888,-2.6706,-2.6505,-3.5489,-3.5489,-3.5489,-3.5489,-3.5489,-3.5489,-3.5489,-3.5444,-3.513,-3.4786,-3.4572,-3.4528,-3.4383,-3.3956,-3.3412,-3.2855,-3.2519,-3.2411,-3.298,-3.3422,-3.2917,-3.31,-3.4276,-3.4167,-3.4049,-3.3998,-3.4366,-3.4759,-3.4996,-3.4979,-3.4404,-3.3558,-3.3051,-3.2276,-3.1444,-3.119,-3.119,-3.119,-3.119,-3.119,-3.119,-3.0784,-3.0548,-3.0455,-3.0857,-3.1042,-3.0693,-3.183,-3.1977,-3.133,-3.1509,-3.1895,-3.228,-3.2643,-3.3191,-3.3625,-3.3788,-3.3807,-3.3788,-3.3335,-3.2926,-3.2021,-3.1715,-3.0967,-3.0231,-2.9929,-3.013,-3.011,-3.0075,-3.0266,-3.0422,-3.0496,-3.0554,-3.0611,-3.0705,-3.0771,-3.0815,-3.0858,-3.0839,-3.0774,-3.071,-3.0665,-3.0597,-3.0597,-3.0623,-3.0655,-3.0664,-3.072,-3.0771,-3.0781,-3.0781,-3.0762,-3.0719,-3.0617,-3.0559,-3.0485,-3.0389,-3.0203,-3.0021,-2.9821,-2.9607,-2.9346,-2.9141,-2.9021,-2.901,-2.8987,-2.8851,-2.862,-2.8399,-2.8129,-2.766,-2.7238,-2.6965,-2.6753,-2.6469,-3.5489,-3.5489,-3.5489,-3.5489,-3.5489,-3.5489,-3.5489,-3.54,-3.4966,-3.4651,-3.4386,-3.3862,-3.3482,-3.3229,-3.2844,-3.2272,-3.1657,-3.174,-3.2232,-3.2726,-3.2586,-3.3117,-3.3778,-3.382,-3.3575,-3.3592,-3.4049,-3.3829,-3.4184,-3.4286,-3.3863,-3.3186,-3.2513,-3.1938,-3.1362,-3.119,-3.119,-3.119,-3.119,-3.119,-3.119,-3.1157,-3.0937,-3.0429,-3.0886,-3.0688,-3.0138,-3.1145,-3.1374,-3.0994,-3.1024,-3.1411,-3.1797,-3.1851,-3.2285,-3.3144,-3.3565,-3.373,-3.3675,-3.3738,-3.3036,-3.1709,-3.1458,-3.0534,-2.9612,-2.9439,-2.9608,-2.9872,-3.0006,-3.0117,-3.0358,-3.0467,-3.0498,-3.0529,-3.06,-3.0687,-3.0722,-3.0792,-3.0858,-3.082,-3.0773,-3.0723,-3.0644,-3.0714,-3.075,-3.0755,-3.079,-3.0793,-3.084,-3.0859,-3.0859,-3.084,-3.0786,-3.0683,-3.0606,-3.0547,-3.0481,-3.0362,-3.0203,-3.0016,-2.9794,-2.9579,-2.9346,-2.9064,-2.901,-2.8975,-2.8863,-2.8761,-2.8552,-2.8264,-2.7776,-2.7407,-2.7141,-2.6631,-2.6182,-3.5489,-3.5489,-3.5489,-3.5489,-3.5489,-3.5489,-3.5489,-3.5474,-3.537,-3.504,-3.4548,-3.3787,-3.3171,-3.2705,-3.266,-3.2516,-3.2364,-3.2243,-3.251,-3.3019,-3.2707,-3.2859,-3.3528,-3.3496,-3.3072,-3.3033,-3.3729,-3.3931,-3.3748,-3.3613,-3.325,-3.2638,-3.2405,-3.1918,-3.1159,-3.1055,-3.119,-3.1171,-3.1171,-3.1171,-3.119,-3.119,-3.1106,-3.1072,-3.1089,-3.1072,-3.0741,-3.1355,-3.126,-3.0469,-3.0593,-3.0507,-3.0193,-3.0576,-3.1068,-3.1934,-3.2795,-3.3652,-3.3437,-3.3606,-3.3109,-3.177,-3.1403,-3.0522,-2.9589,-2.9222,-2.9474,-2.9696,-2.9877,-3.0075,-3.0285,-3.0452,-3.0476,-3.0505,-3.0551,-3.0621,-3.0677,-3.0701,-3.0774,-3.0584,-3.0468,-3.0625,-3.0684,-3.0781,-3.0878,-3.0878,-3.0879,-3.0879,-3.0898,-3.0898,-3.0918,-3.0879,-3.084,-3.0734,-3.0659,-3.0595,-3.0533,-3.0476,-3.0199,-3.0049,-2.9878,-2.9602,-2.9321,-2.9097,-2.9064,-2.901,-2.894,-2.8851,-2.8707,-2.842,-2.802,-2.7663,-2.7332,-2.6725,-2.6081,-3.5848,-3.5489,-3.5489,-3.5489,-3.5489,-3.5489,-3.5489,-3.5489,-3.5489,-3.534,-3.4876,-3.3918,-3.2946,-3.2196,-3.2305,-3.23,-3.2079,-3.1989,-3.2342,-3.2908,-3.272,-3.2864,-3.3307,-3.3094,-3.2613,-3.259,-3.26,-3.2721,-3.2868,-3.3513,-3.352,-3.2486,-3.2257,-3.1702,-3.082,-3.0716,-3.0679,-3.0679,-3.0716,-3.0878,-3.1095,-3.1173,-3.1173,-3.1173,-3.1137,-3.1137,-3.1196,-3.1312,-3.1289,-3.0671,-3.0609,-3.0237,-3.0106,-3.0368,-3.0768,-3.0733,-3.2174,-3.3024,-3.3229,-3.3564,-3.2837,-3.1874,-3.1286,-3.065,-2.9462,-2.9112,-2.9289,-2.9513,-2.9713,-2.9924,-3.0157,-3.0339,-3.0414,-3.0462,-3.0511,-3.0552,-3.0595,-3.0641,-3.0626,-3.0383,-3.0195,-3.0391,-3.0547,-3.0605,-3.0742,-3.0898,-3.0898,-3.0898,-3.0898,-3.0918,-3.0918,-3.0918,-3.0859,-3.0812,-3.0737,-3.0669,-3.0594,-3.0417,-2.9812,-2.9718,-2.9775,-2.9565,-2.9345,-2.927,-2.927,-2.9181,-2.9055,-2.8952,-2.8851,-2.8583,-2.8281,-2.795,-2.7587,-2.6949,-2.6266,-3.6194,-3.537,-3.5207,-3.5157,-3.5203,-3.5008,-3.5041,-3.5235,-3.522,-3.5325,-3.5115,-3.4083,-3.2751,-3.1809,-3.1958,-3.1942,-3.1539,-3.1496,-3.1824,-3.2203,-3.2559,-3.2859,-3.3028,-3.2743,-3.2535,-3.2499,-3.2232,-3.2208,-3.2684,-3.3185,-3.3176,-3.2265,-3.2028,-3.1279,-3.045,-3.0255,-3.0337,-3.0064,-2.9856,-3.0183,-3.0664,-3.0312,-3.0406,-3.0549,-3.0746,-3.0746,-3.0763,-3.114,-3.1193,-3.1058,-3.0755,-3.0353,-2.9898,-3.0392,-3.0395,-3.0445,-3.1428,-3.2306,-3.2626,-3.2882,-3.267,-3.1909,-3.1048,-3.0411,-2.9317,-2.9017,-2.9112,-2.9412,-2.9598,-2.9796,-3.0011,-3.0241,-3.0365,-3.0422,-3.0437,-3.0467,-3.0496,-3.0552,-3.0598,-3.0482,-3.03,-3.0135,-3.0273,-3.0371,-3.0547,-3.084,-3.0918,-3.0918,-3.0898,-3.0898,-3.0898,-3.0898,-3.0879,-3.084,-3.082,-3.0742,-3.0664,-3.0422,-2.9811,-2.9603,-2.9774,-2.9692,-2.9488,-2.9456,-2.9465,-2.9353,-2.9228,-2.9104,-2.8975,-2.8737,-2.8507,-2.8228,-2.7819,-2.717,-2.6281,-3.6433,-3.4967,-3.4389,-3.4259,-3.4496,-3.362,-3.3794,-3.4452,-3.4577,-3.4936,-3.519,-3.4113,-3.2856,-3.1884,-3.1705,-3.169,-3.1496,-3.1496,-3.1611,-3.1853,-3.2231,-3.2504,-3.2558,-3.2489,-3.2403,-3.2403,-3.2149,-3.2235,-3.246,-3.2565,-3.227,-3.1572,-3.1518,-3.0654,-2.9996,-2.9797,-2.982,-2.9473,-2.9062,-2.9324,-2.9496,-2.9124,-2.8584,-2.9332,-2.9476,-2.9443,-2.9533,-3.0523,-3.1075,-3.1075,-3.1019,-3.0412,-2.9858,-3.0391,-3.0321,-3.0093,-3.0776,-3.1394,-3.1456,-3.2197,-3.2399,-3.1587,-3.0644,-2.9862,-2.9015,-2.8964,-2.9134,-2.9341,-2.9504,-2.9729,-2.9981,-3.0209,-3.0311,-3.0402,-3.0422,-3.0441,-3.0463,-3.0488,-3.0519,-3.0519,-3.0338,-3.0035,-2.9909,-2.9965,-3.0399,-3.0703,-3.0898,-3.0898,-3.0879,-3.0879,-3.0879,-3.0898,-3.0898,-3.0879,-3.0898,-3.084,-3.0742,-3.0528,-3.0085,-2.9955,-3.003,-2.9858,-2.9451,-2.9669,-2.968,-2.9542,-2.9414,-2.9267,-2.9093,-2.8934,-2.87,-2.8334,-2.794,-2.7376,-2.6249,-3.6133,-3.541,-3.3804,-3.3328,-3.3594,-3.3233,-3.31,-3.3258,-3.4088,-3.4638,-3.4846,-3.4262,-3.3365,-3.2422,-3.2079,-3.1854,-3.1555,-3.1496,-3.1496,-3.1553,-3.1796,-3.1894,-3.1911,-3.1931,-3.1888,-3.1924,-3.1939,-3.2226,-3.252,-3.2175,-3.1867,-3.1476,-3.1069,-3.0014,-2.9415,-2.9124,-2.9038,-2.8928,-2.8605,-2.8776,-2.8748,-2.8624,-2.8259,-2.8632,-2.8739,-2.8994,-2.941,-3.017,-3.0526,-3.074,-3.1015,-3.0456,-2.9803,-3.0345,-3.0192,-2.9685,-3.0505,-3.0396,-3.0335,-3.1147,-3.1404,-3.0222,-2.9424,-2.8972,-2.8694,-2.8839,-2.8998,-2.9192,-2.9394,-2.9635,-2.9807,-3.0018,-3.017,-3.0323,-3.0402,-3.0411,-3.0436,-3.0463,-3.0326,-3.0254,-2.9966,-2.9641,-2.9569,-2.9535,-3.0071,-3.0586,-3.0742,-3.0878,-3.0836,-3.0816,-3.0835,-3.0837,-3.0838,-3.0879,-3.0898,-3.0859,-3.0816,-3.0575,-3.0305,-3.0246,-3.0136,-2.9568,-2.9309,-2.9599,-2.988,-2.9773,-2.9626,-2.9414,-2.9235,-2.9071,-2.8743,-2.8329,-2.7946,-2.7561,-2.6559,-3.5274,-3.4826,-3.2959,-3.2431,-3.2758,-3.2221,-3.2113,-3.237,-3.3071,-3.3867,-3.4203,-3.4339,-3.3888,-3.3006,-3.2527,-3.2288,-3.1854,-3.163,-3.1525,-3.1524,-3.1524,-3.1496,-3.1496,-3.1523,-3.1592,-3.1496,-3.1524,-3.1851,-3.2155,-3.171,-3.1407,-3.1109,-3.0695,-2.9778,-2.8821,-2.8314,-2.8222,-2.8222,-2.801,-2.8248,-2.8313,-2.7759,-2.7832,-2.7977,-2.8122,-2.8281,-2.8822,-2.9491,-3.0128,-3.0393,-3.0595,-3.0572,-3.0285,-3.0089,-3.0089,-3.0057,-2.9892,-2.9631,-2.9696,-2.9935,-3.0229,-2.9397,-2.9015,-2.8627,-2.8414,-2.8596,-2.8773,-2.8845,-2.9134,-2.9464,-2.9644,-2.9845,-3.0054,-3.0202,-3.0367,-3.0408,-3.0425,-3.043,-3.0162,-2.997,-2.9778,-2.9815,-2.9835,-2.99,-3.0119,-3.0557,-3.0638,-3.0749,-3.0725,-3.0726,-3.0738,-3.0765,-3.079,-3.0837,-3.0879,-3.0859,-3.0838,-3.0704,-3.0464,-3.036,-3.0124,-2.9622,-2.9509,-2.9928,-3.0087,-3.0003,-2.9853,-2.9687,-2.9436,-2.9211,-2.885,-2.8515,-2.8254,-2.7884,-2.7195,-3.3925,-3.2946,-3.1768,-3.1629,-3.1952,-3.0276,-3.0521,-3.1661,-3.1611,-3.2271,-3.3587,-3.4159,-3.4039,-3.329,-3.2677,-3.2348,-3.2093,-3.1705,-3.1496,-3.1496,-3.1496,-3.1496,-3.1496,-3.1496,-3.1496,-3.1496,-3.1496,-3.1553,-3.164,-3.1553,-3.1206,-3.0799,-3.0461,-2.9769,-2.8655,-2.794,-2.764,-2.7535,-2.709,-2.7579,-2.7695,-2.6863,-2.6911,-2.7288,-2.7526,-2.7635,-2.8108,-2.8905,-2.9546,-2.9913,-3.0293,-3.0322,-3.0169,-3.0101,-3.014,-3.0226,-2.9482,-2.9113,-2.9034,-2.9123,-2.8949,-2.8817,-2.8444,-2.8422,-2.8102,-2.821,-2.8502,-2.8602,-2.8993,-2.9341,-2.9551,-2.9722,-2.9904,-3.0054,-3.0221,-3.0323,-3.0329,-3.0414,-3.0186,-3.0067,-3.0227,-3.0356,-3.0367,-3.039,-3.042,-3.0565,-3.0594,-3.0609,-3.0611,-3.0638,-3.0661,-3.0669,-3.0705,-3.077,-3.0817,-3.0879,-3.0839,-3.0728,-3.0624,-3.0519,-3.0461,-3.0234,-3.0231,-3.0375,-3.0297,-3.0222,-3.0105,-2.9965,-2.9695,-2.9415,-2.9115,-2.8797,-2.8552,-2.8224,-2.7627,-3.2942,-3.2275,-3.1534,-3.1145,-3.092,-3.0281,-2.9947,-2.9867,-3.0304,-3.155,-3.3225,-3.3769,-3.3455,-3.2901,-3.2632,-3.2288,-3.1869,-3.1735,-3.1496,-3.1496,-3.1496,-3.1496,-3.1496,-3.1496,-3.1496,-3.1496,-3.1496,-3.1496,-3.1524,-3.1496,-3.1436,-3.1092,-3.0268,-2.943,-2.8648,-2.7989,-2.76,-2.757,-2.737,-2.7319,-2.721,-2.6657,-2.6483,-2.6988,-2.7011,-2.7178,-2.7561,-2.845,-2.8934,-2.9316,-2.9695,-3.0145,-3.0122,-3.0098,-3.027,-3.0342,-2.9786,-2.8739,-2.8231,-2.7877,-2.7512,-2.7639,-2.7811,-2.7847,-2.7562,-2.8098,-2.8298,-2.8476,-2.8808,-2.9141,-2.9424,-2.9484,-2.9635,-2.9823,-2.9977,-3.0087,-3.015,-3.0317,-3.0325,-3.0306,-3.0385,-3.0349,-3.0334,-3.0381,-3.0448,-3.0494,-3.0494,-3.0537,-3.0548,-3.0578,-3.0614,-3.0614,-3.0636,-3.0705,-3.0748,-3.0816,-3.0879,-3.0818,-3.0746,-3.0643,-3.0624,-3.0591,-3.0517,-3.0462,-3.0429,-3.0418,-3.0257,-3.0105,-2.9893,-2.9634,-2.9336,-2.9093,-2.888,-2.8603,-2.8246,-3.1837,-3.1448,-3.0929,-3.0538,-3.0164,-2.9857,-2.9236,-2.8794,-2.9797,-3.1301,-3.2482,-3.292,-3.3045,-3.281,-3.2542,-3.2348,-3.1824,-3.157,-3.1496,-3.1496,-3.1496,-3.1496,-3.1496,-3.1496,-3.1496,-3.1496,-3.1496,-3.1496,-3.1496,-3.1496,-3.1301,-3.0838,-3.0133,-2.934,-2.8592,-2.8004,-2.7585,-2.7585,-2.748,-2.739,-2.72,-2.6931,-2.6931,-2.701,-2.7055,-2.719,-2.7575,-2.7944,-2.831,-2.8677,-2.9157,-2.9805,-2.9868,-2.9963,-3.0185,-3.0241,-2.9781,-2.8549,-2.7588,-2.7131,-2.6927,-2.6876,-2.6988,-2.7067,-2.7194,-2.7616,-2.797,-2.8232,-2.8565,-2.8897,-2.9163,-2.9228,-2.9425,-2.9616,-2.9756,-2.9861,-2.995,-3.0107,-3.0189,-3.0221,-3.0208,-3.0176,-3.0215,-3.0317,-3.0369,-3.0381,-3.0409,-3.0434,-3.0482,-3.0516,-3.0533,-3.0544,-3.0568,-3.0636,-3.0703,-3.0768,-3.0816,-3.0879,-3.0817,-3.0746,-3.0689,-3.0652,-3.06,-3.0544,-3.0537,-3.0483,-3.0372,-3.0222,-3.0006,-2.9796,-2.9551,-2.9336,-2.9171,-2.8927,-2.864,-3.0608,-3.0507,-3.0018,-2.9805,-2.9717,-2.9227,-2.8807,-2.866,-3.0132,-3.0928,-3.1176,-3.1832,-3.2282,-3.2988,-3.2632,-3.2377,-3.2198,-3.1705,-3.1555,-3.1496,-3.1496,-3.1496,-3.1496,-3.1496,-3.1496,-3.1467,-3.1409,-3.1278,-3.1467,-3.1496,-3.1182,-3.0522,-2.9894,-2.9146,-2.8457,-2.7929,-2.7615,-2.7585,-2.757,-2.7525,-2.7375,-2.745,-2.742,-2.7405,-2.745,-2.7465,-2.7635,-2.771,-2.7968,-2.8271,-2.8567,-2.8927,-2.9138,-2.9267,-2.9707,-2.9764,-2.9288,-2.8295,-2.7148,-2.6776,-2.6759,-2.6759,-2.6843,-2.6775,-2.689,-2.7224,-2.7572,-2.789,-2.8197,-2.8552,-2.8868,-2.9075,-2.927,-2.9426,-2.9579,-2.9662,-2.9696,-2.979,-2.9861,-2.9877,-2.9856,-2.9856,-2.9896,-3.0015,-3.0182,-3.0222,-3.0239,-3.0356,-3.0384,-3.0433,-3.0467,-3.0494,-3.0517,-3.0565,-3.0633,-3.0702,-3.0767,-3.0816,-3.0879,-3.0836,-3.0768,-3.0723,-3.0691,-3.0658,-3.0611,-3.0547,-3.0458,-3.0287,-3.0112,-2.9912,-2.9769,-2.9523,-2.9324,-2.9181,-2.8956,-3.0394,-3.0018,-2.9854,-2.9779,-2.9704,-2.9139,-2.8976,-2.9205,-2.9306,-2.9364,-2.9663,-3.0499,-3.1038,-3.1214,-3.1575,-3.1751,-3.1735,-3.163,-3.154,-3.1496,-3.1496,-3.1496,-3.1496,-3.1496,-3.1496,-3.1307,-3.1117,-3.1058,-3.1365,-3.1452,-3.078,-2.9981,-2.9609,-2.8891,-2.8229,-2.7705,-2.763,-2.7585,-2.7585,-2.7585,-2.7585,-2.7585,-2.7585,-2.7585,-2.7585,-2.7585,-2.7585,-2.7585,-2.7785,-2.7845,-2.8271,-2.8638,-2.8686,-2.9061,-2.9416,-2.8777,-2.8624,-2.8383,-2.7131,-2.7164,-2.7232,-2.6911,-2.7097,-2.708,-2.7012,-2.7037,-2.7369,-2.7624,-2.7961,-2.8367,-2.8543,-2.8718,-2.8925,-2.9104,-2.9285,-2.9445,-2.9504,-2.9561,-2.9624,-2.9642,-2.9616,-2.9661,-2.9696,-2.9782,-2.9943,-2.9984,-3.0075,-3.0196,-3.0317,-3.0361,-3.0402,-3.0441,-3.0467,-3.0528,-3.0568,-3.0636,-3.07,-3.0747,-3.0816,-3.0879,-3.0859,-3.082,-3.0781,-3.0731,-3.0659,-3.0587,-3.0511,-3.0302,-3.0009,-3.0133,-3.0035,-2.9746,-2.9513,-2.9353,-2.92,-3.0419,-3.0093,-2.988,-2.9779,-2.9729,-2.9415,-2.9275,-2.9076,-2.8372,-2.8276,-2.8785,-2.9127,-2.9642,-3.0403,-3.0851,-3.119,-3.1525,-3.1525,-3.1496,-3.1496,-3.1496,-3.1496,-3.1496,-3.1496,-3.1496,-3.1278,-3.1102,-3.097,-3.1072,-3.0601,-2.9968,-2.886,-2.8976,-2.8536,-2.7914,-2.7615,-2.7615,-2.7585,-2.7585,-2.7585,-2.7585,-2.7585,-2.7585,-2.7585,-2.7585,-2.7585,-2.7585,-2.7585,-2.7585,-2.76,-2.8042,-2.814,-2.8247,-2.8646,-2.8646,-2.8123,-2.8249,-2.7716,-2.6769,-2.6944,-2.6978,-2.6962,-2.7131,-2.7012,-2.7114,-2.718,-2.7321,-2.7504,-2.7859,-2.817,-2.8239,-2.8342,-2.854,-2.8731,-2.8984,-2.9225,-2.931,-2.9355,-2.9405,-2.9436,-2.9456,-2.9504,-2.957,-2.9643,-2.9687,-2.9722,-2.9832,-2.9992,-3.0174,-3.0324,-3.0361,-3.04,-3.0436,-3.0477,-3.0513,-3.0571,-3.0633,-3.07,-3.0746,-3.082,-3.0879,-3.0898,-3.0859,-3.0781,-3.0707,-3.0599,-3.05,-3.0125,-2.9868,-3.0007,-3.0067,-2.9758,-2.9536,-2.9465,-2.9343,-3.0543,-3.047,-3.0005,-2.9779,-2.9779,-2.9741,-2.9504,-2.8863,-2.7918,-2.7761,-2.8245,-2.796,-2.8716,-2.9827,-3.0178,-3.0777,-3.1146,-3.1351,-3.1336,-3.1467,-3.1496,-3.1496,-3.1496,-3.1496,-3.1496,-3.1467,-3.1248,-3.0777,-3.0335,-3.0133,-2.9592,-2.7715,-2.8292,-2.8109,-2.7233,-2.7295,-2.7306,-2.7291,-2.7458,-2.7585,-2.7585,-2.7585,-2.7585,-2.7585,-2.7585,-2.7585,-2.7585,-2.7585,-2.7585,-2.76,-2.7625,-2.766,-2.7845,-2.8216,-2.8011,-2.7758,-2.7871,-2.7421,-2.6751,-2.6705,-2.6754,-2.674,-2.6742,-2.6792,-2.6962,-2.7097,-2.7194,-2.7188,-2.7483,-2.7718,-2.7824,-2.7964,-2.8139,-2.8433,-2.8743,-2.8973,-2.9134,-2.9171,-2.9174,-2.922,-2.9285,-2.9326,-2.9283,-2.9355,-2.9475,-2.9484,-2.958,-2.9777,-2.995,-3.0154,-3.0273,-3.0336,-3.0414,-3.043,-3.0477,-3.0509,-3.0568,-3.063,-3.0656,-3.0742,-3.082,-3.0859,-3.0918,-3.084,-3.0768,-3.0583,-3.0402,-2.9976,-2.9716,-2.9831,-2.9829,-2.9649,-2.9568,-2.9551,-2.9474,-3.0369,-2.998,-2.9854,-2.9779,-2.9779,-2.9779,-2.9716,-2.949,-2.8386,-2.7763,-2.7615,-2.7738,-2.8233,-2.916,-2.9373,-3.0052,-3.1191,-3.1102,-3.1043,-3.1366,-3.154,-3.1496,-3.1496,-3.1496,-3.1467,-3.1278,-3.097,-3.0375,-3.0141,-3.0148,-2.9899,-2.8337,-2.8384,-2.7858,-2.648,-2.6688,-2.7085,-2.7074,-2.7382,-2.7575,-2.7585,-2.7585,-2.7585,-2.7585,-2.7585,-2.7585,-2.7585,-2.7585,-2.7585,-2.76,-2.76,-2.7585,-2.761,-2.8174,-2.8054,-2.7561,-2.7429,-2.7201,-2.6872,-2.6552,-2.6522,-2.6759,-2.6854,-2.682,-2.6842,-2.6928,-2.6979,-2.6961,-2.7092,-2.7318,-2.7434,-2.7592,-2.7759,-2.8125,-2.8489,-2.8713,-2.8947,-2.897,-2.8964,-2.9048,-2.9119,-2.9115,-2.9055,-2.9112,-2.9217,-2.9322,-2.9412,-2.9551,-2.9689,-2.9878,-3.0082,-3.0168,-3.0349,-3.04,-3.0436,-3.0395,-3.0431,-3.0392,-3.0389,-3.0544,-3.0644,-3.0644,-3.0586,-3.0801,-3.0819,-3.056,-3.0218,-2.9734,-2.9569,-2.9537,-2.9289,-2.898,-2.9511,-2.9682,-2.959,-3.0645,-3.0143,-2.9892,-2.9779,-2.9741,-2.9528,-2.9402,-2.9202,-2.8222,-2.757,-2.7266,-2.7289,-2.7637,-2.8411,-2.8671,-2.9701,-3.0993,-3.0884,-3.135,-3.1738,-3.1527,-3.1511,-3.1496,-3.1467,-3.1146,-3.0866,-2.9707,-2.9171,-2.962,-2.9035,-2.8408,-2.7722,-2.7726,-2.769,-2.6382,-2.6899,-2.7141,-2.7049,-2.7397,-2.7549,-2.756,-2.7585,-2.7585,-2.7585,-2.7585,-2.7585,-2.7585,-2.7585,-2.7585,-2.7585,-2.7585,-2.7585,-2.7635,-2.7885,-2.7692,-2.7333,-2.7146,-2.718,-2.6882,-2.6571,-2.6371,-2.6629,-2.6576,-2.6373,-2.6448,-2.6553,-2.6793,-2.686,-2.7335,-2.7605,-2.7239,-2.7239,-2.7422,-2.7715,-2.8043,-2.8321,-2.8533,-2.8658,-2.8797,-2.901,-2.9048,-2.9037,-2.901,-2.901,-2.9115,-2.9127,-2.9214,-2.9339,-2.9488,-2.957,-2.9794,-2.9965,-3.0107,-3.0305,-3.0414,-3.0328,-3.0236,-3.0184,-3.0141,-2.9718,-2.957,-3.0001,-3.0254,-3.0368,-3.0448,-3.0429,-3.0053,-2.9414,-2.8984,-2.881,-2.8528,-2.8214,-2.8922,-2.9555,-2.9358,-3.0947,-3.047,-2.9993,-2.9779,-2.9716,-2.9277,-2.8988,-2.8787,-2.7858,-2.7369,-2.7241,-2.6773,-2.6998,-2.7654,-2.8084,-2.9476,-3.021,-2.9982,-3.0871,-3.1589,-3.1456,-3.141,-3.1438,-3.1467,-3.1146,-3.0554,-2.9566,-2.9069,-2.9003,-2.8623,-2.8118,-2.6813,-2.7052,-2.7824,-2.7475,-2.7605,-2.7642,-2.7169,-2.7214,-2.7473,-2.7524,-2.756,-2.7585,-2.7585,-2.7525,-2.751,-2.754,-2.7495,-2.748,-2.7585,-2.7585,-2.7585,-2.7585,-2.7685,-2.742,-2.714,-2.7045,-2.6988,-2.674,-2.6355,-2.6351,-2.6345,-2.6094,-2.5997,-2.6089,-2.6206,-2.6468,-2.6826,-2.7297,-2.7436,-2.7062,-2.6938,-2.7129,-2.7378,-2.7689,-2.7978,-2.8183,-2.8342,-2.8565,-2.8827,-2.8863,-2.8863,-2.8887,-2.8899,-2.8975,-2.8975,-2.9042,-2.9157,-2.9255,-2.9334,-2.9465,-2.9653,-2.9792,-3.0019,-3.0273,-3.0251,-3.0119,-2.9974,-2.9809,-2.9,-2.8532,-2.9026,-2.9449,-2.9792,-2.9857,-2.9901,-2.9531,-2.8906,-2.8516,-2.8105,-2.7844,-2.7676,-2.8212,-2.8751,-2.8818,-3.0444,-2.9942,-2.9829,-2.9779,-2.9767,-2.9654,-2.9377,-2.8825,-2.8247,-2.772,-2.7231,-2.6845,-2.6939,-2.7637,-2.7037,-2.7894,-2.9412,-2.915,-2.9617,-3.0401,-3.0746,-3.1073,-3.1292,-3.1351,-3.1365,-3.0866,-3.0374,-3.0363,-2.928,-2.9209,-2.8614,-2.6934,-2.693,-2.6708,-2.5276,-2.5864,-2.6888,-2.6623,-2.6893,-2.7178,-2.6956,-2.7111,-2.7534,-2.742,-2.7076,-2.7255,-2.73,-2.7031,-2.721,-2.742,-2.7585,-2.7585,-2.7585,-2.7585,-2.7435,-2.721,-2.7101,-2.708,-2.6837,-2.6222,-2.6157,-2.6725,-2.6404,-2.5775,-2.581,-2.574,-2.6008,-2.6271,-2.6678,-2.6926,-2.6759,-2.6775,-2.6923,-2.7224,-2.756,-2.7736,-2.7936,-2.7978,-2.8088,-2.8281,-2.8412,-2.8451,-2.8527,-2.8658,-2.8917,-2.8929,-2.8975,-2.9078,-2.9108,-2.9137,-2.92,-2.9332,-2.9494,-2.9739,-3.0003,-3.0103,-3.0017,-2.9829,-2.9345,-2.8365,-2.7891,-2.8146,-2.8522,-2.8817,-2.9138,-2.9289,-2.8828,-2.8242,-2.7812,-2.7405,-2.7199,-2.7197,-2.7644,-2.7959,-2.8048]},{"header":{"parameterUnit":"m.s-1","parameterCategory":1,"la1":31.0,"la2":29.5877,"lo1":-88.7671,"lo2":-86.6584,"dy":0.0162,"dx":0.0185,"nx":115,"ny":88,"refTime":"2023-05-09T12:00:00:Z","depth":0,"parameterNumber":3,"parameterNumberName":"V-component_of_WINDS"},"data":[0.0,0.0,0.0,0.0,0.0,0.0,0.0,0.0,0.0,0.0,0.0,0.0,0.0,0.0,0.0,0.0,0.0,0.0,0.0,0.0,0.0,0.0,0.0,0.0,0.0,0.0,0.0,0.0,0.0,0.0,0.0,0.0,0.0,0.0,0.0,0.0,0.0,0.0,0.0,0.0,0.0,0.0,0.0,0.0,0.0,0.0,0.0,0.0,0.0,0.0,0.0,0.0,0.0,0.0,0.0,0.0,0.0,0.0,0.0,0.0,0.0,0.0,0.0,0.0,0.0,0.0,0.0,0.0,0.0,0.0,0.0,0.0,0.0,0.0,0.0,0.0,0.0,0.0,0.0,0.0,0.0,0.0,0.0,0.0,0.0,0.0,0.0,0.0,0.0,0.0,0.0,0.0,0.0,0.0,0.0,0.0,0.0,0.0,0.0,0.0,0.0,0.0,0.0,0.0,0.0,0.0,0.0,0.0,0.0,0.0,0.0,0.0,0.0,0.0,0.0,0.0,0.0,0.0,0.0,0.0,0.0,0.0,0.0,0.0,0.0,0.0,0.0,0.0,0.0,0.0,0.0,0.0,0.0,0.0,0.0,0.0,0.0,0.0,0.0,0.0,0.0,0.0,0.0,0.0,0.0,0.0,0.0,0.0,0.0,0.0,0.0,0.0,0.0,0.0,0.0,0.0,0.0,0.0,0.0,0.0,0.0,0.0,0.0,0.0,0.0,0.0,0.0,0.0,0.0,0.0,0.0,0.0,0.0,0.0,0.0,0.0,0.0,0.0,0.0,0.0,0.0,0.0,0.0,0.0,0.0,0.0,0.0,0.0,0.0,0.0,0.0,0.0,0.0,0.0,0.0,0.0,0.0,0.0,0.0,0.0,0.0,0.0,0.0,0.0,0.0,0.0,0.0,0.0,0.0,0.0,0.0,0.0,0.0,0.0,0.0,0.0,0.0,0.0,0.0,0.0,0.0,0.0,0.0,0.0,0.0,0.0,0.0,0.0,0.0,0.0,0.0,0.0,0.0,0.0,0.0,0.0,0.0,0.0,0.0,0.0,0.0,0.0,0.0,0.0,0.0,0.0,0.0,0.0,0.0,0.0,0.0,0.0,0.0,0.0,0.0,0.0,0.0,0.0,0.0,0.0,0.0,0.0,0.0,0.0,0.0,0.0,0.0,0.0,0.0,0.0,0.0,0.0,0.0,0.0,0.0,0.0,0.0,0.0,0.0,0.0,0.0,0.0,0.0,0.0,0.0,0.0,0.0,0.0,0.0,0.0,0.0,0.0,0.0,0.0,0.0,0.0,0.0,0.0,0.0,0.0,0.0,0.0,0.0,0.0,0.0,0.0,0.0,0.0,0.0,0.0,0.0,0.0,0.0,0.0,0.0,0.0,0.0,0.0,0.0,0.0,0.0,0.0,0.0,0.0,0.0,0.0,0.0,0.0,0.0,0.0,0.0,0.0,0.0,0.0,0.0,0.0,0.0,0.0,0.0,0.0,0.0,0.0,0.0,0.0,0.0,0.0,0.0,0.0,0.0,0.0,0.0,0.0,0.0,0.0,0.0,0.0,0.0,0.0,0.0,0.0,0.0,0.0,0.0,0.0,0.0,0.0,0.0,0.0,0.0,0.0,0.0,0.0,0.0,0.0,0.0,0.0,0.0,0.0,0.0,0.0,0.0,0.0,0.0,0.0,0.0,0.0,0.0,0.0,0.0,0.0,0.0,0.0,0.0,0.0,0.0,0.0,0.0,0.0,0.0,0.0,0.0,0.0,0.0,0.0,0.0,0.0,0.0,0.0,0.0,0.0,0.0,0.0,0.0,0.0,0.0,0.0,0.0,0.0,0.0,0.0,0.0,0.0,0.0,0.0,0.0,0.0,0.0,0.0,0.0,0.0,0.0,0.0,0.0,0.0,0.0,0.0,0.0,0.0,0.0,0.0,0.0,0.0,0.0,0.0,0.0,0.0,0.0,0.0,0.0,0.0,0.0,0.0,0.0,0.0,0.0,0.0,0.0,0.0,0.0,0.0,0.0,0.0,0.0,0.0,0.0,0.0,0.0,0.0,0.0,0.0,0.0,0.0,0.0,0.0,0.0,0.0,0.0,0.0,0.0,0.0,0.0,0.0,0.0,0.0,0.0,0.0,0.0,0.0,0.0,0.0,0.0,0.0,0.0,0.0,0.0,0.0,0.0,0.0,0.0,0.0,0.0,0.0,0.0,0.0,0.0,0.0,0.0,0.0,0.0,0.0,0.0,0.0,0.0,0.0,0.0,0.0,0.0,0.0,0.0,0.0,0.0,0.0,0.0,0.0,0.0,0.0,0.0,0.0,0.0,0.0,0.0,0.0,0.0,0.0,0.0,0.0,0.0,0.0,0.0,0.0,0.0,0.0,0.0,0.0,0.0,0.0,0.0,0.0,0.0,0.0,0.0,0.0,0.0,0.0,0.0,0.0,0.0,0.0,0.0,0.0,0.0,0.0,0.0,0.0,0.0,0.0,0.0,0.0,0.0,0.0,0.0,0.0,0.0,0.0,0.0,0.0,0.0,0.0,0.0,0.0,0.0,0.0,0.0,0.0,0.0,0.0,0.0,0.0,0.0,0.0,0.0,0.0,0.0,0.0,0.0,0.0,0.0,0.0,0.0,0.0,0.0,0.0,0.0,0.0,0.0,0.0,0.0,0.0,0.0,0.0,0.0,0.0,0.0,0.0,0.0,0.0,0.0,0.0,0.0,0.0,0.0,0.0,0.0,0.0,0.0,0.0,0.0,0.0,0.0,0.0,0.0,0.0,0.0,0.0,0.0,0.0,0.0,0.0,0.0,0.0,0.0,0.0,0.0,0.0,0.0,0.0,0.0,0.0,0.0,0.0,0.0,0.0,0.0,0.0,0.0,0.0,0.0,0.0,0.0,0.0,0.0,0.0,0.0,0.0,0.0,0.0,0.0,0.0,0.0,0.0,0.0,0.0,0.0,0.0,0.0,0.0,0.0,0.0,0.0,0.0,0.0,0.0,0.0,0.0,0.0,0.0,0.0,0.0,0.0,0.0,0.0,0.0,0.0,0.0,0.0,0.0,0.0,0.0,0.0,0.0,0.0,0.0,0.0,0.0,0.0,0.0,0.0,0.0,0.0,0.0,0.0,0.0,0.0,0.0,0.0,0.0,0.0,0.0,0.0,0.0,0.0,0.0,0.0,0.0,0.0,0.0,0.0,0.0,0.0,0.0,0.0,0.0,0.0,0.0,0.0,0.0,0.0,0.0,0.0,0.0,0.0,0.0,0.0,0.0,0.0,0.0,0.0,0.0,0.0,0.0,0.0,0.0,0.0,0.0,0.0,0.0,0.0,0.0,0.0,0.0,0.0,0.0,0.0,0.0,0.0,0.0,0.0,0.0,0.0,0.0,0.0,0.0,0.0,0.0,0.0,0.0,0.0,0.0,0.0,0.0,0.0,0.0,0.0,0.0,0.0,0.0,0.0,0.0,0.0,0.0,0.0,0.0,0.0,0.0,0.0,0.0,0.0,0.0,0.0,0.0,0.0,0.0,0.0,0.0,0.0,0.0,0.0,0.0,0.0,0.0,0.0,0.0,0.0,0.0,0.0,0.0,0.0,0.0,0.0,0.0,0.0,0.0,0.0,0.0,0.0,0.0,0.0,0.0,0.0,0.0,0.0,0.0,0.0,0.0,0.0,0.0,0.0,0.0,0.0,0.0,0.0,0.0,0.0,0.0,0.0,0.0,0.0,0.0,0.0,0.0,0.0,0.0,0.0,0.0,0.0,0.0,0.0,0.0,0.0,0.0,0.0,0.0,0.0,0.0,0.0,0.0,0.0,0.0,0.0,0.0,0.0,0.0,0.0,0.0,0.0,0.0,0.0,0.0,0.0,0.0,0.0,0.0,0.0,0.0,0.0,0.0,0.0,0.0,0.0,0.0,0.0,0.0,0.0,0.0,0.0,0.0,0.0,0.0,0.0,0.0,0.0,0.0,0.0,0.0,0.0,0.0,0.0,0.0,0.0,0.0,0.0,0.0,0.0,0.0,0.0,0.0,0.0,0.0,0.0,0.0,0.0,0.0,0.0,0.0,0.0,0.0,0.0,0.0,0.0,0.0,0.0,0.0,0.0,0.0,0.0,0.0,0.0,0.0,0.0,0.0,0.0,0.0,0.0,0.0,0.0,0.0,0.0,0.0,0.0,0.0,0.0,0.0,0.0,0.0,0.0,0.0,0.0,0.0,0.0,0.0,0.0,0.0,0.6549,0.0,0.0,0.0,-0.0664,0.0,0.0,0.0,0.0,0.0,0.0,0.0,0.0,0.0,0.0,0.0,0.0,0.0,0.0,0.0,0.0,0.0,0.0,0.0,0.0,0.0,0.0,0.0,0.0,0.0,0.0,0.0,0.0,0.0,0.0,0.0,0.0,0.0,0.0,0.0,0.0,0.0,0.0,0.0,0.0,0.0,0.0,0.0,0.0,0.0,0.0,0.0,0.0,0.0,0.0,0.0,0.0,0.0,0.0,0.0,0.0,0.0,0.0,0.0,0.0,0.0,0.0,0.0,0.0,0.0,0.0,0.0,0.0,0.0,0.0,0.0,0.0,0.0,0.0,0.0,0.0,0.0,0.0,0.0,0.0,0.0,0.0,0.0,0.0,0.0,0.0,0.0,0.0,0.0,0.0,0.0,0.0,0.0,0.0,0.0,0.0,0.0,0.0,0.0,0.0,0.0,0.0,0.0,0.0,0.0,0.0,0.0,0.0,0.0,0.0,0.6822,0.5199,0.2981,0.1062,-0.0607,0.0,0.0,0.0,0.0,0.0,0.0,0.0,0.0,0.0,0.0,0.0,0.0,0.0,0.0,0.0,0.0,0.0,0.0,0.0,0.0,0.0,0.0,0.0,0.0,0.0,0.0,0.0,0.0,0.0,0.0,0.0,0.0,0.0,0.0,0.0,0.0,0.0,0.0,0.0,0.0,0.0,0.0,0.0,0.0,0.0,0.0,0.0,0.0,0.0,0.0,0.0,0.0,0.0,0.0,0.0,0.0,0.0,0.0,0.0,0.0,0.0,0.0,0.0,0.0,0.0,0.0,0.0,0.0,0.0,0.0,0.0,0.0,0.0,0.0,0.0,0.0,0.0,0.0,0.0,0.0,0.0,0.0,0.0,0.0,0.0,0.0,0.0,0.0,0.0,0.0,0.0,0.0,0.0,0.0,0.0,0.0,0.0,0.0,0.0,0.0,0.0,0.0,0.0,0.0,0.0,0.0,0.0,0.0,0.0,0.0,0.0,0.0,0.3179,0.0861,-0.1307,0.0,0.0,0.0,0.0,0.0,0.0,0.0,0.0,0.0,0.0,0.0,0.0,0.0,0.0,0.0,0.0,0.0,0.0,0.0,0.0,0.0,0.0,0.0,0.0,0.0,0.0,0.0,0.0,0.0,0.0,0.0,0.0,0.0,0.0,0.0,0.0,0.0,0.0,0.0,0.0,0.0,0.0,0.0,0.0,0.0,0.0,0.0,0.0,0.0,0.0,0.0,0.0,0.0,0.0,0.0,0.0,0.0,0.0,0.0,0.0,0.0,0.0,0.0,0.0,0.0,0.0,0.0,0.0,0.0,0.0,0.0,0.0,0.0,0.0,0.0,0.0,0.0,0.0,0.0,0.0,0.0,0.0,0.0,0.0,0.0,0.0,0.0,0.0,0.0,0.0,0.0,0.0,0.0,0.0,0.0,0.0,0.0,0.0,0.0,0.0,0.0,0.0,0.0,0.0,0.0,0.0,0.0,0.0,0.0,0.0,0.7172,0.5366,0.3073,0.0,-0.3306,0.0,0.0,0.0,0.0,0.0,0.0,0.0,0.0,0.0,0.0,0.0,0.0,0.0,0.0,0.0,0.0,0.0,0.0,0.0,0.0,0.0,0.0,0.0,0.0,0.0,0.0,0.0,0.0,0.0,0.0,0.0,0.0,0.0,0.0,0.0,0.0,0.0,0.0,0.0,0.0,0.0,0.0,0.0,0.0,0.0,0.0,0.0,0.0,0.0,0.0,0.0,0.0,0.0,0.0,0.0,0.0,0.0,0.0,0.0,0.0,0.0,0.0,0.0,0.0,0.0,0.0,0.0,0.0,0.0,0.0,0.0,0.0,0.0,0.0,0.0,0.0,0.0,0.0,0.0,0.0,0.0,0.0,0.0,0.0,0.0,0.0,0.0,0.0,0.0,0.0,0.0,0.0,0.0,0.0,0.0,0.0,0.0,0.0,0.0,0.0,0.0,0.0,0.0,0.0,0.0,0.0,0.0,0.0,0.0,0.0,0.703,0.5143,0.1767,-0.124,0.0,0.0,0.0,0.0,0.0,0.0,0.0,0.0,0.0,0.0,0.0,0.0,0.0,0.0,0.0,0.0,0.0,0.0,0.0,0.0,0.0,0.0,0.0,0.0,0.0,0.0,0.0,0.0,0.0,0.0,0.0,0.0,0.0,0.0,0.0,0.0,0.0,0.0,0.0,0.0,0.0,0.0,0.0,0.0,0.0,0.0,0.0,0.0,0.0,0.0,0.0,0.0,0.0,0.0,0.0,0.0,0.0,0.0,0.0,0.0,0.0,0.0,0.0,0.0,0.0,0.0,0.0,0.0,0.0,0.0,0.0,0.0,0.0,0.0,0.0,0.0,0.0,0.0,0.0,0.0,0.0,0.0,0.0,0.0,0.0,0.0,0.0,0.0,0.0,0.0,0.0,0.0,0.0,0.0,0.0,0.0,0.0,0.0,0.0,0.0,0.0,0.0,0.0,0.0,0.0,0.0,0.0,0.0,0.0,0.0,0.8231,0.6437,0.4008,0.0423,-0.2286,-0.3849,0.0,0.0,0.0,0.0,0.0,0.0,0.0,0.0,0.0,0.0,0.0,0.0,0.0,0.0,0.0,0.0,0.0,0.0,0.0,0.0,0.0,0.0,0.0,0.0,0.0,0.0,0.0,0.0,0.0,0.0,0.0,0.0,0.0,0.0,0.0,0.0,0.0,0.0,0.0,0.0,0.0,0.0,0.0,0.0,0.0,0.0,0.0,0.0,0.0,0.0,0.0,0.0,0.0,0.0,0.0,0.0,0.0,0.0,0.0,0.0,0.0,0.0,0.0,0.0,0.0,0.0,0.0,0.0,0.0,0.0,0.0,0.0,0.0,0.0,0.0,0.0,0.0,0.0,0.0,0.0,0.0,0.0,0.0,0.0,0.0,0.0,0.0,0.0,0.0,0.0,0.0,0.0,0.0,0.0,0.0,0.0,0.0,0.0,0.0,0.0,0.0,0.0,0.0,0.0,0.0,0.0,0.0,0.0,0.9183,0.7755,0.5271,0.1695,-0.0671,-0.2595,0.0,0.0,0.0,0.0,0.0,0.0,0.0,0.0,0.0,0.0,0.0,0.0,0.0,0.0,0.0,0.0,0.0,0.0,0.0,0.0,0.0,0.0,0.0,0.0,0.0,0.0,0.0,0.0,0.0,0.0,0.0,0.0,0.0,0.0,0.0,0.0,0.0,0.0,0.0,0.0,0.0,0.0,0.0,0.0,0.0,0.0,0.0,0.0,0.0,0.0,0.0,0.0,0.0,0.0,0.0,0.0,0.0,0.0,0.0,0.0,0.0,0.0,0.0,0.0,0.0,0.0,0.0,0.0,0.0,0.0,0.0,0.0,0.0,0.0,0.0,0.0,0.0,0.0,0.0,0.0,0.0,0.0,0.0,0.0,0.0,0.0,0.0,0.0,0.0,0.0,0.0,0.0,0.0,0.0,0.0,0.0,0.0,0.0,0.0,0.0,0.0,0.0,0.0,0.0,0.0,0.0,0.0,0.0,0.0,0.818,0.6019,0.3652,0.1217,-0.0964,-0.2756,0.0,0.0,0.0,0.0,0.0,0.0,0.0,0.0,0.0,0.0,0.0,0.0,0.0,0.0,0.0,0.0,0.0,0.0,0.0,0.0,0.0,0.0,0.0,0.0,0.0,0.0,0.0,0.0,0.0,0.0,0.0,0.0,0.0,0.0,0.0,0.0,0.0,0.0,0.0,0.0,0.0,0.0,0.0,0.0,0.0,0.0,0.0,0.0,0.0,0.0,0.0,0.0,0.0,0.0,0.0,0.0,0.0,0.0,0.0,0.0,0.0,0.0,0.0,0.0,0.0,0.0,0.0,0.0,0.0,0.0,0.0,0.0,0.0,0.0,0.0,0.0,0.0,0.0,0.0,0.0,0.0,0.0,0.0,0.0,0.0,0.0,0.0,0.0,0.0,0.0,0.0,0.0,0.0,0.0,0.0,0.0,0.0,0.0,0.0,0.0,0.0,0.0,0.0,0.0,0.0,0.0,0.0,0.0,0.0,0.6685,0.0,0.2514,0.0781,-0.1261,-0.295,0.0,0.0,0.0,0.0,0.0,0.0,0.0,0.0,0.0,0.0,0.0,0.0,0.0,0.0,0.0,0.0,0.0,0.0,0.0,0.0,0.0,0.0,0.0,0.0,0.0,0.0,0.0,0.0,0.0,0.0,0.0,0.0,0.0,0.0,0.0,0.0,0.0,0.0,0.0,0.0,0.0,0.0,0.0,0.0,0.0,0.0,0.0,0.0,0.0,0.0,0.0,0.0,0.0,0.0,0.0,0.0,0.0,0.0,0.0,0.0,0.0,0.0,0.0,0.0,0.0,0.0,0.0,0.0,0.0,0.0,0.0,0.0,0.0,0.0,0.0,0.0,0.0,0.0,0.0,0.0,0.0,0.0,0.0,0.0,0.0,0.0,0.0,0.0,0.0,0.0,0.0,0.0,0.0,0.0,0.0,0.0,0.0,0.0,0.0,0.0,0.0,0.0,0.0,0.0,0.0,0.0,0.0,0.0,0.6198,0.4748,0.3461,0.1971,0.021,-0.1643,-0.325,0.0,0.0,0.0,0.0,0.0,0.0,0.0,0.0,0.0,0.0,0.0,0.0,0.0,0.0,0.0,0.0,0.0,0.0,0.0,0.0,0.0,0.0,0.0,0.0,0.0,0.0,0.0,0.0,0.0,0.0,0.0,0.0,0.0,0.0,0.0,0.0,0.0,0.0,0.0,0.0,0.0,0.0,0.0,0.0,0.0,0.0,0.0,0.0,0.0,0.0,0.0,0.0,0.0,0.0,0.0,0.0,0.0,0.0,0.0,0.0,0.0,0.0,0.0,0.0,0.0,0.0,0.0,0.0,0.0,0.0,0.0,0.0,0.0,0.0,0.0,0.0,0.0,0.0,0.0,0.0,0.0,0.0,0.0,0.0,0.0,0.0,0.0,0.0,0.0,0.0,0.0,0.0,0.0,0.0,0.0,0.0,0.0,0.0,0.0,0.0,0.0,0.0,0.0,0.0,0.0,0.0,0.0,0.0,0.0,0.3815,0.2682,0.1228,-0.0559,-0.2059,-0.3452,0.0,0.0,0.0,0.0,0.0,0.0,0.0,0.0,0.0,0.0,0.0,0.0,0.0,0.0,0.0,0.0,0.0,0.0,0.0,0.0,0.0,0.0,0.0,0.0,0.0,0.0,0.0,0.0,0.0,0.0,0.0,0.0,0.0,0.0,0.0,0.0,0.0,0.0,0.0,0.0,0.0,0.0,0.0,0.0,0.0,0.0,0.0,0.0,0.0,0.0,0.0,0.0,0.0,0.0,0.0,0.0,0.0,0.0,0.0,0.0,0.0,0.0,0.0,0.0,0.0,0.0,0.0,0.0,0.0,0.0,0.0,0.0,0.0,0.0,0.0,0.0,0.0,0.0,0.0,0.0,0.0,0.0,0.0,0.0,0.0,0.0,0.0,0.0,0.0,0.0,0.0,0.0,0.0,0.0,0.0,0.0,0.0,0.0,0.0,0.0,0.0,0.0,0.0,0.0,0.0,0.0,0.0,0.0,0.0,0.2355,0.1619,0.0403,-0.1406,-0.258,-0.3745,-0.4917,0.0,0.0,0.0,0.0,0.0,0.0,0.0,0.0,0.0,0.0,0.0,0.0,0.0,0.0,0.0,0.0,0.0,0.0,0.0,0.0,0.0,0.0,0.0,0.0,0.0,0.0,0.0,0.0,0.0,0.0,0.0,0.0,0.0,0.0,0.0,0.0,0.0,0.0,0.0,0.0,0.0,0.0,0.0,0.0,0.0,0.0,0.0,0.0,0.0,0.0,0.0,0.0,0.0,0.0,0.0,0.0,0.0,0.0,0.0,0.0,0.0,0.0,0.0,0.0,0.0,0.0,0.0,0.0,0.0,0.0,0.0,0.0,0.0,0.0,0.0,0.0,0.0,0.0,0.0,0.0,0.0,0.0,0.0,0.0,0.0,0.0,0.0,0.0,0.0,0.0,0.0,0.0,0.0,0.0,0.0,0.0,0.0,0.0,0.0,0.0,0.0,0.0,0.0,0.0,0.0,0.0,0.0,0.0,0.0556,0.0278,-0.0596,-0.2198,-0.3205,-0.4166,0.0,0.0,0.0,0.0,0.0,0.0,0.0,0.0,0.0,0.0,0.0,0.0,0.0,0.0,0.0,0.0,0.0,0.0,0.0,0.0,0.0,0.0,0.0,0.0,0.0,0.0,0.0,0.0,0.0,0.0,0.0,0.0,0.0,0.0,0.0,0.0,0.0,0.0,0.0,0.0,0.0,0.0,0.0,0.0,0.0,0.0,0.0,0.0,0.0,0.0,0.0,0.0,0.0,0.0,0.0,0.0,0.0,0.0,0.0,0.0,0.0,0.0,0.0,0.0,0.0,0.0,0.0,0.0,0.0,0.0,0.0,0.0,0.0,0.0,0.0,0.0,0.0,0.0,0.0,0.0,0.0,0.0,0.0,0.0,0.0,0.0,0.0,0.0,0.0,0.0,0.0,0.0,0.0,0.0,0.0,0.0,0.0,0.0,0.0,0.0,0.0,0.0,0.0,0.0,0.0,0.0,0.0,0.0,0.0,-0.0189,-0.1054,-0.1947,-0.2982,-0.3627,-0.4451,0.0,0.0,0.0,0.0,0.0,0.0,0.0,0.0,0.0,0.0,0.0,0.0,0.0,0.0,0.0,0.0,0.0,0.0,0.0,0.0,0.0,0.0,0.0,0.0,0.0,0.0,0.0,0.0,0.0,0.0,0.0,0.0,0.0,0.0,0.0,0.0,0.0,0.0,0.0,0.0,0.0,0.0,0.0,0.0,0.0,0.0,0.0,0.0,0.0,0.0,0.0,0.0,0.0,0.0,0.0,0.0,0.0,0.0,0.0,0.0,0.0,0.0,0.0,0.0,0.0,0.0,0.0,0.0,0.0,0.0,0.0,0.0,0.0,0.0,0.0,0.0,0.0,0.0,0.0,0.0,0.0,0.0,0.0,0.0,0.0,0.0,0.0,0.0,0.0,0.0,0.0,0.0,0.0,0.0,0.0,0.0,0.0,0.0,0.0,0.0,0.0,0.0,0.0,0.0,0.0,0.0,0.0,0.0,0.0606,-0.0999,-0.2069,-0.3063,-0.3932,-0.4351,-0.4853,0.0,0.0,0.0,0.0,0.0,0.0,0.0,0.0,0.0,0.0,0.0,0.0,0.0,0.0,0.0,0.0,0.0,0.0,0.0,0.0,0.0,0.0,0.0,0.0,0.0,0.0,0.0,0.0,0.0,0.0,0.0,0.0,0.0,0.0,0.0,0.0,0.0,0.0,0.0,0.0,0.0,0.0,0.0,0.0,0.0,0.0,0.0,0.0,0.0,0.0,0.0,0.0,0.0,0.0,0.0,0.0,0.0,0.0,0.0,0.0,0.0,0.0,0.0,0.0,0.0,0.0,0.0,0.0,0.0,0.0,0.0,0.0,0.0,0.0,0.0,0.0,0.0,0.0,0.0,0.0,0.0,0.0,0.0,0.0,0.0,0.0,0.0,0.0,0.0,0.0,0.0,0.0,0.0,0.0,0.0,0.0,0.0,0.0,0.0,0.0,0.0,0.0,0.0,0.0,0.0,0.0,0.0,0.0,0.0047,-0.1718,-0.2868,-0.3915,-0.4849,-0.5083,-0.5335,0.0,0.0,0.0,0.0,0.0,0.0,0.0,0.0,0.0,0.0,0.0,0.0,0.0,0.0,0.0,0.0,0.0,0.0,0.0,0.0,0.0,0.0,0.0,0.0,0.0,0.0,0.0,0.0,0.0,0.0,0.0,0.0,0.0,0.0,0.0,0.0,0.0,0.0,0.0,0.0,0.0,0.0,0.0,0.0,0.0,0.0,0.0,0.0,0.0,0.0,0.0,0.0,0.0,0.0,0.0,0.0,0.0,0.0,0.0,0.0,0.0,0.0,0.0,0.0,0.0,0.0,0.0,0.0,0.0,0.0,0.0,0.0,0.0,0.0,0.0,0.0,0.0,0.0,0.0,0.0,0.0,0.0,0.0,0.0,0.0,0.0,0.0,0.0,0.0,0.0,0.0,0.0,0.0,0.0,0.0,0.0,0.0,0.0,0.0,0.0,0.0,0.0,0.0,0.0,0.0,0.0,0.0,0.0,-0.0573,-0.1996,-0.3213,-0.4221,-0.4901,-0.5408,-0.578,0.0,0.0,0.0,0.0,0.0,0.0,0.0,0.0,0.0,0.0,0.0,0.0,0.0,0.0,0.0,0.0,0.0,0.0,0.0,0.0,0.0,0.0,0.0,0.0,0.0,0.0,0.0,0.0,0.0,0.0,0.0,0.0,0.0,0.0,0.0,0.0,0.0,0.0,0.0,0.0,0.0,0.0,0.0,0.0,0.0,0.0,0.0,0.0,-1.2335,0.0,0.0,0.0,0.0,0.0,0.0,0.0,0.0,0.0,0.0,0.0,0.0,0.0,0.0,0.0,0.0,0.0,0.0,0.0,0.0,0.0,0.0,0.0,0.0,0.0,0.0,0.0,0.0,0.0,0.0,0.0,0.0,0.0,0.0,0.0,0.0,0.0,0.0,0.0,0.0,0.0,0.0,0.0,0.0,0.0,0.0,0.0,0.0,0.0,0.0,0.0,0.0,0.0,0.0,0.0,0.0,0.0,0.0,0.0,-0.0866,-0.2401,-0.3593,-0.45,-0.5237,-0.5925,-0.6242,0.0,0.0,0.0,0.0,0.0,0.0,0.0,0.0,0.0,0.0,0.0,0.0,0.0,0.0,0.0,0.0,0.0,0.0,0.0,0.0,0.0,0.0,0.0,0.0,0.0,0.0,0.0,0.0,0.0,0.0,0.0,0.0,0.0,0.0,0.0,0.0,0.0,0.0,0.0,0.0,0.0,0.0,0.0,0.0,0.0,0.0,0.0,0.0,0.0,0.0,0.0,0.0,0.0,0.0,0.0,0.0,0.0,0.0,0.0,0.0,0.0,0.0,0.0,0.0,0.0,0.0,0.0,0.0,0.0,0.0,0.0,0.0,0.0,0.0,0.0,0.0,0.0,0.0,0.0,0.0,0.0,0.0,0.0,0.0,0.0,0.0,0.0,0.0,0.0,0.0,0.0,0.0,0.0,0.0,0.0,0.0,0.0,0.0,0.0,0.0,0.0,0.0,0.0,0.0,0.0,0.0,0.0,0.0236,-0.1156,-0.2854,-0.3947,-0.4894,-0.5661,-0.6414,-0.6542,-0.6062,0.0,0.0,0.0,0.0,0.0,0.0,0.0,0.0,0.0,0.0,0.0,0.0,0.0,0.0,0.0,0.0,0.0,0.0,0.0,0.0,0.0,0.0,0.0,0.0,0.0,0.0,0.0,0.0,0.0,0.0,0.0,0.0,0.0,0.0,0.0,0.0,0.0,0.0,0.7004,0.436,0.0,0.0,0.0,0.0,0.0,0.0,0.0,0.0,-1.3709,0.0,0.0,0.0,0.0,0.0,0.0,0.0,0.0,0.0,0.0,0.0,0.0,0.0,0.0,0.0,0.0,0.0,0.0,0.0,0.0,0.0,0.0,0.0,0.0,0.0,0.0,0.0,0.0,0.0,0.0,0.0,0.0,0.0,0.0,0.0,0.0,0.0,0.0,0.0,0.0,0.0,0.0,0.0,0.0,0.0,0.0,0.0,0.0,0.0,0.0,0.0,0.0,0.0,0.0,0.0,0.0,0.1088,-0.057,-0.2083,-0.3459,-0.4528,-0.5342,-0.5955,-0.6511,-0.6636,-0.6286,0.0,0.0,0.0,0.0,0.0,0.0,0.0,0.0,0.0,0.0,0.0,0.0,0.0,0.0,0.0,0.0,0.0,0.0,0.0,0.0,0.0,0.0,0.0,0.0,0.0,0.0,0.0,0.0,0.0,0.0,0.0,0.0,0.0,0.0,0.0,0.0,0.0,0.0,0.0,0.4344,0.2116,0.0,0.0,0.0,0.0,0.0,0.0,0.0,0.0,-1.5643,0.0,0.0,0.0,0.0,0.0,0.0,0.0,0.0,0.0,0.0,0.0,0.0,0.0,0.0,0.0,0.0,0.0,0.0,0.0,0.0,0.0,0.0,0.0,0.0,0.0,0.0,0.0,0.0,0.0,0.0,0.0,0.0,0.0,0.0,0.0,0.0,0.0,0.0,0.0,0.0,0.0,0.0,0.0,0.0,0.0,0.0,0.0,0.0,0.0,0.0,0.0,0.0,0.0,0.0,0.0,0.0569,-0.0913,-0.24,-0.3775,-0.4736,-0.5541,-0.6186,-0.6602,-0.6758,0.0,0.0,0.0,0.0,0.0,0.0,0.0,0.0,0.0,0.0,0.0,0.0,0.0,0.0,0.0,0.0,0.0,0.0,0.0,0.0,0.0,0.0,0.0,0.0,0.0,0.0,0.0,0.0,0.0,0.0,0.0,0.0,0.0,0.0,0.0,0.0,0.0,0.0,0.0,0.0,0.4052,0.2229,0.0982,0.0,0.0,0.0,0.0,0.0,0.0,-1.4764,-1.6005,0.0,0.0,0.0,0.0,0.0,0.0,0.0,0.0,0.0,0.0,0.0,0.0,0.0,0.0,0.0,0.0,0.0,0.0,0.0,0.0,0.0,0.0,0.0,0.0,0.0,0.0,0.0,0.0,0.0,0.0,0.0,0.0,0.0,0.0,0.0,0.0,0.0,0.0,0.0,0.0,0.0,0.0,0.0,0.0,0.0,0.0,0.0,0.0,0.0,0.0,0.0,0.0,0.0,0.0,0.0,0.0143,-0.1165,-0.2571,-0.4028,-0.4939,-0.5736,-0.6467,-0.6744,-0.688,0.0,0.0,0.0,0.0,0.0,0.0,0.0,0.0,0.0,0.0,0.0,0.0,0.0,0.0,0.0,0.0,0.0,0.0,0.0,0.0,0.0,0.0,0.0,0.0,0.0,0.0,0.0,0.0,0.0,0.0,0.0,0.0,0.0,0.0,0.0,0.0,0.0,0.0,0.0,0.0,0.0,0.1596,0.095,-0.2668,0.0,0.0,0.0,0.0,-1.4029,-1.5348,0.0,0.0,0.0,0.0,0.0,0.0,0.0,0.0,0.0,0.0,0.0,0.0,0.0,0.0,0.0,0.0,0.0,0.0,0.0,0.0,0.0,0.0,0.0,0.0,0.0,0.0,0.0,0.0,0.0,0.0,0.0,0.0,0.0,0.0,0.0,0.0,0.0,0.0,0.0,0.0,0.0,0.0,0.0,0.0,0.0,0.0,0.0,0.0,0.0,0.0,0.0,0.0,0.0,0.0,0.0,0.0,-0.0048,-0.1553,-0.2966,-0.4323,-0.5338,-0.6181,-0.6756,-0.7026,-0.706,0.0,0.0,0.0,0.0,0.0,0.0,0.0,0.0,0.0,0.0,0.0,0.0,0.0,0.0,0.0,0.0,0.0,0.0,0.0,0.0,0.0,0.0,0.0,0.0,0.0,0.0,0.0,0.0,0.0,0.0,0.0,0.0,0.0,0.0,0.0,0.0,0.0,0.0,0.0,0.0,0.0,-0.064,-0.1326,-0.4585,-0.7674,0.0,0.0,-1.3135,-1.4142,-1.6196,0.0,0.0,0.0,0.0,0.0,0.0,0.0,0.0,0.0,0.0,0.0,0.0,0.0,0.0,0.0,0.0,0.0,0.0,0.0,0.0,0.0,0.0,0.0,0.0,0.0,0.0,0.0,0.0,0.0,0.0,0.0,0.0,0.0,0.0,0.0,0.0,0.0,0.0,0.0,0.0,0.0,0.0,0.0,0.0,0.0,0.0,0.0,0.0,0.0,0.0,0.0,0.0,0.0,0.0,0.0,0.098,-0.0281,-0.1833,-0.3244,-0.4557,-0.5655,-0.6423,-0.68,-0.7073,-0.7142,0.0,0.0,0.0,0.0,0.0,0.0,0.0,0.0,0.0,0.0,0.0,0.0,0.0,0.0,0.0,0.0,0.0,0.0,0.0,0.0,0.0,0.0,0.0,0.0,0.0,0.0,0.0,0.0,0.0,0.0,0.0,0.0,0.0,0.0,0.0,0.0,0.0,0.0,0.0,0.0,0.0,0.0,-0.3494,-0.604,0.0,0.0,0.0,-1.4076,-1.5197,0.0,0.0,0.0,0.0,0.0,0.0,0.0,0.0,0.0,0.0,0.0,0.0,0.0,0.0,0.0,0.0,0.0,0.0,0.0,0.0,0.0,0.0,0.0,0.0,0.0,0.0,0.0,0.0,0.0,0.0,0.0,0.0,0.0,0.0,0.0,0.0,0.0,0.0,0.0,0.0,0.0,0.0,0.0,0.0,0.0,0.0,0.0,0.0,0.0,0.0,0.0,0.0,0.0,0.0,0.0,0.0,0.0,-0.0791,-0.2165,-0.363,-0.5076,-0.6093,-0.6683,-0.695,-0.7187,0.0,0.0,0.0,0.0,0.0,0.0,0.0,0.0,0.0,0.0,0.0,0.0,0.0,0.0,0.0,0.0,0.0,0.0,0.0,0.0,0.0,0.0,0.0,0.0,0.0,0.0,0.0,0.0459,0.0,0.0,0.0,0.0,0.0,0.0,0.0,0.0,0.0,0.0,0.0,0.0,0.0,0.0,-0.372,-0.5667,-0.759,-0.9737,0.0,0.0,-1.4773,-1.6086,-1.7362,-1.8403,0.0,0.0,0.0,0.0,0.0,0.0,0.0,0.0,0.0,0.0,0.0,0.0,0.0,0.0,0.0,0.0,0.0,0.0,0.0,0.0,0.0,0.0,0.0,0.0,0.0,0.0,0.0,0.0,0.0,0.0,0.0,0.0,0.0,0.0,0.0,0.0,0.0,0.0,0.0,0.0,0.0,0.0,0.0,0.0,0.0,0.0,0.0,0.0,0.0,0.0,0.0,0.0,0.0,0.0,0.0,-0.194,-0.276,-0.4192,-0.6218,-0.683,-0.722,-0.7372,-0.7482,-0.7522,0.0,0.0,0.0,0.0,0.0,0.0,0.0,0.0,0.0,0.0,0.0,0.0,0.0,0.0,0.0,0.0,0.0,0.0,0.0,0.0,0.0,0.0,0.0,0.0,0.0,0.0,0.0,0.0,0.0,0.0,0.0,0.0,0.0,0.0,0.0,0.0,0.0,0.0,0.0,0.0,0.0,-0.5974,-0.7888,-0.9587,-1.129,0.0,-1.3919,-1.4826,-1.6334,-1.7776,-1.8835,-1.9055,0.0,0.0,0.0,0.0,0.0,0.0,0.0,0.0,0.0,0.0,0.0,0.0,0.0,0.0,0.0,0.0,0.0,0.0,0.0,0.0,0.0,0.0,0.0,0.0,0.0,0.0,0.0,0.0,0.0,0.0,0.0,0.0,0.0,0.0,0.0,0.0,0.0,0.0,0.0,0.0,0.0,0.0,0.0,0.0,0.0,0.0,0.0,0.0,0.0,0.0,0.0,0.0,0.0,-0.0087,-0.2067,-0.3006,-0.4338,-0.6125,-0.7005,-0.7427,-0.7385,-0.7536,-0.7529,0.0,0.0,0.0,0.0,0.0,0.0,0.0,0.0,0.0,0.0,0.0,0.0,0.0,0.0,0.0,0.0,0.0,0.0,0.0,0.0,0.0,0.0,0.0,0.0,0.0,0.0,0.0,0.0,-0.07,-0.0902,-0.0275,0.0,0.0,0.0,0.0,0.0,0.0,0.0,0.0,0.0,0.0,-0.81,-0.8791,-1.0847,0.0,0.0,-1.4382,-1.5471,-1.6795,-1.7838,-1.8734,-1.9484,-2.0129,0.0,0.0,0.0,0.0,0.0,0.0,0.0,0.0,0.0,0.0,0.0,0.0,0.0,0.0,0.0,0.0,0.0,0.0,0.0,0.0,0.0,0.0,0.0,0.0,0.0,0.0,0.0,0.0,0.0,0.0,0.0,0.0,0.0,0.0,0.0,0.0,0.0,0.0,0.0,0.0,0.0,0.0,0.0,0.0,0.0,0.0,0.0,0.0,0.0,0.0,0.0,0.0,-0.0341,-0.2492,-0.3325,-0.4666,-0.6566,-0.7324,-0.7694,-0.7589,-0.7644,-0.7594,0.0,0.0,0.0,0.0,0.0,0.0,0.0,0.0,0.0,0.0,0.0,0.0,0.0,0.0,0.0,0.0,0.0,0.0,0.0,0.0,0.0,0.0,0.0,0.0,0.0,0.0,0.0,0.0,-0.1397,-0.1568,-0.0785,0.0,0.0,0.0,0.0,0.0,0.0,0.0,0.0,0.0,0.0,-1.0066,-1.0565,-1.2221,-1.3582,-1.4124,-1.4919,-1.5886,-1.7148,-1.7807,-1.8564,-1.9696,0.0,0.0,0.0,0.0,0.0,0.0,0.0,0.0,0.0,0.0,0.0,0.0,0.0,0.0,0.0,0.0,0.0,0.0,0.0,0.0,0.0,0.0,0.0,0.0,0.0,0.0,0.0,0.6805,0.0,0.0,0.6313,0.0,0.0,0.0,0.0,0.0,0.0,0.0,0.0,0.0,0.0,0.0,0.0,0.0,0.0,0.0,0.0,0.0,0.0,0.0,0.0,0.0,0.0,-0.0901,-0.3298,-0.3762,-0.5215,-0.7649,-0.7907,-0.7978,-0.7975,-0.7882,-0.7736,-0.7587,0.0,0.0,0.0,0.0,0.0,0.0,0.0,0.0,0.0,0.0,0.0,0.0,0.0,0.0,0.0,0.0,0.0,0.0,0.0,0.0,0.0,0.0,0.0,0.0,0.0,0.0,-0.2118,-0.1998,-0.1841,0.0,0.0,0.0,0.0,0.0,0.0,0.0,0.0,0.0,-0.8559,-1.0118,-1.1833,-1.3488,-1.3748,-1.4215,-1.5532,-1.5504,-1.5839,-1.7358,-1.7717,-1.8277,0.0,0.0,0.0,0.0,0.0,0.0,0.0,0.0,0.0,0.0,0.0,0.0,0.0,0.0,0.0,0.0,0.0,0.0,0.0,0.0,0.0,0.0,0.0,0.0,0.0,0.0,0.0,0.755,0.6984,0.0,0.0,0.0,0.0,0.0,0.0,0.0,0.0,0.0,0.0,0.0,0.1783,0.1465,0.0,0.0,0.0,0.0,0.0,0.0,0.0,0.0,0.0,0.0,0.0,0.0,-0.1023,-0.354,-0.3781,-0.5073,-0.757,-0.7719,-0.7794,-0.7882,-0.7746,-0.7553,-0.7299,0.0,0.0,0.0,0.0,0.0,0.0,0.0,0.0,0.0,0.0,0.0,0.0,0.0,0.0,0.0,0.0,0.0,0.0,0.0,0.0,0.0,0.0,0.0,0.0,0.0,-0.2803,0.0,0.0,0.0,0.0,0.0,0.0,0.0,0.0,0.0,0.0,-0.7486,-0.8876,-1.0323,-1.213,-1.3403,-1.3824,-1.4593,-1.5249,0.0,0.0,0.0,0.0,0.0,0.0,0.0,0.0,0.0,0.0,0.0,0.0,0.0,0.0,-2.4525,-2.3595,-2.4524,-2.5602,-2.597,0.0,0.0,0.0,0.0,0.0,0.0,0.0,0.0,0.0,0.0,0.0,0.0,0.0,0.0,0.8495,0.7994,0.7193,0.0,0.0,0.0,0.0,0.0,0.0,0.0,0.0,0.3477,0.2499,0.1167,0.1307,0.102,0.0,0.0446,0.0605,0.0,0.0,0.0,0.0,0.0,0.0,0.0,0.0,-0.11,-0.3598,-0.3774,-0.5005,-0.7423,-0.7573,-0.7641,-0.7733,-0.7648,-0.7458,-0.7105,-0.6953,-0.6319,0.0,0.0,0.0,0.0,0.0,0.0,0.0,0.0,0.0,0.0,0.0,0.0,0.0,0.0,0.0,0.0,0.0,0.0,0.0,0.0,0.0,0.0,0.0,-0.3946,0.0,0.0,0.0,0.0,0.0,0.0,0.0,0.0,0.0,-0.8305,-0.9631,-1.101,-1.2146,-1.3773,-1.474,-1.4438,0.0,0.0,0.0,0.0,0.0,0.0,0.0,-1.8162,-1.9227,-2.0285,-2.16,-2.3527,-2.4876,-2.5877,-2.6434,0.0,0.0,-2.5559,-2.6221,-2.7211,-2.7752,-2.8647,-2.9476,-3.003,-3.0258,-3.0364,0.0,0.0,0.0,0.0,0.0,0.0,0.0,0.0,1.056,0.9789,0.0,0.794,0.0,0.0,0.0,0.0,0.6159,0.547,0.0,0.0,0.3724,0.264,0.0944,0.1574,0.1258,0.0135,0.0135,0.0089,0.013,0.0408,0.0,0.0,0.0,0.0,0.0,0.0,-0.1177,-0.3455,-0.3662,-0.492,-0.7236,-0.7416,-0.7537,-0.7594,-0.759,-0.7451,-0.7122,-0.7041,-0.6282,-0.468,-0.4534,0.0,0.0,0.0,0.0,0.0,0.0,0.0,0.0,0.0,0.0,0.0,0.0,0.0,0.0,0.0,0.0,0.0,0.0,0.0,0.0,-0.4131,0.0,0.0,0.0,0.0,0.0,0.0,0.0,0.0,0.0,-0.9275,-0.9826,-1.2019,-1.3788,-1.4021,0.0,0.0,0.0,0.0,-1.5291,-1.5075,-1.5112,-1.5433,-1.6085,-1.7349,-1.8537,-1.9379,0.0,0.0,-2.4738,-2.507,-2.5631,-2.7109,-2.7925,-2.8109,-2.722,-2.7017,-2.7297,-2.8304,-2.8898,-2.9528,-3.0534,-3.0935,-3.1176,1.3965,0.0,0.0,0.0,0.0,1.315,1.2928,1.2672,1.2016,1.0968,0.974,0.9018,0.0,0.0,0.0,0.0,0.0,0.0,0.5457,0.466,0.4418,0.3776,0.2753,0.2988,0.2895,0.2519,0.168,0.1305,0.1222,0.0512,0.0164,0.0163,0.0,0.0,0.0,0.0,-0.0811,-0.2327,-0.2416,-0.3587,-0.6079,-0.6074,-0.65,-0.7434,-0.7484,-0.7397,-0.7305,-0.6251,-0.5322,-0.4547,-0.346,0.0,0.0,0.0,0.0,0.0,0.0,0.0,0.0,0.0,0.0,0.0,0.0,0.0,0.0,0.0,0.0,0.0,0.0,0.0,-0.3964,-0.5224,-0.586,0.0,0.0,0.0,0.0,0.0,0.0,0.0,0.0,0.0,-1.2434,-1.2865,-1.3585,0.0,0.0,-1.5411,-1.513,-1.5135,-1.5176,-1.5257,-1.5116,0.0,-1.5892,-1.688,-1.7826,-1.8556,-2.0912,-2.314,-2.4525,-2.5889,-2.7159,-2.8225,-2.8637,-2.8637,-2.8475,-2.8918,-2.924,-2.9354,-3.0301,-3.1306,-3.1722,-3.2259,-3.2606,1.5191,1.4582,1.4087,1.4016,1.4201,1.4207,1.4121,1.392,1.324,1.2382,1.1397,0.9997,0.9005,0.8253,0.7379,0.0,0.0,0.0,0.5645,0.5139,0.5008,0.4445,0.3658,0.4079,0.4077,0.3608,0.2849,0.2518,0.2504,0.1307,0.0719,0.0668,0.0,0.0,0.0,0.0,-0.0647,-0.1854,-0.1827,-0.2788,-0.4727,-0.5124,-0.57,-0.659,-0.7053,-0.705,-0.6596,-0.5774,-0.471,-0.3464,-0.2637,-0.176,0.0,0.0,0.0,0.0,0.0,0.0,0.0,0.0,0.0,0.0,0.0,0.1884,0.1688,0.0,0.0,0.0,-0.1718,-0.3454,-0.4538,-0.5646,0.0,0.0,0.0,0.0,0.0,0.0,0.0,-1.0911,-1.2141,-1.3131,-1.3567,-1.3501,-1.3929,-1.5199,-1.5398,-1.5251,-1.4843,0.0,-1.481,-1.487,-1.4794,-1.4876,-1.5345,-1.671,-1.8123,-1.953,-2.12,-2.2856,-2.3979,-2.5488,-2.6739,-2.753,-2.8176,-2.8461,-2.8034,-2.8618,-2.9194,-2.9153,-3.0004,-3.0881,-3.1253,-3.1781,-3.2053,1.6079,1.5731,1.4786,1.4721,1.514,1.5147,1.5398,1.5663,1.4403,1.3906,1.3724,1.1044,0.9734,0.9535,0.7952,0.0,0.6863,0.5975,0.5536,0.5536,0.5536,0.4954,0.3926,0.5045,0.4954,0.3883,0.3794,0.3749,0.3657,0.241,0.1782,0.1781,0.0598,0.0,0.0,0.0,-0.0566,-0.1652,-0.1641,-0.2236,-0.3436,-0.4465,-0.5078,-0.5267,-0.629,-0.6337,-0.5317,-0.5277,-0.4242,-0.1954,-0.1868,-0.1413,-0.0367,0.0,0.0,0.0,0.0,0.0,0.0,0.0,0.0,0.0,0.0,0.0,0.0,0.0,0.0,-0.1137,-0.3434,0.0,-0.4429,-0.5698,0.0,0.0,0.0,-0.8375,-0.9023,-1.0245,-1.1441,-1.2334,0.0,0.0,-1.3685,-1.3985,-1.4463,-1.5178,-1.5291,-1.5084,-1.4529,-1.4372,-1.4335,-1.4202,-1.425,-1.4433,-1.4768,-1.6643,-1.8859,-2.1034,-2.1777,-2.2169,-2.3194,-2.4296,-2.5108,-2.5739,-2.6968,-2.7657,-2.6612,-2.6873,-2.7313,-2.8012,-2.8383,-2.8839,-2.9558,-2.9767,-2.9983,1.5899,1.5764,1.5537,1.5524,1.5631,1.5631,1.5718,1.5771,1.5461,1.4641,1.3473,1.267,1.1105,0.9081,0.8648,0.795,0.7048,0.6814,0.6694,0.6694,0.6694,0.6517,0.629,0.6561,0.6558,0.6245,0.5401,0.4956,0.4865,0.2846,0.1821,0.1732,0.0576,0.0,0.0,0.0,-0.0132,-0.0401,-0.0448,-0.1031,-0.2191,-0.3375,-0.3949,-0.4014,-0.4281,-0.4283,-0.4016,-0.3142,-0.2449,-0.1822,-0.0978,-0.0375,-0.0081,0.008,0.0,0.0,0.0,0.0,0.0,0.0,0.0,0.0,0.0,0.0511,0.0236,0.0,-0.106,0.0,-0.3434,-0.5071,-0.6003,-0.644,0.0,0.0,-0.7237,-0.8119,-0.9592,-1.0496,-1.152,-1.2802,-1.344,-1.3828,-1.4043,-1.4111,-1.4193,-1.4382,-1.4396,-1.4269,-1.386,-1.362,-1.3748,-1.4222,-1.4057,-1.3991,-1.461,-1.6213,-1.8305,-2.0534,-2.0928,-2.1252,-2.2171,-2.3531,-2.4604,-2.5157,-2.6121,-2.6518,-2.5925,-2.5611,-2.5501,-2.5726,-2.6531,-2.7372,-2.7616,-2.7803,-2.7991,1.5825,1.5825,1.5825,1.5825,1.5825,1.5825,1.5825,1.5825,1.5825,1.5228,1.4229,1.3381,1.1788,0.9671,0.9152,0.854,0.7885,0.736,0.7095,0.7095,0.7095,0.7095,0.7095,0.7095,0.7095,0.7095,0.6473,0.616,0.6062,0.4206,0.3054,0.26,0.1344,0.0475,0.0,0.0,0.0,0.0,0.0,-0.0359,-0.0986,-0.2127,-0.2743,-0.2812,-0.323,-0.3273,-0.2814,-0.2171,-0.1493,-0.0868,-0.0253,0.0206,0.0407,0.0517,0.0629,0.0,0.0,0.0,0.0,0.0,0.0,0.0,0.0,0.0,0.0,0.0,-0.2239,-0.3268,-0.4608,-0.5757,-0.6516,-0.66,-0.6665,-0.6854,-0.7435,-0.8404,-1.0011,-1.1005,-1.2097,-1.3421,-1.3717,-1.3906,-1.3932,-1.3904,-1.3781,-1.3534,-1.3607,-1.3641,-1.348,-1.3267,-1.34,-1.3834,-1.362,-1.3891,-1.501,-1.6314,-1.7842,-1.9793,-2.0283,-2.0493,-2.0994,-2.1988,-2.2761,-2.285,-2.4068,-2.4976,-2.4448,-2.4643,-2.4788,-2.4865,-2.5218,-2.5652,-2.5929,-2.6075,-2.6197,1.592,1.6015,1.5872,1.5825,1.5825,1.5825,1.5825,1.5825,1.5825,1.5665,1.5311,1.3716,1.2194,1.0829,0.9806,0.9235,0.9061,0.7863,0.7295,0.7316,0.7166,0.7078,0.7095,0.7095,0.7095,0.7095,0.7095,0.7085,0.7017,0.5732,0.4662,0.3744,0.2327,0.1122,0.0259,0.0088,0.0,0.0,0.0,0.0,0.0,-0.0924,-0.145,-0.1609,-0.2417,-0.2459,-0.1609,-0.1583,-0.1,0.0216,0.0376,0.057,0.1012,0.1112,0.1217,0.0,0.1178,0.0,0.0,0.0,0.0,0.0,0.0,0.0,0.0,-0.1524,-0.3306,-0.519,-0.6012,-0.6441,-0.6407,-0.6481,-0.6556,-0.6723,-0.7593,-0.8754,-1.017,-1.1332,-1.253,-1.3842,-1.37,-1.3547,-1.3553,-1.352,-1.3313,-1.2951,-1.2966,-1.308,-1.3086,-1.306,-1.3093,-1.3173,-1.3206,-1.3873,-1.5652,-1.6486,-1.7484,-1.9316,-1.9844,-1.9834,-1.9862,-2.0457,-2.0674,-2.0342,-2.1868,-2.3074,-2.265,-2.351,-2.4256,-2.4411,-2.4129,-2.401,-2.4576,-2.4677,-2.4575,1.6393,1.7232,1.6251,1.5825,1.5825,1.5825,1.5825,1.5825,1.5825,1.5671,1.5357,1.4542,1.3492,1.2365,1.1899,1.1166,1.0216,0.8983,0.8441,0.8536,0.7451,0.6987,0.7092,0.7095,0.7095,0.7095,0.7095,0.7038,0.6927,0.5692,0.4949,0.4597,0.2634,0.1494,0.1278,0.0,0.0,0.0,0.0,0.0,0.0,-0.0179,-0.0313,-0.0359,-0.0537,0.0,-0.0359,-0.0313,-0.0132,0.0255,0.0588,0.0,0.0,0.0,0.0,0.0,0.0,0.0,0.0,0.0,0.0,0.0,0.0039,-0.004,-0.0282,-0.1944,-0.3346,-0.4291,-0.5542,-0.6327,-0.6472,-0.6603,-0.6668,-0.6695,-0.6902,-0.781,-0.9719,-1.0208,-1.1096,-1.3126,-1.3327,-1.3293,-1.3253,-1.308,-1.2924,-1.2842,-1.263,-1.2478,-1.2492,-1.2512,-1.2665,-1.3093,-1.316,-1.3913,-1.5885,-1.6269,-1.7058,-1.8823,-1.9404,-1.9404,-1.9468,-2.015,-2.0551,-1.9986,-2.0951,-2.1868,-2.1981,-2.1724,-2.1948,-2.3133,-2.2813,-2.2681,-2.386,-2.3747,-2.3421,1.7987,1.8495,1.7902,1.7304,0.0,1.6763,1.6393,1.5825,1.5678,1.5371,1.4937,1.4496,1.3995,1.3404,1.2649,1.198,1.1375,1.019,0.9647,0.9696,0.8396,0.7853,0.7969,0.7287,0.7028,0.7092,0.7024,0.6953,0.6883,0.6179,0.5496,0.4905,0.3705,0.2876,0.2312,0.1328,0.051,0.0,0.0,0.0,0.0,0.0,0.0,0.0,0.0,0.0,0.0,0.0,0.0,0.0,0.0,0.0,0.0,0.3013,0.0,0.3104,0.2525,0.1883,0.1138,0.051,0.0079,0.0,0.0,-0.0281,-0.0973,-0.2327,-0.3519,-0.4525,-0.5666,-0.6428,-0.658,-0.659,-0.6586,-0.6586,-0.6586,-0.7267,-0.8796,-0.9555,-1.0549,-1.2129,-1.2792,-1.3033,-1.3186,-1.2978,-1.2797,-1.2777,-1.2663,-1.2458,-1.2338,-1.2305,-1.2445,-1.2719,-1.2759,-1.3454,-1.5245,-1.5902,-1.6678,-1.8432,-1.8965,-1.8975,-1.8975,-1.9203,-1.931,-1.9097,-1.9746,-2.0435,-2.0572,-2.0558,-2.0878,-2.1635,-2.1865,-2.2073,-2.2842,-2.3021,-2.3095,1.9633,1.9807,1.9579,1.8948,1.8002,1.8002,1.7282,1.6007,1.5584,0.0,0.0,1.4295,1.4162,1.4077,1.3052,1.2638,1.2541,1.1342,1.0814,1.0754,0.9526,0.8849,0.8694,0.7698,0.7146,0.7011,0.6903,0.6871,0.6795,0.6593,0.6054,0.5223,0.4852,0.4189,0.3155,0.237,0.1516,0.0674,0.0438,0.0444,0.0612,0.0622,0.0623,0.0612,0.061,0.0608,0.0608,0.0598,0.068,0.0858,0.1789,0.2542,0.3101,0.3918,0.4381,0.4336,0.3285,0.2429,0.1881,0.0863,0.0196,0.0,0.0,-0.0405,-0.1417,-0.2308,-0.3347,-0.4656,-0.5606,-0.6281,-0.6566,-0.6512,-0.6474,-0.6477,-0.6477,-0.6907,-0.8015,-0.9116,-1.0245,-1.1366,-1.2171,-1.2744,-1.2966,-1.2692,-1.2576,-1.261,-1.2563,-1.2583,-1.2358,-1.2305,-1.2318,-1.2358,-1.2385,-1.2936,-1.4461,-1.5366,-1.6354,-1.7828,-1.834,-1.849,-1.8442,-1.8252,-1.8037,-1.8115,-1.862,-1.9088,-1.9309,-1.9716,-2.0268,-2.0526,-2.1005,-2.1553,-2.1877,-2.2414,-2.2884,2.0116,2.098,1.9943,1.9405,1.9222,1.9214,1.8407,1.6963,1.5858,1.5256,1.4928,1.4589,1.4456,1.4406,1.4018,1.3822,1.3747,1.2222,1.1595,1.1649,1.0336,0.9233,0.833,0.8379,0.7827,0.6808,0.6742,0.6664,0.6586,0.6535,0.6374,0.6028,0.5165,0.427,0.3445,0.3337,0.3248,0.3064,0.2063,0.206,0.3067,0.3075,0.3121,0.3065,0.2884,0.2859,0.2946,0.2891,0.2929,0.2994,0.3602,0.4181,0.4631,0.5107,0.5171,0.4711,0.4462,0.3556,0.1803,0.145,0.098,0.0,0.0,-0.008,-0.0284,-0.1214,-0.2246,-0.3322,-0.4367,-0.5347,-0.6198,-0.6308,-0.633,-0.6334,-0.633,-0.6751,-0.7756,-0.8774,-0.9795,-1.0854,-1.1573,-1.2161,-1.2358,-1.1997,-1.1784,-1.1986,-1.212,-1.2114,-1.2238,-1.2305,-1.2305,-1.2305,-1.2305,-1.2769,-1.3818,-1.4732,-1.5654,-1.6683,-1.758,-1.8042,-1.8144,-1.8047,-1.7978,-1.8008,-1.8138,-1.8465,-1.9067,-1.8721,-1.911,-2.0042,-2.0139,-2.0236,-2.1428,-2.1939,-2.231,2.1765,2.2173,2.1676,2.1078,2.044,1.9761,1.8852,1.7837,1.7262,1.6168,1.4747,1.4416,1.4282,1.4269,1.4148,1.4088,1.4068,1.3136,1.2763,1.2716,1.1301,1.0391,0.9898,0.8878,0.8029,0.7506,0.6855,0.6542,0.6511,0.6436,0.6364,0.6264,0.5789,0.5418,0.5095,0.4545,0.4669,0.5331,0.3656,0.3034,0.3601,0.3593,0.3597,0.3601,0.3397,0.3379,0.3506,0.3342,0.3263,0.3318,0.4099,0.4668,0.4955,0.5592,0.5902,0.5683,0.5073,0.4023,0.2503,0.1371,0.051,0.0,0.0,0.0,0.0,-0.0996,-0.1783,-0.231,-0.3669,-0.4816,-0.5381,-0.5835,-0.6169,-0.6289,-0.63,-0.6718,-0.771,-0.8689,-0.9712,-1.0654,-1.1446,-1.1924,-1.2087,-1.169,-1.1543,-1.1839,-1.1899,-1.196,-1.2074,-1.1931,-1.1915,-1.2231,-1.2305,-1.2696,-1.3528,-1.4027,-1.4977,-1.6349,-1.6922,-1.7432,-1.7808,-1.7861,-1.7783,-1.793,-1.7842,-1.7951,-1.8526,-1.8303,-1.8462,-1.8811,-1.9365,-1.9726,-2.0365,-2.1164,-2.2156,2.3101,2.3101,2.3101,2.2545,2.1614,2.0719,1.9794,1.8937,1.8836,1.7482,1.5383,1.4704,1.4454,1.4454,1.4208,1.4088,1.4035,1.3714,1.35,1.3366,1.2159,1.1498,1.1213,0.9503,0.8617,0.8381,0.7545,0.7011,0.6803,0.6698,0.6528,0.6342,0.633,0.6402,0.6471,0.5725,0.5844,0.6701,0.5218,0.4364,0.4363,0.4383,0.4374,0.4331,0.4196,0.4128,0.4255,0.3998,0.3897,0.4006,0.4688,0.513,0.5227,0.5909,0.6347,0.636,0.5605,0.4491,0.3161,0.1363,0.0195,0.0,0.0,0.0,0.0,-0.0745,-0.1372,-0.172,-0.3137,-0.4254,-0.4729,-0.5457,-0.6027,-0.618,-0.6193,-0.6503,-0.7343,-0.8509,-0.9561,-1.0392,-1.1301,-1.1926,-1.1919,-1.159,-1.1416,-1.1618,-1.1705,-1.1725,-1.1717,-1.1557,-1.1615,-1.1915,-1.2158,-1.2487,-1.3252,-1.36,-1.4375,-1.5939,-1.631,-1.6804,-1.7365,-1.7471,-1.7543,-1.7754,-1.7715,-1.7748,-1.7949,-1.8008,-1.8042,-1.8236,-1.8563,-1.9044,-1.9431,-2.0782,-2.2094,2.3101,2.3101,2.3101,2.3047,2.2843,2.2721,2.1814,2.053,2.0198,1.9099,1.7443,1.6137,1.5587,1.5421,1.4538,1.4124,1.4084,1.3507,1.3267,1.3233,1.2828,1.2031,1.1,1.0847,1.0308,0.9311,0.9047,0.8435,0.7709,0.768,0.7215,0.6391,0.6429,0.6531,0.6538,0.6652,0.67,0.6729,0.6655,0.6653,0.676,0.6776,0.6718,0.6629,0.6441,0.635,0.6097,0.62,0.6102,0.6064,0.6185,0.6258,0.6159,0.6271,0.6303,0.632,0.6187,0.5276,0.3311,0.1915,0.0804,0.0,0.0,0.0,0.0,0.0,-0.0588,-0.1484,-0.2451,-0.3438,-0.441,-0.5252,-0.5775,-0.5881,-0.5979,-0.6088,-0.6548,-0.8016,-0.9334,-0.941,-1.0985,-1.1993,-1.2064,-1.1563,-1.1109,-1.1196,-1.1196,-1.1283,-1.1416,-1.139,-1.1335,-1.153,-1.1717,-1.202,-1.2462,-1.32,-1.3836,-1.4614,-1.541,-1.6127,-1.671,-1.7207,-1.7445,-1.7519,-1.7715,-1.7861,-1.7959,-1.8008,-1.8008,-1.8008,-1.8202,-1.8405,-1.9233,-2.0611,-2.1959,2.3101,2.3101,2.3101,2.2955,2.2769,2.2984,2.2433,2.1447,2.1504,2.0922,1.9743,1.8538,1.7491,1.6568,1.4859,1.4412,1.4942,1.3926,1.3327,1.3193,1.2924,1.2396,1.1732,1.1158,1.0663,1.0158,0.9599,0.9112,0.8765,0.8694,0.8466,0.8127,0.8125,0.79,0.7462,0.7477,0.7278,0.6747,0.6759,0.682,0.6871,0.6881,0.6856,0.6902,0.6695,0.6586,0.6586,0.6484,0.6399,0.6419,0.6402,0.6361,0.6303,0.63,0.63,0.6254,0.5628,0.4787,0.3782,0.2218,0.1138,0.0767,0.0272,0.0,0.0,0.0,-0.0236,-0.0665,-0.1457,-0.2414,-0.346,-0.4347,-0.5114,-0.5663,-0.5861,-0.6292,-0.7479,-0.83,-0.9306,-1.0597,-1.1288,-1.1717,-1.1904,-1.159,-1.1276,-1.1223,-1.1116,-1.1049,-1.1149,-1.1029,-1.1002,-1.1142,-1.1283,-1.1463,-1.1765,-1.2031,-1.2888,-1.3916,-1.4563,-1.5138,-1.6373,-1.6804,-1.7061,-1.7305,-1.751,-1.7744,-1.7978,-1.7998,-1.8008,-1.8008,-1.8042,-1.8269,-1.9144,-2.0268,-2.1322,2.3101,2.3101,2.3101,2.2857,2.2559,2.2916,2.2656,2.2002,2.2324,2.2058,2.1314,2.0249,1.9276,1.816,1.6004,1.5304,1.5542,1.4568,1.377,1.334,1.3052,1.2759,1.2483,1.1816,1.1468,1.1354,1.0757,1.0226,0.985,0.9392,0.9296,0.9296,0.9296,0.899,0.8429,0.8404,0.7967,0.709,0.7015,0.6921,0.6716,0.6603,0.6651,0.6766,0.659,0.6549,0.6569,0.6373,0.6347,0.6443,0.6354,0.63,0.63,0.63,0.6279,0.6151,0.5367,0.4659,0.4215,0.2825,0.1927,0.1644,0.0876,0.0346,0.0308,0.0155,0.0,0.0,-0.0577,-0.1449,-0.2786,-0.3919,-0.4923,-0.5635,-0.5742,-0.6376,-0.7491,-0.8124,-0.9195,-1.0685,-1.1112,-1.1456,-1.1563,-1.1416,-1.1243,-1.1122,-1.0982,-1.0908,-1.0888,-1.074,-1.0693,-1.0868,-1.0875,-1.1042,-1.1336,-1.1511,-1.2171,-1.2981,-1.3696,-1.4451,-1.5801,-1.6146,-1.6572,-1.6789,-1.7031,-1.7334,-1.7646,-1.7783,-1.7891,-1.7969,-1.8022,-1.8138,-1.8687,-1.9661,-2.0494,2.3101,2.3101,2.3101,2.2847,2.2539,2.2896,2.2666,2.1914,2.2334,2.2256,2.1722,2.0722,2.0467,2.0673,1.8207,1.6642,1.5816,1.5382,1.4629,1.3689,1.3313,1.318,1.3173,1.3094,1.3068,1.2883,1.2759,1.218,1.1093,0.9981,0.9296,0.9377,0.949,0.9377,0.9276,0.9349,0.8897,0.791,0.7832,0.7465,0.6664,0.6434,0.6405,0.6608,0.6515,0.645,0.6351,0.6313,0.6306,0.6313,0.6306,0.63,0.63,0.63,0.62,0.6016,0.5828,0.5267,0.4411,0.3911,0.3441,0.268,0.1686,0.1207,0.1067,0.0413,0.0,0.0,-0.0154,-0.1004,-0.2646,-0.4104,-0.525,-0.5544,-0.5599,-0.5703,-0.5873,-0.7528,-0.8464,-0.913,-1.0343,-1.1083,-1.1056,-1.1022,-1.083,-1.0665,-1.0558,-1.0506,-1.0392,-1.0448,-1.0454,-1.0499,-1.0584,-1.0775,-1.1276,-1.1289,-1.1591,-1.236,-1.3148,-1.3708,-1.4439,-1.5153,-1.5763,-1.63,-1.6631,-1.6973,-1.7275,-1.7471,-1.7588,-1.7705,-1.7861,-1.8103,-1.8201,-1.8836,-1.9661,2.3101,2.3101,2.3101,2.2744,2.2187,2.2559,2.2412,2.1943,2.2334,2.2275,2.1892,2.1483,2.114,2.0752,1.9871,1.8829,1.7721,1.6263,1.5216,1.4603,1.3844,1.3387,1.3213,1.3206,1.3206,1.3206,1.3206,1.2956,1.2511,1.1838,1.1549,1.1512,1.129,1.095,1.0395,1.0311,0.9813,0.8822,0.8193,0.7686,0.7301,0.6669,0.6634,0.7254,0.6684,0.6354,0.63,0.63,0.63,0.63,0.6296,0.63,0.63,0.63,0.6231,0.604,0.5848,0.5581,0.5109,0.4421,0.3885,0.3505,0.212,0.1363,0.1172,0.0,0.0,0.0,-0.0685,-0.1416,-0.1992,-0.3101,-0.4265,-0.5319,-0.5539,-0.5679,-0.6238,-0.6986,-0.7639,-0.846,-0.9731,-1.0467,-1.0507,-1.0735,-1.0515,-0.9476,-0.9497,-0.9504,-0.9096,-0.8935,-0.9256,-0.9658,-0.9792,-1.004,-1.0788,-1.0894,-1.1132,-1.1885,-1.2617,-1.3397,-1.4141,-1.5153,-1.5874,-1.6074,-1.6367,-1.6611,-1.6914,-1.7051,-1.7178,-1.7194,-1.7402,-1.7607,-1.7607,-1.8387,-1.9073,2.3101,2.3101,2.3101,2.2701,2.2178,2.2529,2.2402,2.1973,2.2324,2.2275,2.1943,2.1885,2.1465,2.0869,2.0781,2.0361,1.9362,1.76,1.6466,1.5867,1.482,1.4143,1.3853,1.3507,1.326,1.32,1.31,1.3106,1.316,1.2931,1.279,1.2726,1.2576,1.2087,1.1409,1.1279,1.0795,0.982,0.9102,0.8651,0.8237,0.7629,0.7557,0.8089,0.7633,0.7249,0.7288,0.7156,0.7083,0.7079,0.7036,0.7028,0.7079,0.6915,0.6679,0.6481,0.603,0.5739,0.5572,0.4883,0.4475,0.4409,0.3087,0.2089,0.1777,0.0944,0.0369,-0.0074,-0.0596,-0.1167,-0.1587,-0.2021,-0.3033,-0.4752,-0.5311,-0.5624,-0.6203,-0.6531,-0.7212,-0.8097,-0.8902,-0.9338,-0.9457,-0.9786,-0.9422,-0.8351,-0.8636,-0.8554,-0.8156,-0.8285,-0.8581,-0.921,-0.9658,-1.0047,-1.0546,-1.0707,-1.0707,-1.1329,-1.2081,-1.2926,-1.3778,-1.4844,-1.5638,-1.5837,-1.6074,-1.6309,-1.6484,-1.6621,-1.6658,-1.6677,-1.6911,-1.7207,-1.7527,-1.8028,-1.8674,2.3178,2.3222,2.3135,2.2924,2.2529,2.2818,2.2627,2.208,2.2314,2.2227,2.1904,2.1906,2.1543,2.1181,2.1074,2.0908,2.0293,1.9274,1.8252,1.7236,1.6152,1.5542,1.5273,1.4358,1.3762,1.3483,1.3042,1.3062,1.3291,1.3044,1.2864,1.2797,1.2764,1.2559,1.2231,1.2114,1.1731,1.0938,1.0596,1.0185,0.941,0.9107,0.9107,0.9296,0.9221,0.9221,0.9296,0.8909,0.8641,0.8639,0.8442,0.8531,0.8497,0.8069,0.7685,0.7245,0.6422,0.5845,0.5606,0.543,0.5249,0.5122,0.4414,0.34,0.2688,0.1767,0.0881,0.0284,-0.0072,-0.0438,-0.1273,-0.1463,-0.2224,-0.3911,-0.4834,-0.5263,-0.5587,-0.6174,-0.7013,-0.7722,-0.806,-0.8009,-0.8037,-0.843,-0.8403,-0.8062,-0.8042,-0.7994,-0.7702,-0.8032,-0.8914,-0.9236,-0.9428,-0.9748,-1.0199,-1.0593,-1.0593,-1.0776,-1.1514,-1.2289,-1.3,-1.3935,-1.4814,-1.518,-1.5585,-1.5809,-1.6045,-1.6182,-1.6317,-1.6404,-1.6619,-1.6804,-1.7248,-1.77,-1.8187,2.4967,2.4296,2.4296,2.3549,2.2591,2.2666,2.2539,2.2295,2.2178,2.2002,2.1846,2.1562,2.1191,2.085,2.0771,2.0703,2.0566,2.0206,1.952,1.843,1.7334,1.6741,1.6557,1.6014,1.5544,1.5103,1.4631,1.4288,1.4059,1.3591,1.318,1.2864,1.2784,1.263,1.2325,1.2305,1.2114,1.1811,1.1124,1.0596,1.0265,0.9669,0.9636,1.0265,1.034,1.0608,1.1248,0.9932,0.9185,0.917,0.905,0.8933,0.88,0.8604,0.8134,0.7441,0.7061,0.6457,0.5821,0.5539,0.5395,0.5243,0.4526,0.3949,0.3466,0.2198,0.1255,0.0839,0.0389,-0.0179,-0.0505,-0.103,-0.2069,-0.3986,-0.4348,-0.4719,-0.5256,-0.5653,-0.6207,-0.6915,-0.7111,-0.734,-0.7929,-0.8323,-0.8161,-0.734,-0.754,-0.7605,-0.6634,-0.6732,-0.6892,-0.7405,-0.8215,-0.9294,-0.9748,-1.0206,-1.0428,-1.0586,-1.1195,-1.1741,-1.2412,-1.3031,-1.3876,-1.4688,-1.5079,-1.541,-1.5605,-1.5771,-1.5927,-1.5985,-1.6103,-1.6416,-1.6836,-1.7288,-1.7783,2.6099,2.542,2.4957,2.4513,2.3864,2.3153,2.2893,2.2978,2.2404,2.2041,2.1846,2.1611,2.123,2.0889,2.082,2.0762,2.0625,2.0615,2.0245,1.9481,1.847,1.788,1.7604,1.6746,1.6149,1.5632,1.4942,1.4743,1.4897,1.3888,1.3309,1.3282,1.2968,1.2636,1.2338,1.2305,1.2305,1.2187,1.1694,1.1354,1.1242,1.0757,1.072,1.1279,1.1354,1.1694,1.215,1.1025,1.0381,1.027,1.0248,1.0163,0.9938,0.9638,0.9088,0.8488,0.7615,0.6826,0.625,0.5725,0.5395,0.5279,0.4833,0.4332,0.3907,0.2763,0.2163,0.1307,0.0828,0.0348,0.0,-0.0454,-0.1551,-0.292,-0.3351,-0.3918,-0.4722,-0.5226,-0.5591,-0.6108,-0.6203,-0.6531,-0.7022,-0.7349,-0.7447,-0.6531,-0.6662,-0.6859,-0.5752,-0.5785,-0.6203,-0.6719,-0.76,-0.8549,-0.9236,-0.9722,-1.0174,-1.0548,-1.0951,-1.1406,-1.195,-1.2412,-1.3114,-1.4234,-1.4894,-1.5294,-1.5547,-1.5508,-1.5605,-1.5596,-1.5684,-1.5977,-1.6396,-1.6836,-1.731,2.6648,2.6431,2.5462,2.5566,2.6025,2.4265,2.3805,2.4085,2.3146,2.2476,2.22,2.1948,2.1602,2.1249,2.1122,2.0947,2.0664,2.0605,2.0566,2.0245,1.9541,1.8904,1.8448,1.7162,1.6336,1.5682,1.474,1.4718,1.5548,1.4154,1.3386,1.4074,1.3556,1.2849,1.2788,1.2519,1.2629,1.2519,1.2402,1.2335,1.2224,1.2187,1.215,1.2231,1.2187,1.2224,1.2231,1.2077,1.1995,1.1908,1.1673,1.1605,1.165,1.0952,1.0401,1.0056,0.8215,0.7397,0.6865,0.6158,0.5659,0.5666,0.544,0.506,0.4295,0.3861,0.3129,0.1918,0.1381,0.0909,0.0304,-0.0068,-0.054,-0.1208,-0.228,-0.3145,-0.3949,-0.4788,-0.5256,-0.5425,-0.5428,-0.5491,-0.5785,-0.5914,-0.5815,-0.5752,-0.5815,-0.5785,-0.5624,-0.5815,-0.6429,-0.685,-0.7149,-0.7697,-0.8355,-0.9332,-0.9786,-1.0104,-1.0541,-1.1076,-1.1492,-1.1927,-1.2535,-1.3657,-1.4569,-1.5021,-1.5323,-1.5264,-1.5323,-1.5478,-1.5576,-1.5703,-1.6026,-1.6484,-1.6836,2.845,2.7643,2.7348,2.6953,2.6472,2.5777,2.567,2.5692,2.4345,2.368,2.3371,2.2365,2.1711,2.1229,2.119,2.0996,2.0654,2.0586,2.0615,2.0566,2.0362,1.9918,1.9506,1.8767,1.8059,1.7517,1.6464,1.6188,1.628,1.5404,1.4995,1.4933,1.4791,1.4634,1.4497,1.4343,1.4019,1.3419,1.3346,1.2989,1.2445,1.2342,1.2305,1.2305,1.2305,1.2305,1.2305,1.2305,1.2278,1.2191,1.2007,1.1906,1.1884,1.1615,1.1062,1.0161,0.9603,0.8875,0.8102,0.7138,0.6607,0.6573,0.5984,0.541,0.5063,0.4384,0.3816,0.3045,0.221,0.124,0.0906,0.037,-0.0101,-0.0471,-0.1642,-0.2878,-0.368,-0.4184,-0.4586,-0.5226,-0.5362,-0.5653,-0.6009,-0.6203,-0.6203,-0.6203,-0.6141,-0.6009,-0.5686,-0.5557,-0.5976,-0.6075,-0.6338,-0.6854,-0.7567,-0.8646,-0.9332,-0.9588,-1.0072,-1.0681,-1.1108,-1.15,-1.2235,-1.3122,-1.3906,-1.4451,-1.4756,-1.4903,-1.5089,-1.5323,-1.5459,-1.5566,-1.588,-1.6281,-1.6475,2.9404,2.8767,2.8295,2.8016,2.777,2.6894,2.6719,2.6867,2.5771,2.4857,2.4336,2.3586,2.2398,2.1279,2.12,2.0762,2.0165,2.0243,2.0283,2.0361,2.0469,2.0264,1.9904,1.9619,1.9192,1.8531,1.7584,1.7168,1.6956,1.621,1.5727,1.5698,1.5549,1.5361,1.5117,1.5163,1.495,1.4414,1.4314,1.4027,1.3557,1.3091,1.2915,1.2813,1.2592,1.2305,1.2305,1.2305,1.2305,1.2265,1.2144,1.2051,1.2074,1.196,1.1536,1.0752,1.0381,0.9742,0.9095,0.8191,0.75,0.7061,0.6436,0.6017,0.5528,0.4898,0.4517,0.3846,0.2945,0.2177,0.1307,0.0538,0.0,0.0,-0.0941,-0.1944,-0.2778,-0.3547,-0.4151,-0.4722,-0.5156,-0.5524,-0.6141,-0.617,-0.617,-0.6108,-0.598,-0.5785,-0.5524,-0.5425,-0.5359,-0.5488,-0.5752,-0.6272,-0.6785,-0.7697,-0.8877,-0.9236,-0.9817,-1.0396,-1.08,-1.1195,-1.1779,-1.2512,-1.3213,-1.3786,-1.4115,-1.4481,-1.4903,-1.5118,-1.5264,-1.5478,-1.5752,-1.5987,-1.6182,2.9779,2.9714,2.8715,2.8858,2.9339,2.7758,2.7533,2.7976,2.7093,2.6127,2.5314,2.4925,2.3515,2.1528,2.1429,2.0625,1.9629,1.9922,1.999,2.0137,2.0303,2.0273,2.0078,1.9865,1.9465,1.8812,1.7848,1.7795,1.7731,1.651,1.6228,1.658,1.6096,1.5674,1.586,1.5702,1.5482,1.5367,1.534,1.5163,1.4775,1.4137,1.3763,1.3745,1.2989,1.2629,1.2519,1.2409,1.2305,1.2305,1.2305,1.2278,1.2251,1.2074,1.1897,1.1675,1.0953,1.0331,0.99,0.9317,0.8523,0.7748,0.7358,0.6757,0.6002,0.5535,0.5022,0.4384,0.4082,0.2978,0.1575,0.0572,0.0,0.0,0.0,-0.0437,-0.124,-0.2778,-0.3882,-0.4048,-0.4821,-0.5292,-0.5395,-0.5395,-0.5425,-0.5683,-0.5517,-0.5117,-0.4987,-0.4921,-0.4921,-0.502,-0.5352,-0.5719,-0.6203,-0.6752,-0.7962,-0.8909,-0.962,-1.0231,-1.0618,-1.1014,-1.1375,-1.1919,-1.2443,-1.2992,-1.3446,-1.3906,-1.451,-1.4932,-1.5108,-1.5294,-1.5478,-1.5703,-1.5928,2.9779,2.9779,2.9546,2.9573,2.9702,2.9287,2.9197,2.9275,2.8215,2.7515,2.7,2.5597,2.4315,2.3381,2.192,2.1005,2.0537,2.0145,2.0078,2.0429,2.0107,2.0254,2.0244,2.0078,1.9814,1.9448,1.9085,1.8901,1.8759,1.84,1.8254,1.7986,1.7678,1.7675,1.7298,1.7123,1.6975,1.6463,1.6315,1.5965,1.5387,1.4784,1.4531,1.4636,1.3867,1.3448,1.3237,1.2696,1.2305,1.2305,1.2305,1.2305,1.2285,1.2231,1.2098,1.1931,1.1737,1.1455,1.1237,1.0364,0.9705,0.945,0.8138,0.7001,0.6821,0.6025,0.5531,0.4989,0.4417,0.3347,0.1809,0.1207,0.0706,0.0,0.0,0.0,-0.0538,-0.1878,-0.308,-0.3915,-0.4719,-0.5395,-0.5395,-0.5395,-0.5359,-0.5292,-0.4921,-0.442,-0.4317,-0.4317,-0.4317,-0.4317,-0.4885,-0.5219,-0.5576,-0.6195,-0.7372,-0.8323,-0.9069,-0.9849,-1.0263,-1.0555,-1.0818,-1.1156,-1.1555,-1.2104,-1.2718,-1.3597,-1.4243,-1.4599,-1.4962,-1.5235,-1.5459,-1.5596,-1.5644,2.9779,2.9779,2.9779,2.9779,2.9779,2.9779,2.9779,2.9639,2.8889,2.8183,2.738,2.5687,2.4537,2.3798,2.2276,2.1302,2.0564,1.9728,1.9541,1.9814,1.9717,1.9873,2.0166,2.0059,1.9902,1.9873,1.967,1.9512,1.9307,1.9102,1.8692,1.8588,1.8442,1.8065,1.8047,1.8008,1.7716,1.7364,1.7251,1.6966,1.6531,1.5835,1.5076,1.4992,1.451,1.4277,1.3758,1.328,1.2912,1.2673,1.2444,1.2305,1.2305,1.2305,1.2211,1.2118,1.2107,1.202,1.1679,1.1368,1.0807,1.0308,0.9078,0.8349,0.7612,0.6704,0.6179,0.5837,0.5147,0.4048,0.2711,0.1574,0.1106,0.0706,0.0236,0.0,0.0,-0.1242,-0.2377,-0.328,-0.4115,-0.4821,-0.516,-0.5123,-0.4921,-0.4652,-0.445,-0.3982,-0.3413,-0.3413,-0.338,-0.358,-0.4251,-0.4716,-0.4981,-0.5701,-0.685,-0.7637,-0.8188,-0.9005,-0.9652,-0.9913,-1.0136,-1.0604,-1.1132,-1.1437,-1.2081,-1.2992,-1.3846,-1.4332,-1.4756,-1.5147,-1.543,-1.5478,-1.5498,2.9779,2.9779,2.9779,2.9779,2.9779,2.9779,2.9779,2.9716,2.9277,2.8568,2.7418,2.5977,2.509,2.3951,2.2794,2.1558,2.0357,1.9329,1.9209,1.9734,1.9336,1.9551,1.9834,1.9932,1.9844,1.9844,1.9961,1.9814,1.9531,1.9121,1.9102,1.8734,1.8412,1.8242,1.8086,1.8008,1.794,1.7862,1.7828,1.7828,1.7687,1.7002,1.6124,1.554,1.5296,1.515,1.4573,1.3983,1.3539,1.3312,1.2748,1.246,1.2384,1.2291,1.2305,1.2291,1.2265,1.2171,1.2037,1.1942,1.1513,1.023,0.9962,0.953,0.849,0.7564,0.6937,0.6387,0.5741,0.4855,0.4015,0.2609,0.1641,0.1141,0.0505,0.0,0.0,-0.0671,-0.1475,-0.2377,-0.3245,-0.3982,-0.4386,-0.4519,-0.4251,-0.4015,-0.378,-0.3413,-0.2811,-0.2477,-0.2477,-0.2711,-0.3347,-0.4115,-0.4447,-0.5216,-0.6363,-0.7079,-0.754,-0.8355,-0.9204,-0.9849,-1.0238,-1.0396,-1.0832,-1.1108,-1.15,-1.2235,-1.3053,-1.3846,-1.451,-1.4903,-1.5157,-1.5303,-1.5371,2.9779,2.9779,2.9779,2.9779,2.9779,2.9779,2.9779,2.9779,2.9641,2.9288,2.8485,2.7385,2.6385,2.5622,2.3991,2.2542,2.1246,2.0145,1.9703,1.9993,1.9521,1.9318,1.9814,1.9834,1.9727,1.9678,1.9951,2.0215,2.0254,2.0292,1.9639,1.9258,1.9014,1.8691,1.8144,1.8008,1.8008,1.8008,1.8008,1.8008,1.7881,1.7543,1.713,1.6607,1.6446,1.6215,1.5731,1.4592,1.3866,1.4117,1.3417,1.3075,1.2949,1.2651,1.2375,1.2305,1.2305,1.2251,1.2198,1.2044,1.1908,1.1362,1.0639,0.9971,0.9293,0.8508,0.7598,0.6692,0.5943,0.5057,0.4082,0.3078,0.2209,0.1441,0.0,0.0,0.0,-0.0236,-0.0638,-0.1475,-0.231,-0.308,-0.3513,-0.3682,-0.338,-0.3011,-0.2609,-0.2277,-0.1743,-0.1542,-0.1542,-0.1876,-0.2377,-0.3211,-0.3949,-0.4818,-0.5778,-0.656,-0.7214,-0.8027,-0.8903,-0.9945,-1.046,-1.0523,-1.0586,-1.0737,-1.117,-1.1686,-1.2297,-1.3122,-1.3846,-1.4628,-1.4904,-1.5109,-1.5264,2.9779,2.9779,2.9779,2.9779,2.9779,2.9779,2.9779,2.9741,2.9478,2.9189,2.8499,2.7342,2.6863,2.6649,2.5177,2.3761,2.2717,2.1452,2.0859,2.0632,2.0073,1.9693,1.9889,1.9727,1.9658,1.9629,1.9891,2.0068,2.0205,2.0195,1.9863,1.9375,1.9082,1.8588,1.8154,1.8008,1.8008,1.8008,1.8008,1.8008,1.8008,1.7773,1.7637,1.7406,1.7369,1.7118,1.6492,1.5913,1.521,1.507,1.4318,1.4076,1.3827,1.3313,1.2616,1.2405,1.2298,1.2305,1.2298,1.2174,1.1984,1.1615,1.0959,1.055,1.0042,0.9257,0.8144,0.7021,0.6461,0.5712,0.4818,0.388,0.3211,0.2611,0.1508,0.0772,0.0572,0.0269,-0.0168,-0.0671,-0.1408,-0.2178,-0.2778,-0.2778,-0.2477,-0.2043,-0.154,-0.1173,-0.0772,0.0,0.0,-0.1074,-0.161,-0.2544,-0.3347,-0.4115,-0.5017,-0.5837,-0.6621,-0.747,-0.835,-0.9288,-1.0034,-1.0491,-1.0523,-1.0586,-1.0895,-1.1382,-1.1872,-1.2451,-1.3416,-1.4255,-1.4641,-1.4906,-1.509,2.9779,2.9779,2.9779,2.9779,2.9779,2.9779,2.9779,2.9704,2.934,2.9076,2.8662,2.7238,2.6993,2.7149,2.6008,2.4708,2.4291,2.2902,2.1998,2.1507,2.086,2.0494,2.0196,1.9625,1.9385,1.9394,1.9658,1.9531,1.9736,1.9795,1.9551,1.916,1.8724,1.8393,1.8061,1.8008,1.8008,1.8008,1.8008,1.8008,1.8008,1.7988,1.7861,1.7568,1.7832,1.7628,1.7095,1.656,1.6333,1.5963,1.5384,1.4898,1.4997,1.4223,1.3414,1.2847,1.2508,1.2402,1.2549,1.2321,1.2024,1.1502,1.145,1.1076,1.0522,0.9637,0.863,0.7344,0.6687,0.6264,0.5319,0.4519,0.4015,0.3613,0.2509,0.1474,0.1106,0.0739,0.0303,-0.0202,-0.0705,0.0,0.0,-0.171,-0.1376,-0.1276,-0.0806,-0.0706,0.0,0.0,0.0,0.0,-0.0941,-0.191,-0.2678,-0.3278,-0.4148,-0.4945,-0.5734,-0.6551,-0.7497,-0.8447,-0.9288,-1.0256,-1.0523,-1.0618,-1.0863,-1.1076,-1.15,-1.2143,-1.3174,-1.3927,-1.4355,-1.4762,-1.5002,2.9779,2.9779,2.9779,2.9779,2.9779,2.9779,2.9779,2.9767,2.9679,2.9402,2.8925,2.81,2.7588,2.708,2.5863,2.5063,2.4555,2.3804,2.3136,2.2853,2.1854,2.1339,2.1053,1.9829,1.9627,1.9653,1.9819,1.959,1.9632,1.9553,1.9245,1.8938,1.8756,1.8428,1.8217,1.8202,1.8008,1.8042,1.8042,1.8042,1.8008,1.8008,1.7959,1.7939,1.7949,1.7939,1.7614,1.7157,1.6841,1.7064,1.6266,1.5628,1.5384,1.5537,1.5027,1.4134,1.325,1.2666,1.3171,1.2732,1.2051,1.1563,1.143,1.1109,1.0587,0.9919,0.9011,0.8027,0.7242,0.6461,0.5613,0.4619,0.4181,0.3813,0.3245,0.2242,0.1675,0.1139,0.0671,0.03,-0.0199,0.0,0.0,0.0,-0.0236,-0.0202,0.0,0.0,0.0,0.0,0.0,0.0,0.0,-0.1308,-0.1976,-0.2576,-0.3411,-0.4181,-0.4851,-0.5705,-0.6898,-0.8001,-0.9175,-0.9983,-1.0256,-1.0523,-1.0713,-1.0895,-1.1163,-1.1772,-1.2696,-1.3455,-1.4115,-1.451,-1.4982,3.008,2.9779,2.9779,2.9779,2.9779,2.9779,2.9779,2.9779,2.9779,2.9654,2.9264,2.8461,2.7645,2.6837,2.6336,2.6156,2.5746,2.5105,2.4649,2.435,2.3447,2.2905,2.2466,2.18,2.1179,2.0963,2.1019,2.0795,2.0339,1.9839,1.9597,1.9616,1.9048,1.872,1.8748,1.8731,1.8754,1.8754,1.8731,1.8462,1.8134,1.7998,1.7998,1.7998,1.8022,1.8022,1.792,1.7716,1.7478,1.7619,1.7054,1.6718,1.6389,1.619,1.5804,1.6169,1.479,1.3975,1.3637,1.2842,1.2114,1.1562,1.1349,1.1156,1.0651,1.0238,0.9658,0.8812,0.7962,0.7046,0.617,0.5315,0.4987,0.4553,0.3915,0.3413,0.2576,0.1606,0.1069,0.0696,0.0,0.0,0.0,0.0,0.0,0.0,0.0,0.0,0.0,0.0,0.0,0.0,0.0,-0.0706,-0.1241,-0.1809,-0.2811,-0.3566,-0.3991,-0.5006,-0.6465,-0.7681,-0.8623,-0.9334,-0.9652,-0.9977,-1.0396,-1.0681,-1.0895,-1.1476,-1.2151,-1.2848,-1.3567,-1.467,-1.4974,3.064,3.0342,3.0203,2.9961,2.9604,2.9834,2.9796,2.9566,2.9553,2.9641,2.9465,2.8599,2.7482,2.6751,2.6816,2.6684,2.6465,2.6487,2.606,2.5558,2.504,2.4481,2.3722,2.3247,2.2728,2.2915,2.2308,2.193,2.1428,2.0938,2.0731,2.0456,2.0062,1.964,1.9633,1.9789,1.9843,1.9617,1.9435,1.8998,1.8516,1.8304,1.8224,1.8175,1.8111,1.8111,1.8121,1.7978,1.7964,1.7886,1.7667,1.7348,1.7002,1.676,1.6632,1.6746,1.5798,1.5107,1.4356,1.3452,1.2337,1.1693,1.1262,1.1069,1.0707,1.0561,1.0238,0.9274,0.8382,0.7567,0.6756,0.5844,0.5388,0.5057,0.4719,0.4384,0.388,0.2841,0.2006,0.1664,0.1389,0.1118,0.0,0.0,0.0,0.0,0.0,0.0,0.0,0.0,0.0,0.0,0.0,0.0,0.0,0.0,0.0,-0.2963,-0.3364,-0.449,-0.6091,-0.6923,-0.7592,-0.8238,-0.8903,-0.9396,-0.9779,-1.0199,-1.0618,-1.1139,-1.1663,-1.2274,-1.3083,-1.4257,-1.4869,3.1532,3.1831,3.1305,3.031,2.9139,2.9941,2.9833,2.9101,2.9013,2.9315,2.9528,2.8624,2.757,2.6813,2.6663,2.665,2.6487,2.6487,2.6349,2.6025,2.5523,2.5111,2.459,2.3931,2.3219,2.3219,2.3304,2.3152,2.2835,2.2855,2.1664,2.0308,2.096,2.1019,2.0906,2.0816,2.0783,2.0494,2.0161,1.964,1.9201,1.8913,1.874,1.8552,1.8508,1.8487,1.8454,1.8295,1.8168,1.8168,1.7954,1.7559,1.7152,1.7282,1.7286,1.6896,1.671,1.6039,1.5257,1.4167,1.2926,1.1888,1.1229,1.1091,1.0848,1.0649,1.0174,0.9498,0.8775,0.7827,0.6887,0.6009,0.5686,0.5292,0.5057,0.4821,0.4417,0.3946,0.3174,0.2771,0.2354,0.1936,0.1764,0.1439,0.0829,0.0,0.0,0.0,0.0,0.0,0.0,0.0,0.0,0.0,0.0,0.0,0.0,-0.2168,-0.2798,-0.4243,-0.5905,-0.6449,-0.6664,-0.7432,-0.8161,-0.8646,-0.9204,-0.9722,-1.0231,-1.0674,-1.1233,-1.2027,-1.2586,-1.3463,-1.3994,3.2463,3.259,3.2219,3.1216,2.9852,3.0253,2.9935,2.923,2.8986,2.9001,2.9239,2.875,2.7996,2.7205,2.6977,2.6788,2.6537,2.6487,2.6487,2.6418,2.6094,2.5943,2.5611,2.5399,2.5139,2.4998,2.501,2.4672,2.4284,2.4578,2.4014,2.3132,2.2264,2.1657,2.1518,2.1649,2.1536,2.1454,2.107,2.0668,1.962,1.9489,1.9331,1.9267,1.9248,1.9465,1.9651,1.9128,1.889,1.8654,1.8269,1.7717,1.7207,1.7519,1.7432,1.7139,1.704,1.659,1.5749,1.4773,1.3737,1.2828,1.2,1.1449,1.1303,1.0926,1.0555,0.9945,0.9268,0.8323,0.7605,0.6724,0.6104,0.562,0.5292,0.5123,0.4855,0.4417,0.4127,0.3614,0.3017,0.2496,0.2424,0.2357,0.1675,0.0,0.0,0.0168,0.0471,0.0538,0.0538,0.0437,0.037,0.0067,0.0,0.0,-0.0504,-0.1368,-0.2285,-0.368,-0.5111,-0.5514,-0.583,-0.663,-0.7312,-0.7735,-0.8355,-0.9204,-0.9817,-1.0295,-1.1069,-1.1989,-1.2479,-1.2852,-1.3133,3.3621,3.3778,3.3248,3.1869,3.0281,3.071,3.0341,2.9403,2.8939,2.8734,2.8699,2.875,2.8436,2.7695,2.7293,2.7153,2.6788,2.66,2.6512,2.6452,2.6452,2.6487,2.6487,2.6393,2.6158,2.6487,2.6452,2.5965,2.5463,2.6198,2.549,2.436,2.3394,2.2953,2.2467,2.2321,2.2249,2.2249,2.1982,2.1578,2.0476,2.0308,2.0175,2.0141,2.0106,2.0219,2.0369,1.9986,1.9519,1.9177,1.8703,1.8098,1.7662,1.7416,1.7416,1.7353,1.7171,1.6722,1.5914,1.4722,1.4016,1.3204,1.2767,1.2336,1.1988,1.1445,1.1045,1.0856,0.9996,0.9043,0.8291,0.7372,0.656,0.6042,0.5491,0.5259,0.516,0.4888,0.471,0.4412,0.3953,0.3661,0.3498,0.344,0.2635,0.2036,0.1673,0.141,0.1509,0.1476,0.1208,0.1007,0.0806,0.0437,0.0,-0.0135,-0.037,-0.1072,-0.1963,-0.279,-0.3866,-0.4361,-0.5071,-0.5919,-0.6498,-0.6789,-0.734,-0.8059,-0.9,-0.9951,-1.0787,-1.1593,-1.2066,-1.2378,-1.2573,3.4901,3.564,3.4442,3.2256,3.0057,3.142,3.1127,2.9653,2.8902,2.8488,2.8308,2.8599,2.8499,2.7934,2.7419,2.7203,2.6989,2.6663,2.6487,2.6487,2.6487,2.6487,2.6487,2.6487,2.6487,2.6487,2.6487,2.6418,2.6314,2.6418,2.6011,2.5615,2.4888,2.4377,2.3885,2.3341,2.309,2.3002,2.253,2.2085,2.1687,2.1416,2.1167,2.1033,2.0979,2.1062,2.1181,2.0857,2.0354,1.9846,1.9299,1.8627,1.7859,1.7511,1.7445,1.7451,1.7021,1.6724,1.6468,1.46,1.3847,1.3668,1.3453,1.3178,1.2844,1.2266,1.1624,1.1375,1.0338,0.9498,0.8683,0.7929,0.7214,0.656,0.6046,0.562,0.5587,0.5226,0.5051,0.493,0.516,0.5216,0.4912,0.4508,0.3701,0.3111,0.2811,0.2644,0.2611,0.2277,0.1942,0.1809,0.1508,0.0839,0.0437,0.0101,-0.0269,-0.0939,-0.1571,-0.2301,-0.2967,-0.3612,-0.4383,-0.5219,-0.5547,-0.5738,-0.6228,-0.678,-0.7957,-0.9134,-1.0168,-1.0982,-1.15,-1.1835,-1.1941,3.5404,3.5222,3.4338,3.318,3.2019,3.2544,3.1974,3.0592,2.9714,2.891,2.8252,2.8335,2.8072,2.7607,2.7381,2.7153,2.6801,2.6688,2.6487,2.6487,2.6487,2.6487,2.6487,2.6487,2.6487,2.6487,2.6487,2.6487,2.6452,2.6487,2.6436,2.6147,2.5398,2.4695,2.3985,2.3434,2.3108,2.3083,2.2865,2.2621,2.2231,2.2072,2.1977,2.1854,2.1825,2.196,2.217,2.1732,2.1215,2.0719,2.0171,1.9204,1.8504,1.813,1.7609,1.7562,1.7197,1.6551,1.6258,1.5254,1.4821,1.4541,1.4209,1.3922,1.3704,1.2473,1.2012,1.1686,1.0843,1.0034,0.9172,0.8909,0.8323,0.754,0.699,0.6498,0.6203,0.5653,0.5279,0.5276,0.5392,0.5591,0.5451,0.5186,0.4517,0.4048,0.3744,0.3547,0.3447,0.2978,0.2577,0.2577,0.231,0.1508,0.0906,0.0538,0.0135,-0.0403,-0.0973,-0.1572,-0.2209,-0.2845,-0.3544,-0.4281,-0.4514,-0.4716,-0.5437,-0.6228,-0.7177,-0.8253,-0.932,-1.0231,-1.0762,-1.1051,-1.1162,3.5906,3.5468,3.4806,3.4291,3.3944,3.3747,3.2757,3.1286,3.0387,2.938,2.8486,2.8428,2.8223,2.7715,2.7366,2.7203,2.6763,2.6549,2.6487,2.6487,2.6487,2.6487,2.6487,2.6487,2.6487,2.6487,2.6487,2.6487,2.6487,2.6487,2.6323,2.5933,2.5285,2.4619,2.3991,2.3446,2.3095,2.3095,2.3007,2.2932,2.2672,2.2598,2.2598,2.2564,2.2602,2.2714,2.2832,2.2628,2.2168,2.1659,2.0942,2.0009,1.9489,1.8723,1.8137,1.8081,1.7324,1.6566,1.5888,1.5625,1.5234,1.5244,1.4844,1.4658,1.4421,1.3507,1.271,1.2166,1.1469,1.0661,0.997,0.9779,0.9102,0.8318,0.78,0.7307,0.7018,0.6502,0.6108,0.6046,0.6112,0.6174,0.6079,0.5653,0.5253,0.4948,0.4646,0.448,0.4284,0.3882,0.3411,0.3311,0.3078,0.231,0.1542,0.0906,0.0504,0.0067,-0.0437,-0.0973,-0.1441,-0.2076,-0.2744,-0.3311,-0.3547,-0.3979,-0.4878,-0.5738,-0.6687,-0.7567,-0.8474,-0.932,-1.0009,-1.035,-1.0566,3.6477,3.6357,3.5774,3.5442,3.5337,3.4678,3.3212,3.1277,3.0797,2.9801,2.8567,2.8978,2.8624,2.7988,2.7503,2.7168,2.7077,2.6663,2.6537,2.6487,2.6487,2.6487,2.6487,2.6487,2.6487,2.6521,2.6589,2.6714,2.6521,2.6487,2.6223,2.5611,2.5084,2.4456,2.3879,2.3384,2.312,2.3095,2.3083,2.3045,2.292,2.2982,2.2957,2.2945,2.2982,2.2995,2.3035,2.2944,2.2598,2.2187,2.1772,2.1259,2.0497,1.9372,1.92,1.8599,1.7468,1.646,1.5674,1.5459,1.541,1.5449,1.542,1.5381,1.5021,1.4323,1.3597,1.2931,1.2297,1.15,1.0793,1.0225,0.9652,0.9032,0.8517,0.8226,0.8027,0.767,0.7307,0.7242,0.7409,0.7409,0.7246,0.6826,0.6141,0.584,0.5536,0.5216,0.505,0.499,0.4519,0.4048,0.3713,0.3111,0.2344,0.1575,0.094,0.0504,0.0034,-0.0471,-0.0906,0.0,-0.1776,-0.2278,-0.2611,-0.3278,-0.4314,-0.5272,-0.6195,-0.7009,-0.7595,-0.864,-0.9422,-0.9977,-1.0325,3.6222,3.5774,3.5579,3.5489,3.54,3.4803,3.348,3.1942,3.129,3.0209,2.8833,2.8379,2.8255,2.7738,2.7087,2.682,2.6688,2.66,2.6524,2.6487,2.6487,2.6487,2.6487,2.6487,2.6487,2.6679,2.6871,2.6939,2.6611,2.6508,2.5942,2.5101,2.4845,2.4243,2.3634,2.3195,2.3133,2.3095,2.3095,2.3095,2.3095,2.3095,2.3095,2.3095,2.3095,2.3095,2.3095,2.3095,2.2854,2.275,2.2187,2.1678,2.1518,2.0538,1.9888,1.8333,1.7284,1.6346,1.5664,1.5723,1.5723,1.5537,1.5644,1.5635,1.5321,1.4795,1.4172,1.3623,1.315,1.2445,1.1677,1.1024,1.0528,1.0021,0.948,0.9037,0.8844,0.8581,0.8215,0.8151,0.8318,0.8156,0.8027,0.7702,0.7051,0.6785,0.6461,0.6075,0.5653,0.5524,0.5292,0.4821,0.4384,0.3782,0.3078,0.231,0.1609,0.0939,0.0504,0.0,0.0,0.0,0.0,-0.1375,-0.1976,-0.2878,-0.3915,-0.4698,-0.5157,-0.5891,-0.6556,-0.7762,-0.8812,-0.9396,-0.9983,3.6252,3.5863,3.5609,3.5489,3.5429,3.5055,3.4201,3.3081,3.2139,3.0993,2.9873,2.9127,2.8376,2.7676,2.7235,2.6875,2.6512,2.6512,2.6487,2.6487,2.6487,2.6487,2.6487,2.6487,2.6487,2.6714,2.6918,2.704,2.6833,2.6601,2.6108,2.5032,2.4747,2.3998,2.3371,2.312,2.312,2.3095,2.3095,2.3095,2.3095,2.3095,2.3095,2.3095,2.3095,2.3095,2.3095,2.3095,2.3095,2.3108,2.2506,2.2384,2.2218,2.1538,2.0245,1.8835,1.7781,1.686,1.6124,1.5753,1.5655,1.5566,1.5703,1.5596,1.5536,1.5222,1.468,1.4165,1.3852,1.3437,1.2684,1.1958,1.1531,1.1101,1.0478,0.9849,0.9594,0.9326,0.9166,0.9,0.8865,0.8705,0.8479,0.8221,0.8059,0.7929,0.7507,0.6924,0.6276,0.5723,0.5524,0.519,0.4855,0.4453,0.3747,0.3045,0.2344,0.1609,0.0973,0.0,0.0,0.0,0.0,0.0,-0.1475,-0.2274,-0.297,-0.3366,-0.3866,-0.4686,-0.5505,-0.6359,-0.7639,-0.8903,-0.9428,3.648,3.6312,3.5759,3.5489,3.5489,3.5444,3.5083,3.4474,3.3124,3.2077,3.1232,3.0513,2.9286,2.8182,2.7835,2.7229,2.6837,2.6658,2.6645,2.6521,2.6487,2.6487,2.6487,2.6487,2.6487,2.6521,2.6748,2.7229,2.7373,2.7013,2.6181,2.5174,2.4702,2.4167,2.3777,2.3467,2.3424,2.3412,2.3245,2.3095,2.3095,2.3095,2.3095,2.3095,2.3095,2.3095,2.3095,2.3095,2.3095,2.3108,2.3078,2.3005,2.275,2.2194,2.0822,1.9708,1.8579,1.7807,1.7042,1.6566,1.6036,1.5791,1.5556,1.5586,1.5606,1.5527,1.5035,1.4762,1.4459,1.4047,1.3346,1.2818,1.2381,1.1741,1.1069,1.051,1.0174,1.0009,0.9939,0.9741,0.948,0.9352,0.955,0.9326,0.8871,0.8909,0.8587,0.7874,0.719,0.6375,0.5885,0.5657,0.5226,0.4888,0.4453,0.378,0.3078,0.2377,0.1707,0.0,0.0,0.0,0.0,0.0,-0.0906,-0.1168,-0.1693,-0.2228,-0.296,-0.3994,-0.4691,-0.5061,-0.6218,-0.7814,-0.8941,3.6193,3.5729,3.5579,3.5489,3.5489,3.5489,3.5415,3.5145,3.3829,3.2795,3.2048,3.0874,2.9752,2.8844,2.8739,2.8085,2.6935,2.7156,2.6985,2.6671,2.6524,2.6487,2.6487,2.6487,2.6521,2.6714,2.704,2.7591,2.7499,2.7026,2.6394,2.5796,2.5278,2.481,2.4585,2.4242,2.3857,2.3691,2.3335,2.3138,2.3095,2.3095,2.3095,2.3095,2.3095,2.3095,2.3095,2.3095,2.3095,2.3108,2.3108,2.3095,2.3065,2.231,2.1575,2.0674,1.9565,1.887,1.8383,1.7741,1.7182,1.6884,1.6658,1.6115,1.5811,1.5664,1.5459,1.5254,1.4979,1.4563,1.413,1.3644,1.3166,1.2412,1.1655,1.1202,1.0751,1.0688,1.0649,1.0358,1.0098,1.0168,1.0396,1.0238,0.9811,0.9492,0.9274,0.8753,0.8199,0.7484,0.6704,0.6309,0.5591,0.519,0.4855,0.4475,0.377,0.3261,0.2692,0.1935,0.1104,0.0,0.0,0.0,-0.0269,-0.0633,-0.0989,-0.1363,-0.2165,-0.317,-0.3921,-0.4299,-0.517,-0.6614,-0.7894,3.6522,3.5923,3.5624,3.5489,3.5444,3.519,3.504,3.4801,3.3634,3.2856,3.2422,3.1323,3.0359,2.9744,2.982,2.8934,2.7663,2.793,2.7554,2.7047,2.6631,2.6499,2.6487,2.6521,2.6837,2.7129,2.8252,2.8666,2.7803,2.7314,2.6783,2.6654,2.6196,2.5318,2.5201,2.4648,2.4118,2.3721,2.3348,2.3168,2.3125,2.3095,2.3095,2.3095,2.3095,2.3095,2.3095,2.3095,2.3095,2.3095,2.3095,2.3095,2.3035,2.2732,2.2225,2.1547,2.0736,1.9975,1.9621,1.9085,1.8422,1.8046,1.7135,1.636,1.6089,1.5915,1.5508,1.5313,1.5623,1.5302,1.4751,1.4293,1.3897,1.3257,1.2596,1.2058,1.16,1.1288,1.0982,1.0523,1.0358,1.039,1.0523,1.0523,1.0168,1.0136,0.9881,0.9817,0.9227,0.8619,0.7809,0.7125,0.6502,0.5719,0.5226,0.4905,0.4485,0.4007,0.3567,0.2731,0.1873,0.1048,0.0,0.0398,0.0199,-0.0199,-0.0557,0.0,0.0,-0.2109,-0.2873,-0.3558,-0.4548,-0.5478,-0.6542,3.6881,3.6312,3.5744,3.5489,3.5415,3.4891,3.4623,3.4307,3.32,3.2617,3.2392,3.1765,3.1058,3.0713,3.085,2.9799,2.911,2.8953,2.835,2.746,2.6925,2.6709,2.6555,2.6521,2.6837,2.7451,2.8427,2.8379,2.7886,2.752,2.7452,2.7705,2.6642,2.5053,2.5176,2.4801,2.4348,2.3879,2.3501,2.3258,2.3198,2.3125,2.3095,2.3095,2.3045,2.3032,2.3058,2.302,2.3007,2.3095,2.3095,2.3095,2.3095,2.2975,2.2805,2.2224,2.1658,2.1133,2.0751,1.9905,1.9321,1.8662,1.7477,1.6843,1.6701,1.6296,1.5904,1.5723,1.6039,1.58,1.5272,1.4894,1.4501,1.4025,1.3356,1.2787,1.2328,1.1958,1.1469,1.0958,1.0863,1.0863,1.08,1.0769,1.0618,1.0618,1.0606,1.0576,1.036,0.9708,0.8973,0.8328,0.7739,0.6896,0.5885,0.547,0.5209,0.4647,0.4156,0.34,0.2622,0.1807,0.1189,0.0878,0.0619,0.0228,0.0,0.0,0.0,0.0,-0.1917,-0.2756,-0.3871,-0.4747,-0.5276,3.6282,3.5684,3.5549,3.5489,3.5474,3.534,3.5011,3.4429,3.3664,3.3036,3.2452,3.1781,3.1058,3.0359,3.1102,3.0574,2.9476,2.9599,2.8852,2.7736,2.7442,2.7011,2.6726,2.6658,2.6611,2.7129,2.765,2.7459,2.7907,2.784,2.8118,2.8883,2.8753,2.7778,2.7463,2.6666,2.5349,2.4718,2.3897,2.3573,2.3796,2.3619,2.3155,2.2957,2.2669,2.2819,2.2857,2.2631,2.2782,2.2957,2.3095,2.3095,2.3095,2.3095,2.297,2.2782,2.2241,2.2174,2.1636,2.0998,2.0482,2.0322,1.9316,1.8385,1.8031,1.7444,1.697,1.6376,1.6348,1.5861,1.541,1.5303,1.4962,1.4323,1.3666,1.3304,1.2879,1.2787,1.2543,1.2151,1.1841,1.1748,1.1562,1.1288,1.0776,1.0744,1.0618,1.062,1.0595,1.0282,0.9983,0.946,0.8877,0.7864,0.6789,0.633,0.5971,0.5394,0.4746,0.405,0.3301,0.2555,0.2026,0.1699,0.1145,0.0671,0.0,0.0,0.0,-0.0957,-0.1217,-0.1932,-0.3058,-0.3992,-0.4568]}]]